[[{"header":{"parameterUnit":"m.s-1","parameterCategory":1,"la1":30.6,"la2":28.766,"lo1":-90.7593,"lo2":-88.6598,"dy":0.0162,"dx":0.0183,"nx":116,"ny":114,"refTime":"2024-06-28T12:00:00:Z","depth":0,"parameterNumber":2,"parameterNumberName":"U-component_of_WINDS"},"data":[0.0,0.0,0.0,0.0,0.0,0.0,0.0,0.0,0.0,0.0,0.0,0.0,0.0,0.0,0.0,0.0,0.0,0.0,0.0,0.0,0.0,0.0,0.0,0.0,0.0,0.0,0.0,0.0,0.0,0.0,0.0,0.0,0.0,0.0,0.0,0.0,0.0,0.0,0.0,0.0,0.0,0.0,0.0,0.0,0.0,0.0,0.0,0.0,0.0,0.0,0.0,0.0,0.0,0.0,0.0,0.0,0.0,0.0,0.0,0.0,0.0,0.0,0.0,0.0,0.0,0.0,0.0,0.0,0.0,0.0,0.0,0.0,0.0,0.0,0.0,0.0,0.0,0.0,0.0,0.0,0.0,0.0,0.0,0.0,0.0,0.0,0.0,0.0,0.0,0.0,0.0,0.0,0.0,0.0,0.0,0.0,0.0,0.0,0.0,0.0,0.0,0.0,0.0,0.0,0.0,0.0,0.0,0.0,0.0,0.0,0.0,0.0,0.0,0.0,0.0,0.0,0.0,0.0,0.0,0.0,0.0,0.0,0.0,0.0,0.0,0.0,0.0,0.0,0.0,0.0,0.0,0.0,0.0,0.0,0.0,0.0,0.0,0.0,0.0,0.0,0.0,0.0,0.0,0.0,0.0,0.0,0.0,0.0,0.0,0.0,0.0,0.0,0.0,0.0,0.0,0.0,0.0,0.0,0.0,0.0,0.0,0.0,0.0,0.0,0.0,0.0,0.0,0.0,0.0,0.0,0.0,0.0,0.0,0.0,0.0,0.0,0.0,0.0,0.0,0.0,0.0,0.0,0.0,0.0,0.0,0.0,0.0,0.0,0.0,0.0,0.0,0.0,0.0,0.0,0.0,0.0,0.0,0.0,0.0,0.0,0.0,0.0,0.0,0.0,0.0,0.0,0.0,0.0,0.0,0.0,0.0,0.0,0.0,0.0,0.0,0.0,0.0,0.0,0.0,0.0,0.0,0.0,0.0,0.0,0.0,0.0,0.0,0.0,0.0,0.0,0.0,0.0,0.0,0.0,0.0,0.0,0.0,0.0,0.0,0.0,0.0,0.0,0.0,0.0,0.0,0.0,0.0,0.0,0.0,0.0,0.0,0.0,0.0,0.0,0.0,0.0,0.0,0.0,0.0,0.0,0.0,0.0,0.0,0.0,0.0,0.0,0.0,0.0,0.0,0.0,0.0,0.0,0.0,0.0,0.0,0.0,0.0,0.0,0.0,0.0,0.0,0.0,0.0,0.0,0.0,0.0,0.0,0.0,0.0,0.0,0.0,0.0,0.0,0.0,0.0,0.0,0.0,0.0,0.0,0.0,0.0,0.0,0.0,0.0,0.0,0.0,0.0,0.0,0.0,0.0,0.0,0.0,0.0,0.0,0.0,0.0,0.0,0.0,0.0,0.0,0.0,0.0,0.0,0.0,0.0,0.0,0.0,0.0,0.0,0.0,0.0,0.0,0.0,0.0,0.0,0.0,0.0,0.0,0.0,0.0,0.0,0.0,0.0,0.0,0.0,0.0,0.0,0.0,0.0,0.0,0.0,0.0,0.0,0.0,0.0,0.0,0.0,0.0,0.0,0.0,0.0,0.0,0.0,0.0,0.0,0.0,0.0,0.0,0.0,0.0,0.0,0.0,0.0,0.0,0.0,0.0,0.0,0.0,0.0,0.0,0.0,0.0,0.0,0.0,0.0,0.0,0.0,0.0,0.0,0.0,0.0,0.0,0.0,0.0,0.0,0.0,0.0,0.0,0.0,0.0,0.0,0.0,0.0,0.0,0.0,0.0,0.0,0.0,0.0,0.0,0.0,0.0,0.0,0.0,0.0,0.0,0.0,0.0,0.0,0.0,0.0,0.0,0.0,0.0,0.0,0.0,0.0,0.0,0.0,0.0,0.0,0.0,0.0,0.0,0.0,0.0,0.0,0.0,0.0,0.0,0.0,0.0,0.0,0.0,0.0,0.0,0.0,0.0,0.0,0.0,0.0,0.0,0.0,0.0,0.0,0.0,0.0,0.0,0.0,0.0,0.0,0.0,0.0,0.0,0.0,0.0,0.0,0.0,0.0,0.0,0.0,0.0,0.0,0.0,0.0,0.0,0.0,0.0,0.0,0.0,0.0,0.0,0.0,0.0,0.0,0.0,0.0,0.0,0.0,0.0,0.0,0.0,0.0,0.0,0.0,0.0,0.0,0.0,0.0,0.0,0.0,0.0,0.0,0.0,0.0,0.0,0.0,0.0,0.0,0.0,0.0,0.0,0.0,0.0,0.0,0.0,0.0,0.0,0.0,0.0,0.0,0.0,0.0,0.0,0.0,0.0,0.0,0.0,0.0,0.0,0.0,0.0,0.0,0.0,0.0,0.0,0.0,0.0,0.0,0.0,0.0,0.0,0.0,0.0,0.0,0.0,0.0,0.0,0.0,0.0,0.0,0.0,0.0,0.0,0.0,0.0,0.0,0.0,0.0,0.0,0.0,0.0,0.0,0.0,0.0,0.0,0.0,0.0,0.0,0.0,0.0,0.0,0.0,0.0,0.0,0.0,0.0,0.0,0.0,0.0,0.0,0.0,0.0,0.0,0.0,0.0,0.0,0.0,0.0,0.0,0.0,0.0,0.0,0.0,0.0,0.0,0.0,0.0,0.0,0.0,0.0,0.0,0.0,0.0,0.0,0.0,0.0,0.0,0.0,0.0,0.0,0.0,0.0,0.0,0.0,0.0,0.0,0.0,0.0,0.0,0.0,0.0,0.0,0.0,0.0,0.0,0.0,0.0,0.0,0.0,0.0,0.0,0.0,0.0,0.0,0.0,0.0,0.0,0.0,0.0,0.0,0.0,0.0,0.0,0.0,0.0,0.0,0.0,0.0,0.0,0.0,0.0,0.0,0.0,0.0,0.0,0.0,0.0,0.0,0.0,0.0,0.0,0.0,0.0,0.0,0.0,0.0,0.0,0.0,0.0,0.0,0.0,0.0,0.0,0.0,0.0,0.0,0.0,0.0,0.0,0.0,0.0,0.0,0.0,0.0,0.0,0.0,0.0,0.0,0.0,0.0,0.0,0.0,0.0,0.0,0.0,0.0,0.0,0.0,0.0,0.0,0.0,0.0,0.0,0.0,0.0,0.0,0.0,0.0,0.0,0.0,0.0,0.0,0.0,0.0,0.0,0.0,0.0,0.0,0.0,0.0,0.0,0.0,0.0,0.0,0.0,0.0,0.0,0.0,0.0,0.0,0.0,0.0,0.0,0.0,0.0,0.0,0.0,0.0,0.0,0.0,0.0,0.0,0.0,0.0,0.0,0.0,0.0,0.0,0.0,0.0,0.0,0.0,0.0,0.0,0.0,0.0,0.0,0.0,0.0,0.0,0.0,0.0,0.0,0.0,0.0,0.0,0.0,0.0,0.0,0.0,0.0,0.0,0.0,0.0,0.0,0.0,0.0,0.0,0.0,0.0,0.0,0.0,0.0,0.0,0.0,0.0,0.0,0.0,0.0,0.0,0.0,0.0,0.0,0.0,0.0,0.0,0.0,0.0,0.0,0.0,0.0,0.0,0.0,0.0,0.0,0.0,0.0,0.0,0.0,0.0,0.0,0.0,0.0,0.0,0.0,0.0,0.0,0.0,0.0,0.0,0.0,0.0,0.0,0.0,0.0,0.0,0.0,0.0,0.0,0.0,0.0,0.0,0.0,0.0,0.0,0.0,0.0,0.0,0.0,0.0,0.0,0.0,0.0,0.0,0.0,0.0,0.0,0.0,0.0,0.0,0.0,0.0,0.0,0.0,0.0,0.0,0.0,0.0,0.0,0.0,0.0,0.0,0.0,0.0,0.0,0.0,0.0,0.0,0.0,0.0,0.0,0.0,0.0,0.0,0.0,0.0,0.0,0.0,0.0,0.0,0.0,0.0,0.0,0.0,0.0,0.0,0.0,0.0,0.0,0.0,0.0,0.0,0.0,0.0,0.0,0.0,0.0,0.0,0.0,0.0,0.0,0.0,0.0,0.0,0.0,0.0,0.0,0.0,0.0,0.0,0.0,0.0,0.0,0.0,0.0,0.0,0.0,0.0,0.0,0.0,0.0,0.0,0.0,0.0,0.0,0.0,0.0,0.0,0.0,0.0,0.0,0.0,0.0,0.0,0.0,0.0,0.0,0.0,0.0,0.0,0.0,0.0,0.0,0.0,0.0,0.0,0.0,0.0,0.0,0.0,0.0,0.0,0.0,0.0,0.0,0.0,0.0,0.0,0.0,0.0,0.0,0.0,0.0,0.0,0.0,0.0,0.0,0.0,0.0,0.0,0.0,0.0,0.0,0.0,0.0,0.0,0.0,0.0,0.0,0.0,0.0,0.0,0.0,0.0,0.0,0.0,0.0,0.0,0.0,0.0,0.0,0.0,0.0,0.0,0.0,0.0,0.0,0.0,0.0,0.0,0.0,0.0,0.0,0.0,0.0,0.0,0.0,0.0,0.0,0.0,0.0,0.0,0.0,0.0,0.0,0.0,0.0,0.0,0.0,0.0,0.0,0.0,0.0,0.0,0.0,0.0,0.0,0.0,0.0,0.0,0.0,0.0,0.0,0.0,0.0,0.0,0.0,0.0,0.0,0.0,0.0,0.0,0.0,0.0,0.0,0.0,0.0,0.0,0.0,0.0,0.0,0.0,0.0,0.0,0.0,0.0,0.0,0.0,0.0,0.0,0.0,0.0,0.0,0.0,0.0,0.0,0.0,0.0,0.0,0.0,0.0,0.0,0.0,0.0,0.0,0.0,0.0,0.0,0.0,0.0,0.0,0.0,0.0,0.0,0.0,0.0,0.0,0.0,0.0,0.0,0.0,0.0,0.0,0.0,0.0,0.0,0.0,0.0,0.0,0.0,0.0,0.0,0.0,0.0,0.0,0.0,0.0,0.0,0.0,0.0,0.0,0.0,0.0,0.0,0.0,0.0,0.0,0.0,0.0,0.0,0.0,0.0,0.0,0.0,0.0,0.0,0.0,0.0,0.0,0.0,0.0,0.0,0.0,0.0,0.0,0.0,0.0,0.0,0.0,0.0,0.0,0.0,0.0,0.0,0.0,0.0,0.0,0.0,0.0,0.0,0.0,0.0,0.0,0.0,0.0,0.0,0.0,0.0,0.0,0.0,0.0,0.0,0.0,0.0,0.0,0.0,0.0,0.0,0.0,0.0,0.0,0.0,0.0,0.0,0.0,0.0,0.0,0.0,0.0,0.0,0.0,0.0,0.0,0.0,0.0,0.0,0.0,0.0,0.0,0.0,0.0,0.0,0.0,0.0,0.0,0.0,0.0,0.0,0.0,0.0,0.0,0.0,0.0,0.0,0.0,0.0,0.0,0.0,0.0,0.0,0.0,0.0,0.0,0.0,0.0,0.0,0.0,0.0,0.0,0.0,0.0,0.0,0.0,0.0,0.0,0.0,0.0,0.0,0.0,0.0,0.0,0.0,0.0,0.0,0.0,0.0,0.0,0.0,0.0,0.0,0.0,0.0,0.0,0.0,0.0,0.0,0.0,0.0,0.0,0.0,0.0,0.0,0.0,0.0,0.0,0.0,0.0,0.0,0.0,0.0,0.0,0.0,0.0,0.0,0.0,0.0,0.0,0.0,0.0,0.0,0.0,0.0,0.0,0.0,0.0,0.0,0.0,0.0,0.0,0.0,0.0,0.0,0.0,0.0,0.0,0.0,0.0,0.0,0.0,0.0,0.0,0.0,0.0,0.0,0.0,0.0,0.0,0.0,0.0,0.0,0.0,0.0,0.0,0.0,0.0,0.0,0.0,0.0,0.0,0.0,0.0,0.0,0.0,0.0,0.0,0.0,0.0,0.0,0.0,0.0,0.0,0.0,0.0,0.0,0.0,0.0,0.0,0.0,0.0,0.0,0.0,0.0,0.0,0.0,0.0,0.0,0.0,0.0,0.0,0.0,0.0,0.0,0.0,0.0,0.0,0.0,0.0,0.0,0.0,0.0,0.0,0.0,0.0,0.0,0.0,0.0,0.0,0.0,0.0,0.0,0.0,0.0,0.0,0.0,0.0,0.0,0.0,0.0,0.0,0.0,0.0,0.0,0.0,0.0,0.0,0.0,0.0,0.0,0.0,-1.1746,0.0,0.0,0.0,0.0,0.0,0.0,0.0,0.0,0.0,0.0,0.0,0.0,0.0,0.0,0.0,0.0,0.0,0.0,0.0,0.0,0.0,0.0,0.0,0.0,0.3831,0.38,0.3345,0.3515,0.3632,0.3614,0.0,0.0,0.0,0.0,0.0,0.4092,0.373,0.325,0.2644,0.1649,0.0626,-0.0413,-0.1268,-0.2378,-0.3654,0.0,0.0,0.0,0.0,0.0,0.0,0.0,0.0,0.0,0.0,0.0,0.0,0.0,0.0,0.0,0.0,0.0,0.0,0.0,0.0,0.0,0.0,0.0,0.0,0.0,0.0,0.0,0.0,0.0,0.0,0.0,0.0,0.0,0.0,0.0,0.0,0.0,0.0,0.0,0.0,0.0,0.0,0.0,0.0,0.0,0.0,0.0,0.0,0.0,0.0,0.0,0.0,0.0,0.0,0.0,0.0,0.0,0.0,0.0,0.0,0.0,0.0,0.0,0.0,0.0,0.0,0.0,0.0,0.0,0.0,0.0,-1.2542,0.0,0.0,0.0,0.0,0.0,0.0,0.0,0.0,0.0,0.0,0.0,0.0,0.0,0.0,0.0,0.0,0.0,0.0,0.0,0.0,0.0,0.3614,0.3537,0.3967,0.4029,0.3417,0.3825,0.3923,0.3431,0.0,0.0,0.0,0.0,0.4319,0.3586,0.3356,0.2698,0.1587,0.0751,-0.0442,-0.1968,-0.3233,-0.4385,0.0,-0.5442,0.0,0.0,0.0,0.0,0.0,0.0,0.0,0.0,0.0,0.0,0.0,0.0,0.0,0.0,0.0,0.0,0.0,0.0,0.0,0.0,0.0,0.0,0.0,0.0,0.0,0.0,0.0,0.0,0.0,0.0,0.0,0.0,0.0,0.0,0.0,0.0,0.0,0.0,0.0,0.0,0.0,0.0,0.0,0.0,0.0,0.0,0.0,0.0,0.0,0.0,0.0,0.0,0.0,0.0,0.0,0.0,0.0,0.0,0.0,0.0,0.0,0.0,0.0,-1.7201,-1.7693,-1.7366,-1.6927,-1.7105,-1.7711,-1.6374,-1.5221,-1.4149,-1.2693,0.0,0.0,0.0,0.0,0.0,0.0,0.0,0.0,0.0,0.0,0.0,0.0,0.0,0.0,0.0,0.0,0.0,0.0,0.0,0.358,0.3963,0.4082,0.4205,0.4382,0.4528,0.4389,0.3858,0.0,0.0,0.0,0.3925,0.4031,0.4581,0.3304,0.2394,0.1928,-0.0342,-0.1815,-0.2515,0.0,0.0,0.0,-0.5748,-0.592,0.0,0.0,0.0,0.0,0.0,0.0,0.0,0.0,0.0,0.0,0.0,0.0,0.0,0.0,0.0,0.0,0.0,0.0,0.0,0.0,0.0,0.0,0.0,0.0,0.0,0.0,0.0,0.0,0.0,0.0,0.0,0.0,0.0,0.0,0.0,0.0,0.0,0.0,0.0,0.0,0.0,0.0,-0.8252,-0.8389,0.0,0.0,0.0,0.0,0.0,0.0,0.0,0.0,0.0,0.0,0.0,0.0,0.0,-1.4099,-1.4264,-1.668,-1.7531,-1.6841,-1.983,-2.0865,-2.0203,-2.0859,-2.1223,-2.1331,-2.1108,0.0,-1.4029,-1.373,0.0,0.0,0.0,0.0,0.0,0.0,0.0,0.0,0.0,0.0,0.0,0.0,0.0,0.0,0.0,0.0,0.0,0.0,0.0,0.0,0.0,0.4634,0.4888,0.4628,0.4913,0.4588,0.0,0.0,0.0,0.3579,0.4064,0.362,0.2074,0.2267,0.1367,-0.0696,-0.1859,-0.2946,0.0,0.0,0.0,0.0,-0.6693,-0.7065,0.0,0.0,0.0,0.0,0.0,0.0,0.0,0.0,0.0,0.0,0.0,0.0,0.0,0.0,0.0,0.0,0.0,0.0,0.0,0.0,0.0,0.0,0.0,0.0,0.0,0.0,0.0,0.0,0.0,0.0,0.0,0.0,0.0,0.0,0.0,0.0,0.0,0.0,0.0,0.0,0.0,-0.8569,-0.9703,-0.9314,-0.9865,-0.997,0.0,0.0,0.0,0.0,0.0,0.0,0.0,0.0,0.0,-1.5318,-1.6128,-1.7219,-1.8544,-2.0567,-2.141,-2.1078,-2.2994,-2.3509,-2.2732,-2.2602,-2.2565,-2.2528,-2.1948,-2.0111,-1.7397,-1.6517,-1.5254,-1.3763,0.0,0.0,0.0,0.0,-1.2925,-1.2941,0.0,0.0,0.0,0.0,0.0,0.0,0.0,0.0,0.0,0.0,0.0,0.0,0.4015,0.4724,0.4994,0.4538,0.0,0.0,0.0,0.0,0.0,0.2323,0.2933,0.2142,-0.0327,0.0475,-0.0478,-0.3336,-0.3474,0.0,0.0,0.0,0.0,0.0,0.0,0.0,0.0,0.0,0.0,0.0,0.0,0.0,0.0,0.0,0.0,0.0,0.0,0.0,0.0,0.0,0.0,0.0,0.0,0.0,0.0,0.0,0.0,0.0,0.0,0.0,0.0,0.0,0.0,0.0,0.0,0.0,0.0,0.0,0.0,0.0,0.0,0.0,0.0,0.0,0.0,0.0,0.0,-0.9686,-1.0763,-1.0189,-1.08,-1.092,0.0,0.0,0.0,0.0,0.0,0.0,-1.4288,-1.5329,-1.6626,-1.8199,-1.9011,-2.0383,-2.2373,-2.3603,-2.4302,-2.4523,-2.5186,-2.5279,-2.4893,-2.4248,-2.3916,-2.3804,-2.3123,-2.2389,-2.1549,-1.929,-1.7665,-1.6464,-1.5003,-1.4417,-1.4402,-1.4788,-1.4981,-1.5151,0.0,0.0,0.0,0.0,0.0,0.0,0.0,0.0,0.0,0.0,0.0,0.3248,0.0,0.0,0.0,0.0,0.0,0.0,0.0,0.0,0.0,0.0191,-0.0644,-0.1098,-0.1146,-0.2258,-0.3471,0.0,0.0,0.0,0.0,0.0,0.0,0.0,0.0,0.0,0.0,0.0,0.0,0.0,0.0,0.0,0.0,0.0,0.0,0.0,0.0,0.0,0.0,0.0,0.0,0.0,0.0,0.0,0.0,0.0,0.0,0.0,0.0,0.0,0.0,0.0,0.0,0.0,0.0,0.0,0.0,0.0,0.0,0.0,0.0,0.0,0.0,0.0,0.0,0.0,0.0,0.0,0.0,-1.096,-1.1764,0.0,0.0,0.0,0.0,-1.3364,-1.4916,-1.6209,-1.6967,-1.8559,-2.0131,-2.1618,-2.2385,-2.318,-2.4061,-2.4153,-2.4575,-2.5348,-2.5443,-2.5886,-2.6585,-2.6514,-2.6376,-2.6166,-2.634,-2.6194,-2.5487,-2.1309,-1.8971,-1.7907,-1.6863,-1.6775,-1.7113,-1.6384,-1.6627,-1.7346,0.0,0.0,0.0,0.0907,0.1142,0.1398,0.1801,0.1801,0.1744,0.1679,0.2666,0.0,0.0,0.0,0.0,0.0,0.0,0.0,0.0,0.0,0.0557,0.0271,-0.0643,-0.1427,-0.2023,-0.5014,-0.6594,0.0,0.0,0.0,0.0,0.0,0.0,0.0,0.0,0.0,0.0,0.0,0.0,0.0,0.0,0.0,0.0,0.0,0.0,0.0,0.0,0.0,0.0,0.0,0.0,0.0,0.0,0.0,0.0,0.0,0.0,0.0,0.0,0.0,0.0,0.0,0.0,0.0,0.0,0.0,0.0,0.0,0.0,0.0,0.0,0.0,0.0,0.0,0.0,0.0,0.0,0.0,0.0,-1.2783,-1.4405,0.0,-1.4232,-1.5348,-1.6234,-1.6551,-1.7772,-1.8825,-1.9544,-2.0611,-2.1686,-2.2773,-2.3435,-2.4431,-2.579,-2.6284,-2.667,-2.7025,-2.7046,-2.6917,-2.6698,-2.6698,-2.6515,-2.6241,-2.6191,-2.6092,-2.5714,-2.3323,-2.1951,-2.115,-1.944,-1.8809,-1.879,-1.8484,-1.8499,-1.8667,-0.0879,-0.06,0.0,0.0241,0.0453,0.068,0.1009,0.1042,0.0979,0.0848,0.1907,0.2423,0.0,0.0,0.0,0.0,0.0,0.0,0.0,0.0,-0.0397,-0.0955,-0.2221,-0.3535,-0.4872,-0.7517,0.0,0.0,0.0,0.0,0.0,0.0,0.0,0.0,0.0,0.0,0.0,0.0,0.0,0.0,0.0,0.0,-0.9687,0.0,0.0,0.0,0.0,0.0,0.0,0.0,0.0,0.0,0.0,0.0,0.0,0.0,0.0,0.0,0.0,0.0,0.0,0.0,0.0,0.0,0.0,0.0,0.0,0.0,0.0,0.0,0.0,0.0,0.0,0.0,0.0,0.0,0.0,0.0,-1.5348,-1.4606,-1.6706,-1.7744,-1.6511,-1.7861,-1.893,-1.9231,-2.0181,-2.1041,-2.1709,-2.2197,-2.2952,-2.407,-2.4709,-2.57,-2.708,-2.757,-2.7956,-2.8272,-2.7996,-2.7724,-2.7469,-2.7086,-2.6763,-2.6477,-2.6393,-2.6058,-2.5525,-2.4644,-2.3875,-2.3033,-2.108,-2.0298,-2.024,-1.9992,-1.9947,-2.0016,-0.1597,-0.1462,-0.1336,-0.1067,-0.0539,-0.005,0.0276,0.0251,0.0208,0.0235,0.0576,0.0,0.0,0.0,0.0,0.0,0.0,0.0,0.0,-0.1635,-0.2046,-0.3756,-0.5728,-0.7667,-0.9561,0.0,0.0,0.0,0.0,0.0,0.0,0.0,0.0,0.0,0.0,0.0,0.0,0.0,0.0,0.0,0.0,0.0,-1.1218,0.0,0.0,0.0,0.0,0.0,0.0,0.0,0.0,0.0,0.0,0.0,0.0,0.0,0.0,0.0,0.0,0.0,0.0,0.0,0.0,0.0,0.0,0.0,0.0,0.0,0.0,0.0,0.0,0.0,0.0,0.0,0.0,0.0,-1.5001,-1.6375,-1.7169,-1.6366,-1.8516,-1.9409,-1.7748,-1.9823,-2.1266,-2.1205,-2.196,-2.2728,-2.3393,-2.3363,-2.4046,-2.5615,-2.6316,-2.7046,-2.7819,-2.7791,-2.8191,-2.8962,-2.8191,-2.8246,-2.8957,-2.7929,-2.7308,-2.7074,-2.7184,-2.6498,-2.5255,-2.5212,-2.4521,-2.3363,-2.1591,-2.1209,-2.1507,-2.0787,-2.0891,-2.1386,-0.2102,-0.1868,-0.1705,-0.1535,-0.1415,-0.1352,-0.1403,-0.1757,-0.1781,-0.1099,0.0,0.0,0.0,0.0,0.0,0.0,0.0,0.0,-0.2481,0.0,-0.4219,-0.6442,-0.7941,0.0,0.0,0.0,0.0,0.0,0.0,0.0,0.0,0.0,0.0,0.0,0.0,0.0,0.0,0.0,0.0,0.0,0.0,0.0,-1.1358,0.0,0.0,0.0,0.0,0.0,0.0,0.0,0.0,0.0,0.0,0.0,0.0,0.0,0.0,0.0,0.0,0.0,0.0,0.0,0.0,0.0,0.0,0.0,0.0,0.0,0.0,0.0,0.0,0.0,0.0,0.0,0.0,-1.7408,-1.6769,-1.8087,-1.9296,-1.9744,-2.0865,-2.1631,-2.173,-2.2514,-2.3167,-2.3546,-2.3351,-2.3516,-2.4222,-2.4209,-2.4381,-2.4813,-2.5523,-2.6003,-2.6224,-2.7324,-2.7981,-2.8198,-2.8525,-2.8796,-2.8975,-2.8691,-2.8397,-2.8157,-2.8182,-2.7772,-2.6906,-2.545,-2.4589,-2.3955,-2.2122,-2.15,-2.1556,-2.1266,-2.1332,-2.1511,-0.2841,-0.2689,-0.2534,-0.2283,-0.2274,-0.2302,-0.2311,-0.2781,-0.2902,-0.2224,0.0,0.0,0.0,0.0,0.0,0.0,0.0,0.0,-0.3233,-0.4149,-0.5709,0.0,0.0,0.0,0.0,0.0,0.0,0.0,0.0,0.0,0.0,0.0,0.0,0.0,0.0,0.0,0.0,0.0,0.0,0.0,0.0,0.0,-1.2979,-1.2338,-1.1981,-1.1729,-1.0863,-1.0284,-0.9848,-0.9256,0.0,0.0,0.0,0.0,0.0,0.0,0.0,0.0,0.0,0.0,0.0,0.0,0.0,0.0,0.0,0.0,0.0,0.0,0.0,0.0,0.0,0.0,0.0,0.0,-1.8434,-1.975,-1.9713,-2.0629,-2.1418,-2.1668,-2.2633,-2.3338,-2.3503,-2.3958,-2.4332,-2.4526,-2.4211,-2.417,-2.4545,-2.4513,-2.4497,-2.4497,-2.5226,-2.5764,-2.6058,-2.7269,-2.8055,-2.8382,-2.8796,-2.8994,-2.8975,-2.8539,-2.8239,-2.8094,-2.7893,-2.713,-2.5987,-2.5038,-2.4113,0.0,0.0,0.0,0.0,0.0,-2.1464,-2.1589,-0.3637,-0.3639,-0.3529,-0.3155,-0.3102,-0.3011,-0.277,-0.3244,-0.3509,-0.3151,0.0,0.0,0.0,0.0,0.0,0.0,0.0,0.0,0.0,0.0,0.0,-0.8845,0.0,0.0,0.0,0.0,0.0,0.0,0.0,0.0,0.0,0.0,0.0,0.0,0.0,0.0,0.0,0.0,0.0,0.0,0.0,0.0,-1.4973,-1.3513,-1.3362,-1.3839,-1.3008,-1.2213,-1.1511,-1.1373,0.0,0.0,0.0,0.0,0.0,0.0,0.0,0.0,0.0,0.0,0.0,0.0,0.0,0.0,0.0,0.0,0.0,0.0,0.0,0.0,0.0,0.0,0.0,0.0,-2.0399,-2.2249,-2.2831,-2.3275,-2.3314,-2.2723,-2.3825,-2.4417,-2.3877,-2.4509,-2.4842,-2.4615,-2.4645,-2.4629,-2.4495,0.0,0.0,0.0,0.0,-2.5838,-2.6573,-2.7361,-2.8147,-2.8888,-2.8962,-2.8994,-2.8975,-2.8026,-2.7531,-2.7393,-2.6934,-2.5682,-2.3957,-2.4232,-2.3298,-2.1661,-2.1356,-2.1262,-2.1294,-2.1355,-2.1464,-2.1559,-0.3832,-0.3846,-0.386,-0.3678,-0.3693,-0.3687,-0.3584,-0.4083,-0.4314,-0.3866,-0.4568,0.0,0.0,0.0,0.0,0.0,0.0,0.0,0.0,0.0,0.0,0.0,0.0,0.0,0.0,0.0,0.0,0.0,0.0,0.0,0.0,0.0,0.0,0.0,0.0,0.0,0.0,0.0,0.0,0.0,0.0,0.0,-1.4159,-1.394,-1.3517,-1.3026,-1.2859,-1.2642,-1.2413,-1.2221,-1.1393,-1.0435,-1.0381,0.0,0.0,0.0,0.0,0.0,0.0,0.0,0.0,0.0,0.0,0.0,0.0,0.0,0.0,0.0,0.0,0.0,0.0,0.0,0.0,-2.0534,-2.2016,-2.2945,-2.2975,-2.3775,-2.4329,-2.4185,-2.3821,-2.3855,-2.452,-2.4586,-2.4582,-2.4512,-2.4532,-2.4534,-2.4498,-2.4497,-2.4495,-2.4495,-2.4698,-2.5148,-2.5894,-2.6634,-2.7366,-2.8128,0.0,0.0,-2.8975,-2.8787,-2.8278,-2.7528,-2.7247,-2.6206,-2.4698,-2.3835,-2.2477,-2.1007,-2.1388,-2.1404,-2.1247,-2.1277,-2.134,-2.1356,-0.4347,-0.4274,-0.4226,-0.4163,-0.4181,-0.4184,-0.4159,-0.4639,-0.4918,-0.4726,-0.5314,0.0,0.0,0.0,0.0,0.0,0.0,0.0,0.0,0.0,0.0,0.0,0.0,0.0,0.0,0.0,0.0,0.0,0.0,0.0,0.0,0.0,0.0,0.0,0.0,0.0,0.0,0.0,0.0,0.0,0.0,0.0,-1.5118,-1.4818,-1.4422,-1.4047,-1.4053,-1.3729,-1.3205,-1.2635,-1.1824,-1.0964,-1.041,-0.9944,-0.9568,0.0,0.0,0.0,0.0,0.0,0.0,0.0,0.0,0.0,0.0,0.0,0.0,0.0,0.0,-1.6565,0.0,0.0,-2.0825,-2.2612,-2.3414,-2.3872,-2.4137,-2.4762,-2.5096,-2.4791,-2.4267,-2.4345,-2.5344,-2.4904,-2.4547,-2.4512,-2.4498,-2.4517,-2.4549,-2.4906,-2.5112,-2.5112,-2.5467,-2.6024,-2.6779,-2.7165,-2.7711,-2.8433,-2.8815,-2.8994,-2.8994,-2.897,-2.8424,-2.7482,-2.6967,-2.5852,-2.4296,-2.2887,-2.1788,-2.1038,-2.1262,-2.1199,-2.1006,-2.1087,-2.1103,-2.1103,-0.48,-0.4674,-0.4571,-0.4547,-0.4532,-0.4527,-0.4522,-0.4849,-0.5199,-0.5497,-0.5785,-0.5896,-0.5762,-0.5643,-0.5559,0.0,0.0,0.0,0.0,0.0,0.0,0.0,0.0,0.0,0.0,0.0,0.0,0.0,0.0,0.0,0.0,0.0,0.0,0.0,0.0,0.0,0.0,0.0,0.0,0.0,0.0,0.0,-1.6121,-1.5519,-1.5272,-1.5272,-1.5311,-1.4704,-1.378,-1.2985,-1.2019,-1.1002,-1.0161,-0.9805,-0.9657,-0.9465,-0.9421,0.0,0.0,0.0,0.0,0.0,0.0,0.0,0.0,0.0,-1.4727,-1.5819,-1.7311,-1.8681,-1.9611,-2.1007,-2.2538,-2.4136,-2.4376,-2.4524,-2.4959,-2.5226,-2.5182,-2.4657,-2.4873,-2.5258,-2.5808,-2.5233,-2.4729,-2.453,-2.4662,-2.4733,-2.4599,-2.5481,-2.5893,-2.5708,-2.6393,-2.7108,-2.7893,-2.7893,-2.8276,-2.8994,-2.8994,-2.8994,-2.8975,-2.8764,-2.8075,-2.7025,-2.5893,-2.4597,-2.3221,-2.1906,-2.1246,-2.1119,-2.1103,-2.0974,-2.0794,-2.0909,-2.0942,-2.0877,-0.481,-0.4835,-0.4816,-0.4697,-0.467,-0.466,-0.4591,-0.4482,-0.4789,-0.5873,-0.5642,-0.5714,-0.6571,-0.6379,-0.6315,-0.659,0.0,0.0,0.0,0.0,0.0,0.0,0.0,0.0,0.0,0.0,0.0,0.0,0.0,0.0,0.0,0.0,0.0,0.0,0.0,0.0,0.0,0.0,0.0,0.0,0.0,0.0,-1.5416,-1.5275,-1.5217,-1.5222,-1.5274,-1.47,-1.386,-1.3576,-1.2383,-1.0962,-1.0685,-1.0024,-0.9358,-0.9385,0.0,-0.945,-1.0417,-1.1818,0.0,-1.5032,-1.4969,-1.5505,0.0,0.0,-1.8492,-2.0141,-2.1305,-2.2072,-2.2197,-2.2942,-2.3831,-2.4608,-2.4454,-2.4172,-2.4067,-2.3925,-2.3756,-2.3517,-2.54,-2.6257,-2.5054,-2.5325,-2.5278,-2.4551,-2.5281,-2.5408,-2.4652,-2.6085,-2.6556,-2.5726,-2.647,-2.7227,-2.788,-2.7899,-2.8279,-2.8994,-2.8994,-2.8994,-2.8957,-2.8137,-2.7102,-2.5832,-2.33,-2.1966,-2.1562,-2.1247,-2.0974,-2.0793,-2.1087,-2.0974,-2.076,-2.1038,-2.1038,-2.0827,-0.486,-0.4903,-0.4947,-0.4887,-0.4834,-0.4786,-0.4736,-0.454,-0.482,-0.5941,-0.5811,-0.601,-0.7086,-0.7195,-0.7182,-0.7197,-0.7183,0.0,0.0,0.0,0.0,0.0,0.0,0.0,0.0,0.0,0.0,0.0,0.0,0.0,0.0,0.0,0.0,0.0,0.0,0.0,0.0,0.0,0.0,0.0,0.0,0.0,-1.5883,-1.542,-1.4887,-1.4401,-1.4516,-1.4275,0.0,0.0,-1.1718,-1.0991,-1.0323,-0.982,-0.9473,-0.9421,-0.9968,0.0,-1.3417,0.0,0.0,0.0,-1.7691,-1.8066,-2.0144,-2.0149,-2.0049,-2.1286,-2.2358,-2.3095,-2.3226,-2.364,-2.4271,0.0,-2.4707,-2.4395,-2.4778,-2.4408,-2.3917,-2.3385,-2.5086,-2.5886,-2.4789,-2.4879,-2.4918,-2.4689,-2.5047,-2.5139,-2.4888,-2.6261,-2.6876,-2.6521,-2.7561,-2.8264,-2.8529,-2.8529,-2.8691,-2.8975,-2.8453,-2.8192,-2.8155,-2.7209,-2.596,-2.4427,-2.2756,-2.1748,-2.123,-2.1167,-2.1103,-2.1071,-2.1151,-2.1135,-2.1071,-2.1167,-2.1038,-2.0794,-0.491,-0.497,-0.5019,-0.5,-0.4946,-0.4868,-0.4793,-0.475,-0.5076,-0.6058,-0.6102,-0.6446,-0.7519,-0.7797,-0.7854,-0.7709,-0.7811,-0.7826,0.0,0.0,0.0,0.0,0.0,0.0,0.0,0.0,0.0,0.0,0.0,0.0,0.0,0.0,0.0,0.0,0.0,0.0,0.0,0.0,0.0,0.0,0.0,0.0,-1.6006,-1.5246,-1.4487,-1.3863,-1.3966,-1.3648,0.0,0.0,-1.1032,-1.0677,-0.9928,-0.964,-0.9593,-0.9717,-1.0869,-1.2651,-1.5213,0.0,0.0,-1.9318,-2.0018,-2.0363,-2.0993,-2.1142,-2.1346,-2.2076,-2.29,-2.3508,-2.3699,-2.3717,0.0,-2.5355,-2.4598,-2.4211,-2.5219,-2.4635,-2.3849,-2.326,-2.4295,-2.4847,-2.4279,-2.4617,-2.4834,-2.4746,-2.5045,-2.5203,-2.5103,-2.6563,-2.7323,-2.7114,-2.8331,-2.8994,-2.8994,-2.8994,-2.8865,-2.8622,-2.7931,-2.7442,-2.7154,-2.6093,-2.4733,-2.3153,-2.2429,-2.1764,-2.123,-2.123,-2.123,-2.1294,-2.1325,-2.1325,-2.134,-2.1356,-2.1151,-2.0811,-0.4906,-0.5,-0.5068,-0.5003,-0.4943,-0.4863,-0.4725,-0.5022,-0.5545,-0.6296,-0.6553,-0.7012,-0.7878,-0.8094,-0.8176,-0.8171,-0.8119,-0.8011,-0.7796,-0.894,0.0,0.0,0.0,0.0,0.0,0.0,0.0,0.0,0.0,0.0,0.0,0.0,0.0,0.0,0.0,0.0,0.0,0.0,0.0,0.0,0.0,0.0,-1.5241,-1.4367,-1.4014,-1.4,-1.3994,0.0,0.0,0.0,-1.0602,-0.9825,-0.9733,-0.9606,0.0,-1.044,-1.1932,0.0,0.0,0.0,-1.8572,-2.0406,-2.1397,-2.2141,-2.3,-2.3025,-2.29,-2.3206,-2.3445,-2.3649,-2.3774,-2.3222,-2.33,-2.4944,-2.383,-2.3279,-2.4809,-2.3875,-2.3012,-2.2923,-2.3069,-2.3208,0.0,-2.4818,-2.5429,-2.4654,-2.5697,-2.5979,-2.5134,-2.7228,-2.8039,-2.7133,-2.8331,-2.8994,-2.8994,-2.8994,-2.8526,-2.7652,-2.7593,-2.7077,-2.6099,-2.4689,-2.3402,-2.2226,-2.1797,-2.1481,-2.1294,-2.1294,-2.1262,-2.1247,-2.1573,-2.1556,-2.1417,-2.1691,-2.1417,-2.0893,-0.4897,-0.4973,-0.5034,-0.5005,-0.4906,-0.4794,-0.4652,-0.5163,-0.5755,-0.6261,-0.7167,0.0,0.0,0.0,0.0,0.0,-0.8144,-0.8119,-0.7996,-0.8843,0.0,0.0,0.0,0.0,0.0,0.0,0.0,0.0,0.0,0.0,0.0,0.0,0.0,0.0,0.0,0.0,0.0,0.0,0.0,0.0,0.0,0.0,-1.5263,-1.497,-1.4138,-1.3137,0.0,0.0,0.0,0.0,0.0,0.0,-0.9862,0.0,0.0,-1.1494,0.0,0.0,0.0,0.0,-2.0433,-2.1436,-2.2371,-2.3064,-2.2975,-2.3045,-2.3052,-2.2995,-2.2735,-2.2736,-2.341,-2.261,-2.2366,-2.4021,-2.3466,-2.3157,-2.413,-2.3527,-2.3012,-2.3085,-2.3102,0.0,0.0,0.0,0.0,-2.4884,-2.5241,-2.5413,-2.5313,-2.6284,-2.6946,-2.717,-2.7321,-2.7614,-2.8059,-2.7497,-2.705,-2.6713,-2.5966,-2.5015,-2.39,-2.356,-2.3024,-2.2392,-2.2096,-2.1853,-2.1617,-2.1402,-2.1356,-2.1497,-2.1573,-2.1634,-2.1587,-2.145,-2.1309,-2.1151,-0.4935,-0.4967,-0.4984,-0.4934,-0.4845,0.0,0.0,0.0,0.0,0.0,0.0,0.0,0.0,0.0,0.0,0.0,0.0,-0.8282,-0.8205,0.0,0.0,0.0,0.0,0.0,0.0,0.0,0.0,0.0,0.0,0.0,0.0,0.0,0.0,0.0,0.0,0.0,0.0,0.0,0.0,0.0,0.0,0.0,-1.4345,-1.4043,-1.3249,0.0,0.0,0.0,0.0,0.0,0.0,0.0,0.0,0.0,0.0,0.0,0.0,-1.5657,0.0,-2.0457,-2.1406,-2.2153,-2.2954,-2.3422,-2.284,-2.2909,-2.3007,-2.2628,-2.2025,-2.1781,-2.2478,-2.1211,-2.0788,-2.3156,-2.2648,-2.2429,-2.3739,-2.3639,-2.3436,-2.3474,-2.3527,-2.3597,0.0,0.0,0.0,-2.4874,-2.4987,-2.5122,-2.5313,-2.5766,-2.618,-2.6578,-2.6559,-2.6706,-2.7058,-2.6517,-2.6049,-2.569,-2.4508,-2.3551,-2.2816,-2.2868,-2.2668,-2.2298,-2.2181,-2.1953,-2.1631,-2.1495,-2.1542,-2.1664,-2.165,-2.1664,-2.1664,-2.1419,-2.1356,-2.1309,-0.5043,-0.5054,-0.5037,0.0,0.0,0.0,0.0,0.0,0.0,0.0,0.0,0.0,0.0,0.0,0.0,0.0,0.0,0.0,0.0,0.0,0.0,0.0,0.0,0.0,-0.9792,-1.0747,0.0,0.0,0.0,0.0,0.0,0.0,0.0,0.0,0.0,0.0,0.0,0.0,0.0,0.0,0.0,0.0,-1.2605,-1.1845,0.0,0.0,0.0,0.0,0.0,0.0,0.0,0.0,0.0,0.0,0.0,0.0,0.0,-1.7491,-2.059,-2.1402,-2.1599,-2.2554,-2.3097,-2.3236,-2.2608,-2.2675,-2.272,-2.2129,-2.1291,-2.0749,0.0,0.0,-1.8734,-2.2262,-2.1439,-2.1223,-2.3654,-2.4118,-2.4174,0.0,0.0,0.0,0.0,0.0,0.0,-2.4693,0.0,-2.5106,-2.5187,-2.5682,-2.5791,-2.5502,-2.6015,-2.6194,-2.6027,-2.5967,-2.5458,-2.4491,-2.3327,-2.279,-2.2764,-2.2596,-2.2304,-2.1911,-2.1969,-2.1794,-2.1448,-2.1617,-2.1738,-2.1797,-2.1738,-2.1694,-2.1694,-2.162,-2.1511,-2.1355,0.0,0.0,0.0,0.0,0.0,0.0,0.0,0.0,0.0,0.0,0.0,0.0,0.0,0.0,0.0,0.0,0.0,0.0,0.0,0.0,0.0,0.0,0.0,0.0,0.0,-1.0225,0.0,0.0,0.0,0.0,0.0,0.0,0.0,0.0,0.0,0.0,0.0,0.0,0.0,0.0,0.0,0.0,-1.2597,0.0,0.0,0.0,0.0,0.0,0.0,0.0,0.0,0.0,0.0,0.0,-1.3629,0.0,0.0,-1.8713,-2.0156,-2.142,-2.2377,-2.2538,-2.2325,-2.2086,-2.206,-2.1803,-2.1428,-2.0941,-1.9817,-1.8801,-1.8367,0.0,0.0,-2.0255,-2.0858,0.0,-2.3707,-2.406,0.0,0.0,0.0,-2.4547,-2.4726,-2.4698,0.0,0.0,-2.4768,-2.4898,-2.5106,-2.511,-2.523,-2.5483,-2.4928,-2.4708,-2.4895,-2.4155,-2.3618,-2.3249,-2.2851,-2.2542,-2.2366,-2.2515,-2.2371,-2.1969,-2.194,-2.1869,-2.1781,-2.157,-2.1631,-2.1869,-2.1738,-2.1694,-2.1694,-2.1526,-2.1495,-2.1511,0.0,0.0,0.0,0.0,0.0,0.0,0.0,0.0,0.0,0.0,0.0,0.0,0.0,0.0,0.0,0.0,0.0,0.0,0.0,0.0,0.0,0.0,0.0,0.0,0.0,0.0,0.0,0.0,0.0,0.0,0.0,0.0,0.0,0.0,0.0,0.0,0.0,0.0,0.0,0.0,0.0,0.0,0.0,0.0,0.0,0.0,0.0,0.0,0.0,0.0,0.0,-1.3716,-1.4095,-1.4841,-1.5882,-1.7307,0.0,-1.9973,-2.1385,-2.1965,-2.2165,-2.2086,-2.1821,-2.1405,-2.0843,-2.0334,-1.9741,-1.8833,-1.7368,0.0,0.0,0.0,0.0,0.0,0.0,0.0,-2.3021,-2.3707,-2.4137,0.0,-2.4391,0.0,-2.4645,-2.4631,-2.4617,0.0,-2.4647,-2.4738,-2.4907,-2.4827,-2.4762,-2.4745,-2.4205,-2.3891,-2.3784,-2.3255,-2.2893,-2.2764,-2.2659,-2.2515,-2.2338,-2.2515,-2.2343,-2.1928,0.0,-2.1882,-2.1691,-2.157,-2.1691,-2.1911,-2.1738,-2.1694,-2.1708,-2.1479,-2.1495,-2.1634,0.0,0.0,0.0,0.0,0.0,0.0,0.0,0.0,0.0,0.0,0.0,0.0,0.0,0.0,0.0,0.0,0.0,0.0,0.0,0.0,0.0,0.0,0.0,0.0,0.0,0.0,0.0,0.0,0.0,0.0,0.0,0.0,0.0,0.0,0.0,0.0,0.0,0.0,0.0,0.0,0.0,0.0,0.0,0.0,0.0,0.0,0.0,0.0,0.0,0.0,-1.443,-1.5293,-1.544,-1.6865,-1.8715,-2.0048,-2.0462,-2.0877,-2.2803,-2.244,-2.1479,-2.1369,-2.1351,-2.0971,-1.9465,-1.8699,-1.7933,-1.649,0.0,0.0,-1.3374,0.0,-1.4692,-1.7062,0.0,-2.0553,-2.2093,-2.317,-2.3839,-2.3961,-2.4116,-2.4302,-2.4512,-2.4515,-2.4498,-2.4495,-2.4547,-2.4631,-2.4692,-2.4707,-2.4424,-2.3826,-2.3744,-2.3459,-2.2919,-2.285,-2.2816,-2.2712,-2.2649,-2.2569,-2.2515,-2.2569,-2.2287,-2.1797,-2.1969,-2.1807,-2.1386,-2.1556,-2.1781,-2.1969,-2.1678,-2.1664,-2.1768,-2.1509,-2.1526,-2.1694,0.0,0.0,0.0,0.0,0.0,0.0,0.0,0.0,0.0,0.0,0.0,0.0,0.0,0.0,0.0,0.0,0.0,0.0,0.0,0.0,0.0,0.0,0.0,0.0,0.0,0.0,0.0,0.0,0.0,0.0,0.0,0.0,0.0,0.0,0.0,0.0,0.0,0.0,0.0,0.0,0.0,0.0,0.0,0.0,0.0,0.0,0.0,0.0,0.0,0.0,-1.4334,-1.6326,-1.7709,-1.8148,-1.837,-1.9397,-1.9957,-2.0355,-2.0789,-2.1189,-2.1334,-2.0681,-2.0553,-2.0263,-1.9076,-1.7787,0.0,0.0,0.0,-1.2352,-1.1187,-1.2635,0.0,-1.5398,0.0,0.0,0.0,0.0,-2.3157,0.0,0.0,0.0,0.0,0.0,0.0,0.0,0.0,-2.4568,-2.4682,-2.4711,-2.4424,-2.3826,-2.3486,-2.3177,-2.2902,-2.2738,-2.2685,-2.279,-2.2605,-2.2515,-2.2515,-2.2569,-2.2276,-2.1708,-2.1811,0.0,-2.1309,-2.134,-2.1587,-2.1899,-2.157,-2.157,-2.1768,-2.1509,-2.1526,-2.1724,0.0,0.0,0.0,0.0,0.0,0.0,0.0,-0.8354,-0.8524,-0.866,0.0,0.0,0.0,0.0,0.0,0.0,0.0,0.0,0.0,0.0,0.0,0.0,0.0,0.0,0.0,0.0,0.0,0.0,0.0,0.0,0.0,0.0,0.0,0.0,0.0,0.0,0.0,0.0,0.0,0.0,0.0,0.0,0.0,0.0,0.0,0.0,0.0,0.0,0.0,0.0,-1.4036,-1.5971,-1.7659,-1.8869,-1.9718,-2.0024,-2.0283,-2.0618,-2.1352,-2.1243,-2.0916,-2.088,-2.0608,-1.9739,-1.7411,0.0,0.0,0.0,0.0,-1.0509,-0.9799,0.0,0.0,0.0,0.0,0.0,0.0,0.0,0.0,0.0,0.0,0.0,0.0,0.0,0.0,0.0,0.0,-2.4534,-2.4599,-2.4461,-2.4192,-2.3764,-2.3356,-2.3032,-2.2816,-2.2712,-2.2659,-2.2685,-2.2632,-2.2596,-2.2552,-2.2605,-2.2271,-2.1661,-2.1675,0.0,-2.1103,-2.1183,-2.1464,-2.1768,-2.1509,-2.154,-2.1708,-2.1479,-2.1495,-2.1664,0.0,0.0,0.0,0.0,0.0,0.0,0.0,-0.82,-0.8417,-0.8789,-0.8259,-0.7798,-0.762,-0.7665,-0.7679,0.0,0.0,0.0,0.0,0.0,0.0,0.0,0.0,0.0,0.0,0.0,0.0,0.0,0.0,0.0,0.0,0.0,0.0,0.0,0.0,0.0,0.0,0.0,0.0,0.0,0.0,0.0,0.0,0.0,0.0,0.0,0.0,0.0,0.0,0.0,-1.3388,-1.4846,-1.6346,-1.8402,-2.0245,-2.0211,-2.0152,-2.0378,-2.1607,-2.1224,-2.0554,-2.0786,-2.0497,-1.9273,-1.5867,-1.4396,0.0,0.0,0.0,-0.9081,-0.9022,0.0,0.0,0.0,0.0,0.0,0.0,0.0,0.0,0.0,0.0,0.0,0.0,0.0,0.0,0.0,0.0,0.0,-2.4513,-2.4302,-2.404,-2.3681,-2.3397,-2.3056,-2.2712,-2.2712,-2.2659,-2.2605,-2.2659,-2.2659,-2.2605,-2.2685,-2.2354,-2.1702,-2.1658,0.0,0.0,-2.1135,-2.1388,-2.1664,-2.1448,-2.1526,-2.1648,-2.1464,-2.145,-2.1559,0.0,0.0,0.0,0.0,0.0,0.0,0.0,-0.747,-0.8162,-0.8029,-0.7842,-0.7694,-0.7618,-0.7664,-0.7679,0.0,0.0,0.0,0.0,0.0,0.0,0.0,0.0,0.0,0.0,0.0,0.0,0.0,0.0,0.0,0.0,0.0,0.0,0.0,0.0,0.0,0.0,0.0,0.0,0.0,0.0,0.0,0.0,0.0,0.0,0.0,0.0,0.0,0.0,0.0,0.0,-1.3089,-1.3971,-1.5723,-1.7603,-1.831,0.0,0.0,-1.9208,-2.0117,-2.0563,-1.9341,-1.9351,-1.8806,-1.5574,0.0,0.0,0.0,-0.9588,-0.9095,-0.9081,-1.0011,0.0,0.0,0.0,0.0,0.0,0.0,0.0,0.0,0.0,0.0,0.0,0.0,0.0,0.0,0.0,0.0,-2.45,-2.4482,-2.421,-2.3631,-2.3631,-2.3335,-2.2712,-2.2712,-2.2685,-2.2685,-2.2685,-2.2685,-2.2685,-2.2685,-2.2463,-2.2022,-2.1853,0.0,0.0,-2.1215,-2.1373,-2.1589,-2.1448,-2.1526,-2.1664,-2.1419,-2.1309,-2.1356,0.0,0.0,0.0,0.0,0.0,0.0,-0.6757,-0.7596,-0.8249,-0.8363,-0.7989,-0.765,-0.7558,-0.7605,-0.7635,0.0,0.0,0.0,0.0,0.0,0.0,0.0,0.0,0.0,0.0,0.0,0.0,0.0,0.0,0.0,0.0,0.0,0.0,0.0,0.0,0.0,0.0,0.0,0.0,0.0,0.0,0.0,0.0,0.0,0.0,0.0,0.0,0.0,0.0,0.0,0.0,0.0,-1.2194,-1.3131,0.0,0.0,-1.7082,-1.7552,-1.8723,-1.9705,-2.0273,-1.9664,-1.9264,-1.8119,-1.4778,0.0,0.0,-0.9709,-0.9134,-0.9035,-0.905,-0.9459,-1.0281,0.0,0.0,0.0,0.0,0.0,0.0,0.0,0.0,0.0,0.0,0.0,0.0,0.0,0.0,0.0,-2.4375,-2.4465,-2.4229,-2.361,-2.3628,-2.3335,-2.2712,-2.2712,-2.2712,-2.2712,-2.2712,-2.2712,-2.2712,-2.2712,-2.2463,-2.2096,-2.1807,0.0,0.0,-2.1071,-2.1183,-2.1419,-2.1371,-2.1464,-2.1603,-2.1371,-2.1388,-2.1481,0.0,0.0,0.0,0.0,0.0,-0.6294,-0.6819,-0.7413,-0.7982,-0.8453,-0.8079,-0.7694,-0.7545,-0.765,-0.7709,-0.7665,0.0,0.0,0.0,0.0,0.0,0.0,0.0,0.0,0.0,0.0,0.0,0.0,0.0,0.0,0.0,0.0,0.0,0.0,0.0,0.0,0.0,0.0,0.0,0.0,0.0,0.0,0.0,0.0,0.0,0.0,0.0,0.0,0.0,0.0,0.0,0.0,0.0,0.0,0.0,0.0,-1.5962,-1.6817,-1.829,-1.9291,-1.9915,-1.9682,-1.8852,-1.7268,0.0,0.0,-1.1369,-0.9143,-0.8818,-0.8947,-0.8985,-0.9123,-0.9652,0.0,-1.15,-1.2866,-1.5969,0.0,0.0,0.0,0.0,0.0,0.0,0.0,0.0,0.0,0.0,0.0,-2.4303,-2.4321,-2.4116,-2.3588,-2.3566,-2.3312,-2.2738,-2.2712,-2.2712,-2.2712,-2.2712,-2.2712,-2.2712,-2.2712,-2.2517,-2.2226,-2.1836,0.0,0.0,-2.1055,-2.1071,-2.1246,-2.1277,-2.1388,-2.1481,-2.1356,-2.1388,-2.1528,0.0,0.0,0.0,0.0,0.0,0.0,0.0,-0.6691,-0.7204,-0.799,-0.7985,-0.7827,-0.762,-0.7841,-0.7942,-0.7812,0.0,0.0,0.0,0.0,0.0,0.0,0.0,0.0,0.0,0.0,0.0,0.0,0.0,0.0,0.0,0.0,0.0,0.0,0.0,0.0,0.0,0.0,0.0,0.0,0.0,0.0,0.0,0.0,0.0,0.0,0.0,0.0,0.0,0.0,0.0,0.0,0.0,0.0,0.0,0.0,-1.4983,-1.5882,-1.7457,-1.8735,-1.9459,-1.8873,-1.7755,-1.6223,0.0,-1.2162,-1.0561,-0.9027,-0.8755,-0.8846,-0.8981,-0.9154,-0.9521,-1.0197,-1.1265,0.0,0.0,0.0,0.0,0.0,0.0,0.0,0.0,0.0,0.0,0.0,0.0,0.0,-2.4303,-2.4116,-2.3862,-2.3522,-2.35,-2.3289,-2.2816,-2.2738,-2.2712,-2.2712,-2.2712,-2.2712,-2.2712,-2.2712,-2.2659,-2.2569,0.0,0.0,0.0,-2.1246,-2.1103,-2.1135,-2.1262,-2.1309,-2.1309,-2.1309,-2.1309,-2.1325,0.0,0.0,0.0,0.0,0.0,0.0,0.0,-0.6319,-0.7061,-0.713,-0.7545,-0.7724,-0.7422,-0.7514,-0.762,-0.7665,0.0,0.0,0.0,0.0,0.0,0.0,0.0,0.0,0.0,0.0,0.0,0.0,0.0,0.0,0.0,0.0,0.0,0.0,0.0,0.0,0.0,0.0,0.0,0.0,0.0,0.0,0.0,0.0,0.0,0.0,0.0,0.0,0.0,0.0,0.0,0.0,0.0,0.0,0.0,-1.118,-1.2492,0.0,-1.4018,-1.5206,-1.6132,-1.5399,-1.4434,-1.3328,-1.2048,-1.0903,-0.9845,-0.8903,-0.8753,-0.8857,-0.9024,-0.913,-0.9767,-1.1641,0.0,0.0,0.0,0.0,0.0,0.0,0.0,0.0,0.0,0.0,0.0,0.0,0.0,0.0,-2.4171,-2.4075,-2.3837,-2.3437,-2.3382,-2.3164,-2.2738,-2.2764,-2.2738,-2.2712,-2.2712,-2.2712,-2.2712,-2.2712,-2.2685,0.0,0.0,0.0,0.0,-2.1151,-2.0974,-2.1087,-2.1167,-2.1246,-2.1355,-2.1309,-2.1419,-2.1573,0.0,0.0,0.0,0.0,0.0,0.0,0.0,-0.5601,-0.6186,-0.6274,-0.6893,-0.7243,-0.698,-0.7266,-0.7498,-0.7558,0.0,0.0,0.0,0.0,0.0,0.0,0.0,0.0,0.0,0.0,0.0,0.0,0.0,0.0,0.0,0.0,0.0,0.0,0.0,0.0,0.0,0.0,0.0,0.0,0.0,0.0,-0.9442,0.0,0.0,0.0,0.0,0.0,0.0,0.0,0.0,0.0,0.0,0.0,0.0,0.0,-1.048,-1.1644,0.0,-1.3424,-1.429,-1.38,-1.2925,-1.1996,-1.1239,-1.0319,-0.946,-0.8829,-0.8745,-0.8828,-0.903,-0.9105,-0.9724,-1.1536,0.0,0.0,0.0,0.0,0.0,0.0,0.0,0.0,0.0,0.0,0.0,0.0,0.0,0.0,-2.3816,-2.3714,-2.3522,-2.3265,-2.3253,-2.3126,-2.2816,-2.2816,-2.279,-2.2738,-2.2712,-2.2712,-2.2712,-2.2712,-2.2712,0.0,0.0,0.0,0.0,-2.1261,-2.1055,-2.1119,-2.1119,-2.1199,-2.1371,-2.1309,-2.1495,-2.1738,0.0,0.0,0.0,0.0,0.0,0.0,0.0,0.0,0.0,-0.542,-0.6128,-0.653,-0.6394,-0.7084,-0.7529,-0.748,0.0,0.0,0.0,0.0,0.0,0.0,0.0,0.0,0.0,0.0,0.0,0.0,-0.8679,-0.8846,-0.892,0.0,0.0,0.0,0.0,0.0,0.0,0.0,0.0,0.0,0.0,-0.9288,0.0,0.0,0.0,0.0,0.0,0.0,0.0,0.0,0.0,0.0,0.0,0.0,0.0,0.0,0.0,0.0,0.0,-1.2875,-1.3479,-1.3439,-1.2665,-1.1776,-1.1127,-1.0189,0.0,-0.8788,-0.8693,-0.8786,-0.9095,-0.9222,-0.9589,-1.0563,0.0,0.0,0.0,0.0,0.0,0.0,0.0,0.0,0.0,0.0,0.0,0.0,0.0,0.0,-2.33,-2.3165,-2.3056,-2.2995,-2.3119,-2.3119,-2.2995,-2.2868,-2.2816,-2.2816,-2.2738,-2.2712,-2.2685,-2.2685,-2.2685,0.0,0.0,0.0,0.0,-2.154,-2.1294,-2.107,-2.1119,-2.1183,-2.1277,-2.1309,-2.1495,-2.1751,0.0,0.0,0.0,0.0,0.0,0.0,0.0,0.0,0.0,0.0,-0.5675,-0.6381,-0.6199,-0.6755,-0.7171,0.0,0.0,0.0,0.0,0.0,0.0,0.0,0.0,0.0,0.0,0.0,0.0,-0.862,-0.8801,-0.8919,-0.8981,-0.9174,0.0,0.0,0.0,0.0,0.0,0.0,0.0,0.0,-0.954,-0.9559,0.0,0.0,0.0,0.0,-0.9538,-0.9536,0.0,0.0,0.0,0.0,0.0,0.0,0.0,0.0,-0.8589,-0.8847,-0.9162,0.0,-1.0494,-0.9774,-0.9524,-0.9373,0.0,-0.8929,-0.8775,0.0,0.0,-0.9097,-1.0429,-1.0249,-1.0761,0.0,0.0,0.0,0.0,0.0,0.0,0.0,0.0,0.0,0.0,0.0,0.0,0.0,0.0,-2.3374,-2.3093,-2.3045,-2.2982,-2.285,-2.2893,-2.2893,-2.2842,-2.2868,-2.2868,-2.2816,-2.279,-2.2685,-2.2569,-2.2659,-2.2632,0.0,0.0,0.0,-2.1781,-2.1509,-2.123,-2.0958,-2.1054,-2.1167,-2.123,-2.1294,-2.1371,-2.1509,0.0,0.0,0.0,0.0,0.0,0.0,0.0,0.0,0.0,0.0,0.0,0.0,0.0,0.0,0.0,0.0,0.0,0.0,0.0,0.0,0.0,0.0,0.0,0.0,0.0,0.0,0.0,0.0,0.0,-0.8719,0.0,0.0,0.0,0.0,0.0,0.0,0.0,0.0,0.0,0.0,-0.9266,0.0,0.0,0.0,0.0,0.0,-0.9473,-0.9429,0.0,-0.9368,-0.9267,-0.9134,0.0,0.0,0.0,0.0,-0.8147,-0.8147,-0.8009,-0.8747,-0.9422,-0.8898,-0.8841,-0.892,-0.8909,0.0,0.0,0.0,0.0,0.0,-1.0239,0.0,0.0,0.0,0.0,0.0,0.0,0.0,0.0,0.0,0.0,0.0,0.0,0.0,0.0,0.0,0.0,-2.2923,-2.2747,-2.2747,-2.2712,-2.2605,-2.2712,-2.2816,-2.2893,-2.2842,-2.279,-2.2764,-2.2659,-2.2525,-2.2405,-2.2542,-2.2569,0.0,0.0,0.0,-2.184,-2.1705,-2.1432,-2.1055,-2.1135,-2.1199,-2.1262,-2.1294,-2.134,-2.1417,0.0,0.0,0.0,0.0,0.0,0.0,0.0,0.0,0.0,0.0,0.0,0.0,0.0,0.0,0.0,0.0,0.0,0.0,0.0,0.0,0.0,0.0,0.0,0.0,0.0,0.0,0.0,0.0,0.0,0.0,0.0,0.0,0.0,0.0,0.0,0.0,0.0,0.0,0.0,0.0,0.0,0.0,0.0,0.0,0.0,0.0,0.0,0.0,0.0,-0.9212,-0.9077,-0.8883,-0.8676,0.0,0.0,0.0,0.0,0.0,-0.7842,-0.8697,-0.9484,-0.9157,-0.9249,-0.9449,-0.9455,0.0,0.0,0.0,0.0,0.0,0.0,0.0,0.0,0.0,0.0,0.0,0.0,0.0,0.0,0.0,0.0,0.0,0.0,0.0,0.0,0.0,0.0,-2.251,-2.2405,-2.2487,-2.2487,-2.2405,-2.2596,-2.2764,-2.2919,-2.2764,-2.2685,-2.2685,-2.2515,-2.2394,-2.231,-2.2432,-2.2515,-2.2515,0.0,0.0,-2.1969,-2.1998,-2.1721,-2.1262,-2.1294,-2.1309,-2.1309,-2.1309,-2.134,-2.1386,0.0,0.0,0.0,0.0,0.0,0.0,0.0,0.0,0.0,0.0,0.0,0.0,0.0,0.0,0.0,0.0,0.0,0.0,0.0,0.0,0.0,0.0,0.0,0.0,0.0,0.0,0.0,0.0,0.0,0.0,-0.862,-0.9388,-0.9338,0.0,0.0,0.0,0.0,0.0,0.0,0.0,0.0,0.0,0.0,0.0,0.0,0.0,0.0,0.0,0.0,-0.8818,-0.8698,-0.8543,-0.8348,0.0,0.0,0.0,0.0,0.0,-0.8353,-0.9416,-0.9969,-0.8407,-0.9065,-0.9921,-0.9374,0.0,0.0,0.0,0.0,0.0,0.0,0.0,0.0,0.0,0.0,0.0,0.0,0.0,0.0,0.0,0.0,0.0,0.0,0.0,0.0,0.0,0.0,-2.2415,-2.2405,-2.2515,-2.2542,-2.2405,-2.2487,-2.2542,-2.2596,-2.2605,-2.2623,-2.2605,-2.2542,-2.246,-2.2394,-2.246,-2.2515,-2.2515,0.0,-2.2571,-2.222,-2.2124,-2.1866,-2.1507,-2.1371,-2.1309,-2.1309,-2.1309,-2.1325,-2.1309,0.0,0.0,0.0,0.0,0.0,0.0,0.0,0.0,0.0,0.0,0.0,0.0,0.0,0.0,0.0,0.0,0.0,0.0,0.0,0.0,0.0,0.0,0.0,0.0,0.0,0.0,0.0,0.0,0.0,-0.8666,-0.8438,-0.8918,-0.894,-0.8551,0.0,0.0,0.0,0.0,0.0,-0.8897,0.0,0.0,0.0,0.0,0.0,0.0,0.0,0.0,0.0,0.0,-0.8316,-0.8131,-0.7896,0.0,0.0,0.0,0.0,0.0,-0.7678,-0.8529,-0.9189,-0.8688,-1.0174,-1.1582,0.0,0.0,0.0,0.0,0.0,0.0,0.0,0.0,0.0,0.0,0.0,0.0,0.0,0.0,0.0,0.0,0.0,0.0,0.0,0.0,0.0,0.0,0.0,0.0,-2.2552,-2.2487,-2.2405,-2.2366,-2.2349,-2.2276,-2.2175,-2.2304,-2.2405,-2.2487,-2.2432,-2.2265,-2.202,-2.2175,-2.2215,-2.2243,0.0,-2.2347,-2.2096,-2.2096,-2.1807,-2.1386,-2.1309,-2.1309,-2.1294,-2.1262,-2.123,-2.1262,0.0,0.0,0.0,0.0,0.0,0.0,0.0,0.0,0.0,0.0,0.0,0.0,0.0,0.0,0.0,0.0,0.0,0.0,0.0,0.0,0.0,0.0,0.0,0.0,0.0,0.0,0.0,-0.7635,-0.802,-0.8285,-0.8468,-0.839,-0.8338,0.0,0.0,0.0,0.0,0.0,0.0,-0.8673,0.0,0.0,0.0,0.0,0.0,0.0,0.0,0.0,0.0,0.0,0.0,0.0,0.0,0.0,0.0,-0.7026,-0.6944,-0.6984,-0.7183,-0.7796,-0.8521,-0.9137,0.0,-1.2279,0.0,0.0,0.0,0.0,0.0,0.0,0.0,0.0,0.0,0.0,0.0,0.0,0.0,0.0,0.0,0.0,0.0,0.0,0.0,0.0,0.0,0.0,0.0,0.0,-2.2605,-2.2432,-2.231,-2.2282,-2.2192,-2.2089,-2.1986,-2.2152,-2.2282,-2.2405,-2.2338,-2.218,-2.1945,-2.1969,-2.2027,-2.2101,-2.2209,-2.2181,-2.2073,-2.2096,-2.1836,-2.1433,-2.1433,-2.1371,-2.1277,-2.123,-2.123,-2.123,0.0,0.0,0.0,0.0,0.0,0.0,0.0,0.0,0.0,0.0,0.0,0.0,0.0,0.0,0.0,0.0,0.0,0.0,0.0,0.0,0.0,0.0,0.0,0.0,0.0,-0.7187,-0.7203,-0.7155,-0.8218,-0.8816,-0.8942,-0.8257,-0.784,-0.768,0.0,0.0,0.0,0.0,0.0,-0.8245,-0.839,0.0,0.0,0.0,0.0,0.0,0.0,0.0,0.0,0.0,0.0,0.0,0.0,0.0,-0.7009,-0.6927,-0.6824,-0.6907,-0.7713,-0.8244,-0.8732,-0.9407,0.0,0.0,-1.2829,0.0,0.0,0.0,0.0,0.0,0.0,0.0,0.0,0.0,0.0,0.0,0.0,0.0,0.0,0.0,0.0,0.0,0.0,0.0,0.0,0.0,0.0,0.0,-2.2405,-2.2405,-2.2349,-2.2192,-2.2073,-2.2101,-2.226,-2.2304,-2.2332,-2.2405,-2.2338,-2.2405,-2.2615,-2.2198,-2.213,-2.2349,-2.2113,-2.2226,-2.2525,-2.2292,-2.2164,-2.2108,-2.1869,-2.157,-2.1309,-2.1277,-2.1277,-2.1277,0.0,0.0,0.0,0.0,0.0,0.0,0.0,0.0,0.0,0.0,0.0,0.0,0.0,0.0,0.0,0.0,0.0,0.0,0.0,0.0,0.0,0.0,0.0,-0.6689,-0.6608,-0.6878,-0.7107,-0.7282,-0.7928,-0.8334,-0.8496,-0.8048,0.0,0.0,0.0,0.0,0.0,0.0,0.0,0.0,-0.8229,-0.8191,0.0,0.0,0.0,0.0,0.0,0.0,0.0,0.0,-0.7349,-0.7178,0.0,-0.6841,-0.6807,-0.6791,-0.674,-0.6757,-0.6996,-0.7911,-0.8907,-0.9356,0.0,0.0,0.0,0.0,0.0,0.0,0.0,0.0,0.0,0.0,0.0,0.0,0.0,0.0,0.0,0.0,0.0,0.0,0.0,0.0,0.0,0.0,0.0,0.0,0.0,0.0,-2.2515,-2.2422,-2.231,-2.2192,-2.2147,-2.213,-2.2169,-2.2287,-2.2432,-2.2596,-2.2569,-2.2388,-2.2089,-2.1986,-2.1899,-2.1781,-2.1764,-2.1853,-2.2032,-2.1986,-2.194,-2.1969,-2.201,-2.1882,-2.1617,-2.1617,-2.1495,-2.1309,0.0,0.0,0.0,0.0,0.0,0.0,0.0,0.0,0.0,0.0,0.0,0.0,0.0,0.0,0.0,0.0,0.0,0.0,0.0,0.0,0.0,0.0,0.0,-0.6461,-0.6418,-0.6672,-0.6908,-0.7123,-0.7392,-0.7679,-0.7986,0.0,0.0,0.0,0.0,0.0,0.0,0.0,0.0,0.0,-0.808,-0.8066,0.0,0.0,0.0,0.0,0.0,0.0,0.0,0.0,-0.6983,-0.6848,0.0,0.0,-0.6638,-0.6638,-0.6799,-0.6974,-0.6951,-0.7835,-0.8871,0.0,0.0,0.0,0.0,0.0,0.0,0.0,0.0,0.0,0.0,0.0,0.0,0.0,0.0,0.0,0.0,0.0,0.0,0.0,0.0,0.0,0.0,0.0,0.0,0.0,0.0,0.0,0.0,-2.2349,-2.2254,-2.2209,-2.2192,-2.2203,-2.2226,-2.2371,-2.2552,-2.2738,-2.2615,-2.2326,-2.1899,-2.1869,-2.1721,-2.1448,-2.1432,-2.154,-2.1738,-2.1797,-2.184,-2.194,-2.2056,-2.201,-2.1928,-2.184,-2.1721,-2.157,0.0,0.0,0.0,0.0,0.0,0.0,0.0,0.0,0.0,0.0,0.0,0.0,0.0,0.0,0.0,0.0,0.0,0.0,0.0,0.0,0.0,0.0,0.0,-0.6362,-0.6676,-0.6633,-0.6564,-0.6507,-0.6633,-0.6977,-0.7499,0.0,0.0,0.0,0.0,0.0,0.0,0.0,0.0,0.0,0.0,-0.7883,-0.7997,0.0,0.0,0.0,0.0,0.0,0.0,0.0,-0.6934,-0.6927,0.0,0.0,0.0,-0.651,-0.7016,-0.763,-0.7825,-0.8148,0.0,0.0,0.0,0.0,0.0,0.0,0.0,0.0,0.0,0.0,0.0,0.0,0.0,0.0,0.0,0.0,0.0,0.0,0.0,0.0,0.0,0.0,0.0,0.0,0.0,0.0,0.0,0.0,0.0,-2.2242,-2.2214,-2.2214,-2.2209,-2.2304,-2.2515,-2.2569,-2.2659,-2.2816,-2.2456,-2.2286,-2.2286,-2.194,-2.1691,-2.1493,-2.1215,-2.1373,-2.1797,-2.1797,-2.1969,-2.2164,-2.1911,-2.1969,-2.2164,-2.1928,-2.1969,-2.2108,0.0,0.0,0.0,0.0,0.0,0.0,0.0,0.0,0.0,0.0,0.0,0.0,0.0,0.0,0.0,0.0,0.0,0.0,0.0,0.0,0.0,0.0,0.0,0.0,0.0,0.0,-0.6689,-0.6714,-0.6894,-0.7155,0.0,0.0,0.0,-0.7422,0.0,0.0,0.0,0.0,0.0,0.0,0.0,-0.7452,-0.7424,0.0,0.0,0.0,0.0,0.0,0.0,0.0,0.0,0.0,0.0,0.0,0.0,-0.6744,-0.6657,-0.6584,-0.6789,-0.803,0.0,0.0,0.0,0.0,0.0,0.0,0.0,0.0,0.0,0.0,0.0,0.0,0.0,0.0,0.0,0.0,0.0,0.0,0.0,0.0,0.0,0.0,0.0,0.0,0.0,0.0,0.0,0.0,0.0,-2.2271,-2.2254,-2.2254,-2.2405,-2.2525,-2.2632,-2.2764,-2.2842,-2.2868,-2.2721,-2.2392,-2.194,-2.1705,-2.1448,-2.1215,-2.1183,-2.1278,-2.1464,-2.1708,-2.1969,-2.222,-2.2381,-2.248,-2.2544,-2.2453,-2.2337,-2.2192,0.0,0.0,0.0,0.0,0.0,0.0,0.0,0.0,0.0,0.0,0.0,0.0,0.0,0.0,0.0,0.0,0.0,0.0,0.0,0.0,0.0,0.0,0.0,0.0,0.0,-0.6655,-0.6744,0.0,0.0,0.0,0.0,0.0,0.0,-0.7392,0.0,0.0,0.0,0.0,0.0,0.0,0.0,-0.7249,-0.7318,0.0,0.0,0.0,0.0,0.0,0.0,0.0,0.0,0.0,0.0,0.0,0.0,-0.671,-0.6905,-0.7092,-0.7431,0.0,0.0,0.0,0.0,0.0,0.0,0.0,0.0,0.0,0.0,0.0,0.0,0.0,0.0,0.0,0.0,0.0,0.0,0.0,0.0,0.0,0.0,0.0,0.0,0.0,0.0,0.0,0.0,0.0,0.0,-2.2338,-2.2366,-2.2338,-2.246,-2.2525,-2.2552,-2.2544,-2.2544,-2.249,-2.2326,-2.2027,-2.1631,-2.1631,-2.1433,-2.1119,-2.1215,-2.1262,-2.1309,-2.1526,-2.1781,-2.2068,-2.2364,-2.2588,-2.2712,-2.2712,-2.2624,-2.2537,0.0,0.0,-0.2872,-0.2645,0.0,0.0,0.0,0.0,0.0,0.0,0.0,-0.2807,0.0,0.0,0.0,-0.2915,0.0,0.0,0.0,0.0,0.0,0.0,0.0,0.0,0.0,0.0,0.0,0.0,0.0,0.0,0.0,0.0,-0.7075,-0.736,0.0,-0.7139,0.0,0.0,0.0,0.0,-0.7045,-0.7176,-0.7399,-0.6394,0.0,0.0,0.0,0.0,0.0,0.0,0.0,0.0,-0.6213,-0.6171,-0.6177,-0.6475,-0.7338,-0.8316,0.0,0.0,0.0,0.0,0.0,0.0,0.0,0.0,0.0,0.0,0.0,0.0,0.0,0.0,0.0,0.0,0.0,0.0,0.0,0.0,0.0,0.0,0.0,0.0,0.0,0.0,0.0,0.0,0.0,0.0,0.0,-2.2349,-2.2405,-2.2321,-2.2332,-2.2315,-2.226,-2.2101,-2.1969,-2.1911,-2.1615,-2.1432,-2.1417,-2.1631,-2.1495,-2.1119,-2.123,-2.1294,-2.1294,-2.1294,-2.1495,-2.1827,-2.2096,-2.2419,-2.2712,-2.2738,-2.2893,-2.3028,0.0,0.0,-0.2607,-0.2607,0.0,0.0,0.0,0.0,0.0,-0.2751,-0.2693,-0.2712,-0.288,-0.2946,0.0,-0.3055,-0.3194,0.0,0.0,0.0,0.0,0.0,0.0,0.0,0.0,0.0,0.0,0.0,0.0,0.0,0.0,0.0,0.0,-0.7091,0.0,-0.6993,0.0,0.0,0.0,0.0,-0.6791,-0.6761,-0.6705,-0.6359,-0.6194,0.0,0.0,0.0,0.0,0.0,0.0,0.0,-0.6313,-0.623,-0.6201,-0.6331,-0.6469,-0.6753,0.0,0.0,0.0,0.0,0.0,0.0,0.0,0.0,0.0,0.0,0.0,0.0,0.0,0.0,0.0,0.0,0.0,0.0,0.0,0.0,0.0,0.0,0.0,0.0,0.0,0.0,0.0,0.0,0.0,0.0,-2.1448,-2.1811,-2.1928,-2.1705,-2.184,-2.1957,-2.2056,-2.2068,-2.2068,-2.2068,-2.1982,-2.1777,-2.1462,-2.1214,-2.1087,-2.1119,-2.123,-2.1262,-2.1247,-2.1294,-2.1495,-2.1827,-2.2096,-2.2419,-2.2738,-2.2944,-2.3045,-2.3102,0.0,0.0,0.0,0.0,0.0,0.0,0.0,0.0,0.0,-0.2674,-0.2674,-0.2703,-0.2834,-0.2937,0.0,0.0,-0.3089,-0.3165,0.0,0.0,0.0,0.0,0.0,0.0,0.0,0.0,0.0,0.0,0.0,0.0,0.0,0.0,0.0,-0.6944,0.0,-0.6927,0.0,0.0,0.0,-0.6651,-0.6651,-0.6569,-0.6392,-0.5723,-0.5558,-0.5597,-0.5132,0.0,0.0,0.0,0.0,0.0,0.0,0.0,-0.6141,-0.6295,-0.6439,-0.6768,0.0,0.0,0.0,0.0,0.0,0.0,0.0,0.0,0.0,0.0,0.0,0.0,0.0,0.0,0.0,0.0,0.0,0.0,0.0,0.0,0.0,0.0,0.0,0.0,0.0,0.0,0.0,0.0,0.0,-2.1479,-2.1339,-2.1628,-2.1748,-2.1661,-2.1675,-2.1735,-2.1748,-2.1705,-2.1691,-2.1691,-2.1691,-2.154,-2.1309,-2.1119,-2.1071,-2.1151,-2.1262,-2.1294,-2.1262,-2.1294,-2.1402,-2.1587,-2.1882,-2.2198,-2.2517,-2.2799,-2.2995,-2.3119,0.0,0.0,0.0,0.0,0.0,0.0,0.0,0.0,0.0,-0.2558,-0.2588,-0.2617,-0.2712,-0.2826,-0.2882,0.0,0.0,0.0,-0.3106,0.0,0.0,0.0,0.0,0.0,0.0,0.0,0.0,0.0,0.0,0.0,0.0,0.0,0.0,-0.6908,0.0,0.0,0.0,0.0,0.0,-0.6432,-0.6344,-0.6216,-0.599,-0.4975,-0.4827,-0.5074,-0.4281,-0.4569,-0.5331,-0.5412,0.0,0.0,0.0,0.0,-0.6032,-0.6242,-0.6588,-0.7154,0.0,0.0,0.0,0.0,0.0,0.0,0.0,0.0,0.0,0.0,0.0,0.0,0.0,0.0,0.0,0.0,0.0,0.0,0.0,0.0,0.0,0.0,0.0,0.0,0.0,0.0,0.0,0.0,0.0,-2.1245,-2.1308,-2.146,-2.1582,-2.157,-2.1507,-2.1446,-2.1448,-2.1262,-2.1183,-2.1215,-2.1215,-2.1183,-2.1103,-2.1183,-2.1215,-2.1215,-2.1262,-2.1294,-2.1309,-2.1309,-2.1309,-2.134,-2.1661,-2.1969,-2.2248,-2.2588,-2.2893,-2.3119,0.0,0.0,0.0,0.0,0.0,0.0,0.0,0.0,0.0,0.0,0.0,-0.2185,-0.2423,-0.2423,-0.2433,-0.2559,-0.2615,-0.267,0.0,0.0,0.0,0.0,0.0,0.0,0.0,0.0,0.0,0.0,0.0,0.0,0.0,0.0,0.0,0.0,0.0,0.0,0.0,0.0,0.0,-0.5783,-0.5316,-0.5049,-0.4889,-0.4612,-0.4585,-0.474,-0.5057,-0.527,-0.5457,-0.5919,-0.6082,0.0,0.0,0.0,0.0,0.0,0.0,0.0,0.0,0.0,0.0,0.0,0.0,0.0,0.0,0.0,0.0,0.0,0.0,0.0,0.0,0.0,0.0,0.0,0.0,0.0,0.0,0.0,0.0,0.0,0.0,0.0,0.0,0.0,0.0,0.0,-2.0679,-2.0761,-2.046,-2.0845,-2.0975,-2.0679,-2.0811,-2.099,-2.1151,-2.1135,-2.1151,-2.1294,-2.1294,-2.1262,-2.1183,-2.1262,-2.1262,-2.1215,-2.1215,-2.123,-2.1309,-2.1309,-2.1309,-2.134,-2.1721,-2.2027,-2.2248,-2.2624,-2.2919,-2.3126,0.0,0.0,0.0,0.0,0.0,0.0,0.0,0.0,0.0,0.0,0.0,-0.2213,-0.2333,-0.2354,-0.2335,-0.2285,-0.2237,0.0,0.0,0.0,0.0,0.0,0.0,0.0,0.0,0.0,0.0,0.0,0.0,0.0,0.0,-0.6523,-0.6821,0.0,0.0,0.0,0.0,0.0,0.0,-0.5454,-0.522,-0.5273,-0.5395,0.0,-0.4806,-0.5477,0.0,0.0,0.0,-0.5726,-0.593,-0.6104,-0.6104,0.0,0.0,0.0,0.0,0.0,0.0,0.0,0.0,0.0,0.0,0.0,0.0,0.0,0.0,0.0,0.0,0.0,0.0,0.0,0.0,0.0,0.0,0.0,0.0,0.0,0.0,0.0,0.0,0.0,0.0,0.0,0.0,0.0,-2.0441,-2.0509,-2.0509,-2.0728,-2.0778,-2.0745,-2.0811,-2.0925,-2.1119,-2.1119,-2.1167,-2.1309,-2.1262,-2.123,-2.1215,-2.1183,-2.1183,-2.1215,-2.123,-2.1262,-2.1309,-2.1309,-2.1309,-2.1309,-2.1479,-2.1807,-2.222,-2.2402,-2.273,-2.3144,0.0,0.0,0.0,0.0,0.0,0.0,0.0,0.0,0.0,0.0,0.0,-0.2272,-0.2252,0.0,0.0,0.0,-0.1954,0.0,0.0,0.0,0.0,0.0,0.0,0.0,0.0,0.0,0.0,0.0,0.0,0.0,-0.5991,-0.6342,-0.6915,0.0,-0.7271,0.0,0.0,0.0,0.0,-0.5377,-0.5422,-0.5581,-0.5699,-0.485,-0.5177,-0.594,0.0,0.0,0.0,0.0,0.0,0.0,0.0,0.0,0.0,0.0,0.0,0.0,0.0,0.0,0.0,0.0,0.0,0.0,0.0,0.0,0.0,0.0,0.0,0.0,0.0,0.0,0.0,0.0,0.0,0.0,0.0,0.0,0.0,0.0,0.0,0.0,0.0,0.0,0.0,0.0,-2.0304,-2.0407,-2.066,-2.0644,-2.0711,-2.0844,-2.0877,-2.0958,-2.1119,-2.1135,-2.1215,-2.1309,-2.1262,-2.1215,-2.1215,-2.1167,-2.1151,-2.1215,-2.123,-2.1262,-2.1309,-2.1294,-2.1277,-2.134,-2.1433,-2.1777,-2.2248,-2.232,-2.266,-2.3119,0.0,0.0,0.0,0.0,0.0,0.0,0.0,0.0,0.0,0.0,0.0,-0.2183,-0.211,-0.211,-0.2089,-0.2012,-0.1886,0.0,0.0,0.0,0.0,0.0,0.0,0.0,0.0,0.0,0.0,0.0,0.0,0.0,-0.5911,-0.6571,-0.7191,-0.7755,-0.7112,-0.6773,-0.6655,0.0,0.0,0.0,-0.572,-0.545,-0.5023,-0.5518,-0.5595,-0.5442,0.0,0.0,0.0,0.0,0.0,0.0,0.0,0.0,0.0,0.0,0.0,0.0,0.0,0.0,0.0,0.0,0.0,0.0,0.0,0.0,0.0,0.0,0.0,0.0,0.0,0.0,0.0,0.0,0.0,0.0,0.0,0.0,0.0,0.0,0.0,0.0,0.0,0.0,0.0,0.0,-2.0339,-2.0373,-2.0494,-2.0527,-2.0561,-2.0726,-2.0777,-2.0909,-2.1119,-2.1247,-2.1277,-2.1309,-2.1294,-2.1262,-2.1215,-2.1262,-2.1262,-2.1183,-2.1135,-2.1183,-2.1294,-2.123,-2.1294,-2.1417,-2.1735,-2.2039,-2.233,-2.2651,-2.2902,-2.3119,0.0,0.0,0.0,0.0,0.0,0.0,0.0,0.0,0.0,0.0,0.0,0.0,0.0,-0.2196,-0.1984,-0.1875,0.0,0.0,0.0,0.0,0.0,0.0,0.0,0.0,0.0,0.0,0.0,0.0,0.0,-0.4211,-0.5331,-0.57,-0.6155,-0.6657,-0.6799,-0.6854,-0.6791,-0.6236,0.0,0.0,0.0,-0.5694,0.0,0.0,-0.6318,-0.6836,0.0,0.0,0.0,0.0,0.0,0.0,0.0,0.0,-0.5911,-0.6075,0.0,0.0,0.0,0.0,0.0,0.0,0.0,0.0,0.0,0.0,0.0,0.0,0.0,0.0,0.0,0.0,0.0,0.0,0.0,0.0,0.0,0.0,0.0,0.0,0.0,0.0,0.0,0.0,0.0,0.0,0.0,-2.0475,-2.0695,-2.0695,-2.0728,-2.0827,-2.0844,-2.0925,-2.1119,-2.1183,-2.1262,-2.1309,-2.1309,-2.1262,-2.1215,-2.1262,-2.1262,-2.1215,-2.1183,-2.1325,-2.1617,-2.1402,-2.1584,-2.1965,-2.1969,-2.2265,-2.2695,-2.2782,-2.2935,-2.3193,0.0,0.0,0.0,-0.3547,0.0,-0.2913,-0.2441,-0.2471,0.0,0.0,0.0,0.0,0.0,0.0,0.0,0.0,0.0,0.0,0.0,0.0,0.0,0.0,0.0,0.0,0.0,0.0,0.0,0.0,0.0,0.0,0.0,0.0,-0.5518,-0.6032,-0.6315,0.0,0.0,0.0,0.0,-0.5258,0.0,0.0,-0.6432,0.0,0.0,0.0,0.0,0.0,0.0,0.0,0.0,0.0,0.0,-0.5933,-0.5893,-0.6057,0.0,0.0,0.0,0.0,0.0,0.0,0.0,0.0,0.0,0.0,0.0,0.0,0.0,0.0,0.0,0.0,0.0,0.0,0.0,0.0,0.0,0.0,0.0,0.0,0.0,0.0,0.0,0.0,0.0,0.0,0.0,0.0,-2.0162,-2.0131,-2.0147,-2.0225,-2.0464,-2.0639,-2.0735,-2.1039,-2.1215,-2.1262,-2.1294,-2.1294,-2.1247,-2.1294,-2.1294,-2.123,-2.1356,-2.1495,-2.1601,-2.1493,-2.1748,-2.2192,-2.2237,-2.2537,-2.2935,-2.296,-2.3102,-2.3289,-0.3761,-0.3991,-0.4149,-0.4061,-0.4,-0.3818,-0.3349,-0.3337,-0.3358,0.0,0.0,0.0,0.0,0.0,0.0,0.0,0.0,0.0,0.0,0.0,0.0,0.0,0.0,0.0,0.0,0.0,0.0,0.0,0.0,0.0,0.0,0.0,-0.5433,0.0,-0.5683,-0.5896,-0.6549,0.0,-0.6317,-0.6602,0.0,-0.7679,-0.6969,0.0,0.0,0.0,-0.7054,-0.6984,0.0,0.0,0.0,0.0,0.0,0.0,-0.5991,-0.5918,0.0,0.0,0.0,0.0,0.0,0.0,0.0,0.0,0.0,0.0,0.0,0.0,0.0,0.0,0.0,0.0,0.0,0.0,0.0,0.0,0.0,0.0,0.0,0.0,0.0,0.0,0.0,0.0,0.0,0.0,-1.859,-1.8621,-1.8898,-1.8826,-1.8842,-1.8898,-1.9615,-1.9967,-1.9967,-2.0765,-2.1166,-2.1183,-2.123,-2.1293,-2.1309,-2.1309,-2.1309,-2.134,-2.1678,-2.1648,-2.134,-2.1538,-2.1807,-2.2096,-2.259,-2.2884,-2.3045,-2.3241,-2.3336,-2.3407,-0.3033,-0.3191,-0.3227,-0.2919,-0.3048,-0.309,-0.2775,-0.2726,0.0,0.0,0.0,0.0,0.0,0.0,0.0,0.0,0.0,0.0,0.0,0.0,0.0,0.0,0.0,0.0,0.0,0.0,0.0,0.0,0.0,0.0,0.0,0.0,0.0,0.0,-0.5471,-0.5739,-0.6015,-0.6086,0.0,0.0,-0.7008,-0.7449,0.0,0.0,0.0,0.0,0.0,-0.8262,0.0,0.0,-0.6846,-0.6392,0.0,0.0,0.0,-0.6111,-0.6272,0.0,-0.6418,0.0,0.0,0.0,0.0,0.0,0.0,0.0,0.0,0.0,0.0,0.0,0.0,0.0,0.0,0.0,0.0,0.0,0.0,0.0,0.0,0.0,0.0,0.0,0.0,0.0,0.0,0.0,-1.881,-1.8882,-1.9111,-1.9017,-1.8975,-1.9045,-1.9135,-1.9231,-1.9351,-1.9618,-2.0003,-2.0566,-2.0641,-2.09,-2.1325,-2.1556,-2.1661,-2.1678,-2.1953,-2.2039,-2.1953,-2.2079,-2.2439,-2.2935,-2.2935,-2.3102,-2.336,-2.336,-2.3407,-2.3494,-0.2918,-0.3046,-0.3147,-0.293,-0.3175,-0.3346,-0.3189,-0.3214,-0.3459,0.0,0.0,0.0,0.0,0.0,0.0,0.0,0.0,0.0,0.0,0.0,0.0,-0.3378,-0.3311,0.0,0.0,0.0,0.0,0.0,0.0,0.0,0.0,0.0,0.0,0.0,0.0,-0.5268,-0.5662,0.0,0.0,0.0,-0.7313,0.0,0.0,-0.8872,-0.9098,0.0,0.0,0.0,-0.8243,-0.8045,-0.7564,0.0,0.0,0.0,-0.6468,-0.6257,0.0,0.0,0.0,0.0,0.0,0.0,0.0,0.0,0.0,0.0,0.0,0.0,0.0,0.0,0.0,0.0,0.0,0.0,0.0,0.0,0.0,0.0,0.0,0.0,0.0,0.0,0.0,-1.8003,-1.8058,-1.8184,-1.8195,-1.8259,-1.8392,-1.8318,-1.8243,-1.8177,-1.8367,-1.8527,-1.8599,-1.8974,-1.9402,-1.9868,-2.0173,-2.0559,-2.0949,-2.1529,-2.1797,-2.1811,-2.2226,-2.2419,-2.2419,-2.2563,-2.2816,-2.3102,-2.3119,-2.3265,-2.3453,-2.3407,-2.3494,-2.3585,0.0,-0.3266,-0.3436,-0.3486,-0.373,-0.3965,-0.4007,-0.4101,-0.4273,0.0,0.0,0.0,0.0,0.0,0.0,0.0,0.0,0.0,0.0,0.0,0.0,-0.3628,-0.3613,-0.3801,0.0,0.0,0.0,0.0,0.0,0.0,0.0,0.0,0.0,0.0,-0.4152,-0.4658,-0.5396,-0.506,0.0,-0.6413,-0.811,-0.8423,0.0,0.0,-0.9916,0.0,-0.9195,-0.9125,-0.9081,-0.8954,-0.8422,0.0,0.0,-0.6583,-0.7008,-0.6486,-0.6645,0.0,0.0,0.0,0.0,0.0,0.0,0.0,-0.8532,-0.8751,0.0,0.0,0.0,0.0,0.0,0.0,0.0,0.0,0.0,0.0,0.0,0.0,0.0,0.0,0.0,0.0,-1.7068,-1.7018,-1.7043,-1.7167,-1.7216,-1.7272,-1.7344,-1.7327,-1.7216,-1.694,-1.7524,-1.7807,-1.7796,-1.8515,-1.8953,-1.9107,-1.9754,-2.0231,-2.0466,-2.1354,-2.1803,-2.1928,-2.2508,-2.2738,-2.2764,-2.2995,-2.3003,-2.2884,-2.3175,-2.3336,-2.3383,-2.3424,-2.3522,-2.3678,-0.3041,-0.2982,-0.2896,-0.2821,-0.2885,-0.3056,-0.3326,-0.3389,0.0,0.0,0.0,0.0,0.0,0.0,0.0,0.0,0.0,0.0,0.0,0.0,-0.4439,-0.4388,-0.4278,-0.4152,-0.3981,0.0,0.0,0.0,0.0,0.0,0.0,0.0,0.0,0.0,-0.4084,-0.4491,-0.4868,-0.4997,0.0,-0.6836,-0.7799,0.0,-0.916,-1.0038,-1.0449,-1.0592,-1.0666,-1.0518,-1.0206,0.0,-0.9047,-0.8247,0.0,0.0,0.0,0.0,0.0,-0.7469,-0.7495,-0.7462,-0.7379,-0.7345,0.0,0.0,0.0,-0.85,0.0,0.0,0.0,0.0,0.0,0.0,0.0,0.0,0.0,0.0,0.0,0.0,0.0,0.0,0.0,0.0,-1.7361,-1.7142,-1.7018,-1.7043,-1.7337,-1.7549,-1.7618,-1.7618,-1.7486,-1.724,-1.7347,-1.7345,-1.7181,-1.7371,-1.7805,-1.8399,-1.861,-1.94,-2.0744,-2.1187,-2.181,-2.2535,-2.2876,-2.302,-2.3045,-2.3095,-2.3102,-2.3126,-2.3193,-2.3265,-2.3336,-2.3448,-2.3539,-2.3629,-0.2848,-0.2869,-0.2896,-0.2848,-0.3019,-0.3163,-0.3247,-0.3416,0.0,0.0,0.0,0.0,0.0,0.0,0.0,0.0,0.0,0.0,0.0,0.0,-0.4981,-0.4716,-0.4762,-0.4762,-0.4706,-0.4765,0.0,0.0,0.0,0.0,0.0,0.0,0.0,0.0,0.0,0.0,0.0,0.0,-0.5608,-0.6403,-0.8118,0.0,-0.9638,-1.0852,-1.116,-1.1002,-1.1002,-1.0878,-1.0634,-0.9818,-0.9372,0.0,0.0,-0.7984,-0.8011,0.0,-0.7911,-0.8015,0.0,0.0,-0.7956,-0.8388,0.0,0.0,0.0,0.0,-0.8762,0.0,0.0,0.0,0.0,0.0,0.0,0.0,0.0,0.0,0.0,0.0,0.0,0.0,0.0,0.0,-1.7071,-1.7216,-1.7313,-1.7361,-1.7625,-1.7755,-1.7658,-1.7641,-1.7595,-1.7439,-1.7337,-1.7191,-1.7117,-1.7057,-1.7277,-1.7694,-1.8072,-1.8976,-2.0331,-2.0974,-2.1823,-2.2712,-2.2977,-2.3095,-2.3095,-2.3095,-2.3119,-2.3151,-2.3193,-2.3217,-2.3265,-2.3383,-2.3517,-2.3607,-0.2713,-0.2869,-0.3019,-0.3089,-0.3345,-0.3486,-0.3332,-0.3633,0.0,0.0,0.0,0.0,0.0,0.0,0.0,0.0,0.0,0.0,0.0,0.0,0.0,-0.4938,-0.5112,-0.5249,-0.5318,-0.497,-0.4835,0.0,0.0,0.0,0.0,0.0,0.0,0.0,0.0,0.0,0.0,0.0,0.0,-0.6433,0.0,-0.938,-0.9298,-1.1192,-1.1458,-1.0872,-1.0977,-1.1002,-1.0876,-0.9866,0.0,-0.9743,-0.852,-0.8491,0.0,0.0,0.0,0.0,0.0,0.0,0.0,0.0,0.0,-0.8611,0.0,0.0,0.0,-0.9553,0.0,0.0,0.0,0.0,0.0,0.0,0.0,0.0,0.0,0.0,0.0,0.0,0.0,0.0,0.0,-1.6757,-1.7098,-1.7555,-1.7512,-1.7478,-1.7532,-1.7641,-1.7664,-1.7635,-1.7455,-1.7296,-1.7191,-1.7092,-1.7099,-1.719,-1.7743,-1.8663,-1.9899,-2.0747,-2.1721,-2.279,-2.302,-2.3095,-2.3095,-2.3095,-2.3095,-2.3119,-2.3168,-2.3217,-2.3265,-2.336,-2.3499,-2.3634,-0.2682,-0.2907,-0.3019,-0.3089,-0.3181,-0.3281,-0.3361,-0.3584,0.0,0.0,0.0,0.0,0.0,0.0,0.0,0.0,0.0,0.0,-0.6958,0.0,0.0,-0.534,-0.5301,-0.5101,-0.4715,-0.5218,-0.5096,0.0,0.0,0.0,0.0,0.0,-0.4282,-0.4233,-0.4774,0.0,0.0,0.0,-0.6606,0.0,-0.9123,-0.8504,0.0,-0.9898,-1.0442,-1.0074,-1.0998,-1.1373,-1.1324,0.0,-1.0425,-1.0265,0.0,-0.9129,-0.9209,0.0,0.0,0.0,0.0,0.0,0.0,0.0,-1.0114,0.0,0.0,0.0,-1.0068,-0.9335,0.0,0.0,0.0,0.0,0.0,0.0,0.0,0.0,0.0,0.0,0.0,0.0,0.0,0.0,0.0,-1.4961,-1.5184,-1.7036,-1.6143,-1.6033,-1.7278,-1.7788,-1.7919,-1.7687,-1.7827,-1.7676,-1.7216,-1.7167,-1.7175,-1.7108,-1.7255,-1.8327,-2.0159,-2.0335,-2.1381,-2.307,-2.3095,-2.3095,-2.3095,-2.3095,-2.3095,-2.3095,-2.3119,-2.3217,-2.3401,-2.3471,-2.3571,-2.371,-0.2459,-0.2767,-0.2918,-0.3019,-0.3223,-0.3372,-0.3402,-0.4223,0.0,0.0,0.0,0.0,0.0,0.0,0.0,0.0,0.0,-0.664,0.0,0.0,0.0,0.0,-0.5803,-0.5664,-0.5298,-0.554,-0.5437,-0.5007,-0.4634,0.0,0.0,0.0,-0.4639,-0.5097,-0.5824,0.0,-0.6421,0.0,0.0,0.0,0.0,0.0,0.0,-1.0404,-1.1239,-1.0859,-1.1307,-1.1459,-1.1345,0.0,-1.0353,0.0,0.0,0.0,0.0,0.0,0.0,0.0,0.0,0.0,0.0,0.0,0.0,0.0,-0.9306,0.0,-0.9569,0.0,0.0,0.0,0.0,0.0,0.0,0.0,0.0,0.0,0.0,0.0,0.0,0.0,0.0,0.0,0.0,0.0,0.0,0.0,-1.5122,-1.5176,-1.6594,-1.7036,-1.7454,-1.7919,-1.798,-1.7898,-1.7676,-1.7375,-1.7344,-1.7509,-1.7338,-1.8375,-2.0424,-2.0347,-2.1319,-2.3095,-2.3095,-2.3095,-2.3095,-2.3095,-2.3095,-2.3119,-2.3193,-2.3289,-2.3407,-2.3567,-2.3642,-2.3714,-0.1913,0.0,0.0,0.0,-0.3239,-0.3468,-0.3606,-0.4622,-0.5391,0.0,0.0,0.0,-0.713,-0.7111,0.0,0.0,0.0,-0.6949,0.0,0.0,-0.6212,-0.6197,-0.6132,0.0,0.0,-0.5769,-0.5629,-0.5538,-0.4969,0.0,0.0,0.0,0.0,-0.5742,0.0,-0.7174,-0.7372,0.0,0.0,-0.8052,-0.8208,-0.8335,-0.8651,-1.0764,-1.1525,-1.1459,-1.141,-1.1384,-1.1234,-1.0623,-1.0265,0.0,-0.9946,0.0,0.0,0.0,0.0,0.0,-1.1665,0.0,0.0,0.0,0.0,0.0,0.0,0.0,0.0,0.0,0.0,0.0,0.0,0.0,0.0,0.0,0.0,0.0,0.0,0.0,0.0,0.0,0.0,0.0,0.0,0.0,0.0,0.0,0.0,-1.4305,-1.6171,-1.649,-1.7067,-1.8073,-1.8044,-1.8023,-1.7984,-1.7653,-1.7585,-1.7766,-1.7526,-1.8525,-2.0541,-2.0442,-2.1385,-2.3095,-2.3095,-2.3095,-2.3095,-2.3095,-2.3119,-2.3168,-2.3289,-2.343,-2.3544,-2.3656,-2.3728,-2.3795,-0.0892,-0.1689,0.0,0.0,0.0,-0.3425,-0.4071,-0.444,-0.4875,0.0,0.0,0.0,0.0,0.0,0.0,0.0,0.0,-0.7578,-0.7551,0.0,-0.6545,0.0,0.0,-0.6004,0.0,0.0,-0.5538,-0.5403,-0.5265,-0.5186,0.0,0.0,0.0,0.0,0.0,-0.7474,-0.7565,-0.8604,-0.9668,-1.0677,-1.0689,-1.1057,-1.1413,0.0,-1.0495,-1.1394,-1.1271,0.0,0.0,-1.068,-1.0499,0.0,0.0,0.0,0.0,0.0,0.0,0.0,0.0,0.0,0.0,-1.0701,0.0,0.0,0.0,0.0,-1.0582,0.0,0.0,0.0,0.0,0.0,0.0,0.0,0.0,0.0,0.0,0.0,0.0,0.0,0.0,0.0,0.0,0.0,0.0,0.0,0.0,0.0,-1.6238,-1.6588,-1.7126,-1.8073,-1.81,-1.8057,-1.7984,-1.7997,-1.7905,-1.771,-1.7766,-1.8705,-2.0407,-2.0541,-2.1511,-2.3095,-2.3095,-2.3095,-2.3095,-2.3095,-2.3168,-2.3313,-2.3448,-2.3616,-2.3774,-2.3725,-2.381,-2.3976,0.0,0.0,0.0,0.0,0.0,0.0,-0.3649,-0.4309,-0.5046,0.0,0.0,0.0,0.0,0.0,-0.8433,0.0,0.0,-0.7895,-0.742,-0.715,0.0,0.0,0.0,-0.6639,0.0,0.0,-0.6329,-0.6193,-0.5786,-0.575,0.0,0.0,0.0,0.0,0.0,-0.8187,0.0,0.0,0.0,0.0,0.0,-1.1002,-1.1649,0.0,0.0,-1.1448,-1.1346,-1.1271,0.0,-1.0967,-1.0667,-1.0425,-1.0629,-1.0602,-1.0612,-1.1131,-1.1695,0.0,0.0,0.0,-1.2642,-1.1596,0.0,0.0,0.0,0.0,0.0,0.0,0.0,0.0,0.0,0.0,0.0,0.0,0.0,0.0,0.0,0.0,0.0,0.0,0.0,0.0,0.0,0.0,0.0,0.0,-1.1794,0.0,0.0,-1.562,-1.6333,-1.7084,-1.7757,-1.8074,-1.7997,-1.8035,-1.8117,-1.8225,-1.8471,-1.9333,-2.0735,-2.1144,-2.1993,-2.3095,-2.3095,-2.3095,-2.3119,-2.3193,-2.3265,-2.3313,-2.3544,-2.3703,-2.3795,-2.3768,-2.3871,-2.3976,0.0329,0.0,0.0,0.0,0.0,0.0,0.0,0.0,0.0,0.0,-0.6791,0.0,-0.87,0.0,-0.8659,0.0,-0.8415,-0.8076,-0.7256,-0.7361,0.0,-0.7064,-0.7233,0.0,0.0,0.0,-0.6848,-0.6527,-0.6253,-0.6264,0.0,0.0,0.0,0.0,0.0,0.0,0.0,0.0,-1.0473,0.0,0.0,-1.1282,0.0,0.0,-1.1623,-1.1485,0.0,-1.1309,-1.1185,-1.112,-1.0882,-1.0673,-1.1025,-1.0983,-1.0938,-1.1549,-1.1847,-1.209,-1.2591,-1.2731,0.0,-1.1949,-1.1067,0.0,-1.0513,0.0,0.0,0.0,0.0,0.0,0.0,0.0,0.0,0.0,0.0,0.0,0.0,0.0,0.0,0.0,0.0,0.0,0.0,0.0,-0.9153,-1.0569,0.0,0.0,0.0,0.0,-1.6098,-1.6853,-1.7704,-1.8159,-1.8184,-1.8243,-1.8363,-1.8502,-1.9009,-1.9834,-2.0881,-2.1523,-2.2268,-2.3095,-2.3095,-2.3095,-2.3119,-2.3241,-2.3336,-2.3383,-2.3611,-2.3768,-2.3816,-2.3807,-2.385,-2.3933,0.0,0.0,0.0,0.0,-0.1963,0.0,0.0,0.0,-0.5785,0.0,-0.7076,-0.8158,-0.8794,-0.8826,-0.8766,-0.8656,-0.856,0.0,-0.7103,-0.7437,0.0,0.0,-0.7587,-0.7607,-0.7538,0.0,0.0,0.0,0.0,0.0,0.0,0.0,0.0,0.0,-0.7726,0.0,-0.917,-1.0623,-1.1479,-1.1819,-1.2016,-1.1943,-1.1756,-1.2016,-1.187,-1.1522,-1.1459,-1.1346,-1.1223,-1.113,-1.1158,-1.1223,-1.1185,-1.1309,-1.1384,-1.1394,-1.1734,-1.2041,-1.1945,-1.2543,-1.2897,-1.1808,-1.175,0.0,0.0,0.0,-1.1693,0.0,0.0,0.0,0.0,0.0,0.0,0.0,0.0,0.0,0.0,0.0,0.0,0.0,0.0,0.0,0.0,0.0,-0.8524,-0.8556,-1.031,0.0,0.0,0.0,-1.636,-1.7293,-1.7872,-1.8287,-1.8485,-1.8559,-1.8559,-1.8522,-1.9318,-2.0093,-2.0824,-2.1625,-2.2394,-2.3119,-2.3102,-2.3119,-2.3144,-2.3265,-2.3401,-2.3517,-2.3656,-2.3768,-2.3876,-2.3828,-2.3804,-2.3804,0.1699,0.12,0.0644,0.0,-0.1424,-0.2454,0.0,0.0,0.0,0.0,-0.6067,-0.7028,-0.8374,-0.8003,-0.7774,-0.8077,-0.7594,0.0,0.0,0.0,0.0,-0.7862,-0.8135,-0.8148,-0.789,-0.7521,0.0,-0.7153,0.0,0.0,-0.6774,0.0,0.0,0.0,0.0,0.0,-0.8794,-0.9928,-1.0976,-1.1881,-1.2077,-1.2113,0.0,0.0,-1.2077,-1.1932,-1.1748,-1.1623,-1.1533,-1.1384,-1.1346,-1.1346,-1.1223,-1.1223,-1.126,-1.1384,-1.1496,-1.1697,-1.2282,-1.2591,-1.281,-1.2976,-1.2429,-1.1869,0.0,0.0,0.0,0.0,0.0,0.0,0.0,0.0,0.0,0.0,0.0,0.0,0.0,0.0,0.0,0.0,0.0,0.0,0.0,-0.8208,-0.8744,-0.9346,-1.0491,0.0,0.0,0.0,0.0,-1.6182,-1.7472,-1.8142,-1.8211,-1.8385,-1.8483,-1.8579,-1.9351,-2.0086,-2.0824,-2.1633,-2.2471,-2.3241,-2.3126,-2.3217,-2.3383,-2.343,-2.3494,-2.3585,-2.3718,-2.3765,-2.3747,-2.3852,-2.3831,-2.3804,0.2415,0.0,0.0,0.0386,0.0,0.0,-0.1665,0.0,0.0,-0.4684,-0.5789,0.0,-0.78,-0.7761,-0.7647,-0.7685,-0.7345,0.0,0.0,0.0,0.0,-0.764,-0.8102,-0.8242,-0.8016,-0.7761,0.0,-0.7144,0.0,0.0,-0.6659,0.0,0.0,0.0,0.0,-0.7936,0.0,-1.0155,-1.1156,-1.1771,-1.2539,0.0,0.0,-1.2669,-1.2633,-1.241,-1.2373,-1.2099,-1.1719,-1.1582,-1.1533,-1.1496,-1.1346,-1.1309,-1.1309,-1.1309,-1.1448,-1.1723,-1.2174,-1.2532,-1.2908,-1.3288,-1.2953,-1.2526,-1.2539,-1.2466,-1.2464,0.0,-1.2944,-1.3317,0.0,0.0,0.0,0.0,0.0,0.0,0.0,0.0,0.0,0.0,0.0,0.0,-0.8175,-0.8714,-0.9047,-0.8809,-0.9842,0.0,0.0,0.0,0.0,-1.5453,-1.7022,-1.7979,-1.8252,-1.8428,-1.8505,-1.8559,-1.933,-2.0082,-2.0824,-2.1633,-2.2471,-2.3289,-2.3217,-2.3313,-2.3517,-2.3544,-2.3585,-2.3607,-2.3718,-2.3743,-2.3743,-2.3831,-2.3828,-2.3804,0.0,0.0,0.0,0.0,0.0,0.0,0.0,-0.2785,0.0,-0.4024,0.0,-0.6873,-0.7077,-0.7458,-0.7597,-0.7295,0.0,-0.7108,-0.6595,-0.6915,-0.7261,-0.7549,-0.7991,-0.8189,-0.8171,-0.8058,0.0,0.0,0.0,0.0,0.0,0.0,0.0,0.0,0.0,0.0,0.0,-1.0704,-1.1653,-1.1823,-1.3103,-1.3302,-1.295,-1.345,-1.3288,-1.2885,-1.3158,-1.2666,-1.1968,-1.1923,-1.1919,-1.1881,-1.1681,-1.1567,-1.1529,-1.1452,-1.1669,-1.1974,-1.2048,-1.2556,-1.3094,-1.3141,-1.3386,-1.3421,-1.2826,-1.2839,-1.3084,-1.3403,-1.3045,-1.3084,0.0,0.0,0.0,0.0,0.0,0.0,0.0,0.0,0.0,0.0,0.0,0.0,0.0,-0.9117,-0.9272,-0.778,-0.8833,0.0,0.0,0.0,0.0,-1.521,-1.6709,-1.7807,-1.8505,-1.8565,-1.8565,-1.8505,-1.9225,-1.9998,-2.0846,-2.155,-2.2388,-2.3313,-2.3313,-2.3383,-2.3522,-2.3634,-2.3674,-2.3629,-2.3678,-2.3743,-2.3804,-2.3786,-2.3804,-2.3804,0.0,0.0,0.0,0.0,0.0,0.0073,0.0417,-0.1963,-0.3692,-0.3402,-0.4089,-0.4986,-0.5981,-0.542,-0.5435,-0.6582,-0.6057,0.0,0.0,0.0,0.0,-0.9421,-0.8759,-0.8598,-0.9055,-0.8417,-0.78,0.0,-0.6681,-0.6435,0.0,0.0,0.0,0.0,0.0,0.0,-0.9295,-1.0528,0.0,-1.3,-1.337,-1.372,-1.4038,-1.4184,-1.379,-1.32,-1.3725,-1.3431,-1.2827,-1.3094,-1.311,-1.2999,-1.2866,-1.2609,-1.2402,-1.2485,-1.2396,-1.2291,-1.2712,-1.2866,-1.3012,-1.3288,-1.3699,-1.389,-1.3242,-1.3516,-1.3801,-1.3467,-1.3506,-1.3635,-1.386,0.0,0.0,0.0,0.0,0.0,0.0,0.0,0.0,0.0,0.0,0.0,0.0,0.0,-0.8964,0.0,0.0,0.0,0.0,0.0,0.0,0.0,-1.6888,0.0,0.0,0.0,-1.8585,-1.8584,-1.8725,-1.9558,-2.0976,-2.1118,-2.2012,-2.3471,-2.3424,-2.3476,-2.3656,-2.3629,-2.3674,-2.3761,-2.3783,-2.3804,-2.3804,-2.3792,-2.381,-2.3804,0.0,0.0,0.0,0.0,0.0,0.0,0.0,-0.1018,0.0,-0.2636,-0.3402,-0.4158,-0.4899,-0.4787,-0.4872,-0.5454,-0.5466,-0.5766,-0.6582,-0.6843,-0.7575,-0.8959,-0.8393,0.0,-0.9331,-0.827,-0.7622,-0.7507,-0.6859,-0.6435,0.0,0.0,0.0,0.0,0.0,-0.8356,0.0,0.0,0.0,-1.3191,-1.4344,-1.4777,-1.474,-1.4874,-1.4583,-1.4121,-1.4422,-1.4269,-1.3964,-1.3831,-1.3615,-1.3451,-1.3316,-1.3079,-1.2858,-1.3087,-1.3195,-1.3321,-1.3816,-1.4063,-1.4219,-1.4413,-1.4569,-1.4571,-1.4044,-1.4111,-1.4297,-1.4224,-1.4072,-1.3872,-1.3714,-1.3596,0.0,0.0,0.0,0.0,0.0,0.0,0.0,0.0,0.0,0.0,0.0,0.0,0.0,0.0,0.0,0.0,0.0,0.0,-1.2835,0.0,0.0,0.0,-1.8545,0.0,-1.8796,-1.918,-1.928,-2.0099,-2.1582,-2.1647,-2.2375,-2.3589,-2.3539,-2.3611,-2.3768,-2.3721,-2.3739,-2.3804,-2.3743,-2.3783,-2.3804,-2.3789,-2.3807,-2.3804,0.0,0.6271,0.0,0.0,0.2838,0.0,0.0705,-0.0169,-0.1017,-0.1835,-0.2839,-0.3601,-0.3894,-0.4397,-0.4661,-0.453,-0.4966,-0.5365,-0.5677,-0.6418,-0.7249,-0.8201,-0.8041,-0.8395,-0.9548,-0.833,-0.7718,0.0,-0.7143,0.0,0.0,0.0,-0.624,-0.6496,0.0,0.0,0.0,0.0,-1.3495,-1.365,-1.5237,-1.5674,-1.5423,-1.5519,-1.532,-1.4983,-1.509,-1.5066,-1.4881,-1.4512,-1.4187,-1.3956,-1.3884,-1.3716,-1.3546,-1.3807,-1.4099,-1.4434,-1.4819,-1.5146,-1.5374,-1.5411,-1.5414,-1.526,-1.4875,-1.4735,-1.4722,-1.4897,-1.4513,-1.4038,-1.3772,-1.3572,0.0,0.0,0.0,0.0,0.0,0.0,0.0,0.0,0.0,0.0,0.0,0.0,0.0,0.0,0.0,0.0,-1.0352,0.0,0.0,0.0,0.0,-1.6853,-1.8183,0.0,-1.9008,-1.9696,-1.9907,-2.0769,-2.2154,-2.2264,-2.2819,-2.3678,-2.3629,-2.3678,-2.3792,-2.3786,-2.3786,-2.3786,-2.3725,-2.3747,-2.3807,-2.3804,-2.3804,-2.3783,0.0,0.0,0.0,0.0,0.0,0.0,0.1755,0.0338,-0.0807,-0.1068,-0.2089,-0.2887,-0.3105,-0.3476,-0.3884,-0.4272,-0.4268,-0.4644,-0.5641,-0.5677,-0.6573,-0.8623,-0.8602,-0.9002,-1.0011,-0.9291,-0.8692,0.0,0.0,-0.701,0.0,-0.6669,-0.6931,-0.7531,0.0,0.0,0.0,-1.3094,-1.4411,-1.5421,-1.5463,-1.584,-1.6361,-1.6201,-1.5721,-1.5217,-1.5702,-1.5569,-1.5145,-1.5504,-1.5428,-1.5116,-1.5116,-1.5105,-1.5081,-1.5115,-1.5148,-1.5196,-1.5237,-1.5229,-1.5272,-1.5447,-1.5685,-1.5853,-1.55,-1.5283,-1.5054,-1.4849,-1.4614,-1.4322,-1.3863,-1.4214,-1.42,0.0,0.0,0.0,0.0,0.0,0.0,0.0,0.0,0.0,0.0,0.0,0.0,0.0,0.0,0.0,0.0,0.0,0.0,-1.4827,-1.5575,-1.6354,-1.7223,-1.8248,-1.9103,-1.9696,-1.9966,-2.0868,-2.2285,-2.2368,-2.2837,-2.3607,-2.3607,-2.3652,-2.3721,-2.3765,-2.3789,-2.3795,-2.3795,-2.3795,-2.3813,-2.3807,-2.3743,-2.37,0.0,0.0,0.0,0.0,0.0,0.0,0.0,0.0875,-0.0719,-0.0807,-0.1211,-0.188,-0.2854,-0.3391,-0.3571,-0.3258,-0.3609,-0.4025,-0.4411,-0.5419,-0.6444,-0.7484,-0.7823,-0.8568,-0.9771,-0.8871,-0.8557,0.0,0.0,0.0,0.0,-0.7196,-0.7643,-0.8613,0.0,-1.1094,-1.1848,-1.3729,-1.4878,-1.543,-1.607,-1.6376,-1.6479,-1.6392,-1.6083,-1.5709,-1.6015,-1.591,-1.5666,-1.594,-1.5804,-1.5537,-1.5537,-1.5334,-1.5175,-1.5744,-1.5775,-1.5734,-1.6296,-1.6486,-1.6559,-1.6652,-1.6877,-1.6943,-1.6667,-1.6418,-1.6112,-1.5476,-1.499,-1.4617,-1.4427,-1.4331,-1.4204,-1.4004,0.0,0.0,0.0,0.0,0.0,0.0,0.0,0.0,0.0,0.0,0.0,0.0,0.0,-0.8147,-1.0165,-1.0632,0.0,-1.3987,0.0,-1.632,-1.7082,-1.8231,-1.9372,-2.0474,-2.0798,-2.1704,-2.3149,-2.3214,-2.3458,-2.3831,-2.3876,-2.3878,-2.3878,-2.3958,-2.3917,-2.3795,-2.3795,-2.3795,-2.3795,-2.3807,-2.3761,-2.3678,1.0202,0.0,0.985,0.0,0.6081,0.5048,0.4836,0.2266,0.0403,0.0537,-0.0135,-0.0987,-0.2055,-0.2857,-0.3037,-0.2457,-0.299,-0.3251,-0.302,-0.4554,-0.5683,-0.5987,-0.689,0.0,-0.93,-0.8532,-0.8604,-0.9549,-0.878,0.0,-0.8299,-0.8243,-0.8761,-0.9724,-1.0947,-1.18,-1.2381,-1.4294,-1.5235,-1.5453,-1.6371,-1.6663,-1.6565,-1.6479,-1.6306,-1.6132,-1.6144,-1.61,-1.6044,-1.6144,-1.6013,-1.5848,-1.5848,-1.5724,-1.57,-1.6355,-1.6527,-1.66,-1.731,-1.7502,-1.7556,-1.7693,-1.7706,-1.7653,-1.7534,-1.7211,-1.6736,-1.5993,-1.5398,-1.5012,-1.4948,-1.4539,-1.4246,-1.4362,0.0,0.0,0.0,0.0,0.0,0.0,0.0,-1.1273,0.0,0.0,0.0,0.0,0.0,-0.9357,-1.025,-1.0824,0.0,0.0,0.0,0.0,-1.712,-1.8462,-1.9784,-2.104,-2.1594,-2.2504,-2.37,-2.3783,-2.3871,-2.3996,-2.4057,-2.4079,-2.408,-2.4079,-2.4001,-2.3878,-2.3816,-2.3795,-2.3792,-2.3786,-2.3739,-2.3656,1.1406,0.9745,0.7843,0.6628,0.6738,0.7112,0.7587,0.4904,0.3001,0.349,0.1252,-0.0405,-0.045,-0.1436,-0.2107,-0.2101,-0.2415,-0.2328,-0.166,-0.2876,-0.3872,0.0,0.0,-0.7306,-0.8608,-0.8679,-0.9082,-0.9873,0.0,0.0,-0.9793,-1.0033,-1.039,-1.0835,-1.1974,-1.2721,-1.3176,-1.4743,-1.5555,-1.582,-1.625,-1.6534,-1.6688,-1.6491,-1.6392,-1.6349,-1.6088,-1.61,-1.62,-1.6044,-1.61,-1.6188,-1.6188,-1.665,-1.7157,-1.7199,-1.7557,-1.8002,-1.8149,-1.8043,-1.7922,-1.8123,-1.7922,-1.7747,-1.7948,-1.7366,-1.6707,-1.6282,-1.5855,-1.5541,-1.5339,-1.4943,-1.4443,-1.3725,0.0,0.0,0.0,0.0,0.0,0.0,-1.2057,-1.1443,-1.2568,0.0,0.0,0.0,0.0,-1.1325,-1.1477,0.0,0.0,-1.4624,-1.6004,0.0,-1.7198,-1.9051,-2.0358,-2.1096,-2.219,-2.3046,-2.37,-2.3783,-2.3871,-2.3996,-2.3996,-2.4116,-2.4264,-2.408,-2.404,-2.4078,-2.3878,-2.381,-2.3804,-2.3721,-2.3674,-2.3585,1.1199,0.9601,0.8088,0.7691,0.7747,0.7678,0.7271,0.5683,0.4075,0.2744,0.2452,0.1564,-0.0404,-0.0944,-0.1076,0.0,-0.1163,-0.1521,0.0,-0.2645,-0.3216,-0.3678,-0.4698,-0.5882,-0.7137,-0.7647,-0.8461,-0.957,0.0,0.0,0.0,-1.0988,-1.1493,-1.1791,-1.2348,-1.2792,-1.3091,-1.4299,-1.4926,-1.5254,-1.612,-1.6522,-1.6565,-1.6479,-1.6392,-1.6231,-1.6188,-1.61,-1.6088,-1.6219,-1.6231,-1.6244,-1.6362,-1.6349,-1.6349,-1.6879,-1.7105,-1.7299,-1.7908,-1.8055,-1.8109,-1.8254,-1.8201,-1.8135,-1.8307,-1.7835,-1.7311,-1.719,-1.6647,-1.6076,-1.5591,-1.5402,-1.5101,-1.4457,-1.4654,0.0,0.0,0.0,0.0,0.0,-1.2523,-1.2311,0.0,-1.2407,0.0,0.0,0.0,0.0,0.0,0.0,0.0,0.0,-1.618,0.0,-1.8023,-1.983,-2.1184,-2.2052,-2.2483,-2.3084,-2.3783,-2.3789,-2.3858,-2.4001,-2.4192,-2.4301,-2.4353,-2.4459,-2.4425,-2.4301,-2.4229,-2.4192,-2.4136,-2.4115,-2.3976,-2.3789,1.0968,0.9466,0.8187,0.8187,0.8187,0.8026,0.7513,0.621,0.482,0.3486,0.315,0.2389,0.077,0.0947,0.0,-0.0224,-0.0447,-0.0895,-0.1748,-0.2107,-0.2505,-0.2963,-0.37,-0.4722,-0.6052,-0.6739,0.0,-0.9309,-0.988,-1.036,-1.0754,-1.161,-1.2168,-1.249,-1.2609,-1.2852,-1.3208,-1.3768,-1.4422,-1.513,-1.5744,-1.6194,-1.6522,-1.6479,-1.6362,-1.6188,-1.6144,-1.6088,-1.6044,-1.6175,-1.6231,-1.6231,-1.6565,-1.6436,-1.6349,-1.7089,-1.7435,-1.7666,-1.824,-1.8333,-1.8307,-1.8372,-1.8358,-1.8319,-1.8411,-1.8117,-1.7852,-1.7852,-1.7311,-1.6681,-1.627,-1.5861,-1.5496,-1.5151,-1.4997,-1.4783,-1.427,0.0,0.0,0.0,0.0,0.0,0.0,-1.3468,-1.3549,0.0,0.0,0.0,0.0,0.0,-1.4112,-1.4969,-1.7131,-1.8628,-1.9386,-2.0767,-2.1804,-2.247,-2.2901,-2.334,-2.3789,-2.3813,-2.3899,-2.4059,-2.4301,-2.4441,-2.4526,-2.4642,-2.4626,-2.451,-2.4424,-2.4353,-2.4301,-2.4302,-2.4191,-2.4018,1.0753,0.9451,0.8347,0.0,0.8215,0.8215,0.8187,0.6557,0.5309,0.5309,0.3584,0.2444,0.2679,0.3608,0.3067,0.0223,0.0,0.0,-0.0985,-0.1344,-0.1746,-0.2235,-0.2873,-0.3883,-0.5286,-0.5887,-0.7189,-0.9176,-1.0277,-1.1057,-1.1519,-1.1968,-1.2471,-1.2881,-1.2783,-1.2958,-1.3362,-1.3266,-1.4003,-1.5299,-1.5231,-1.5732,-1.6522,-1.6436,-1.6318,-1.6188,-1.6044,-1.5988,-1.6044,-1.6032,-1.6088,-1.6287,-1.6748,-1.6918,-1.7086,-1.7639,-1.8266,-1.8798,-1.8941,-1.875,-1.8517,-1.8517,-1.8411,-1.8305,-1.8305,-1.8305,-1.8305,-1.8305,-1.7859,-1.738,-1.7188,-1.6374,-1.5719,-1.5702,-1.5308,-1.4809,-1.437,0.0,0.0,0.0,0.0,0.0,-1.4175,-1.453,-1.5011,0.0,0.0,0.0,0.0,0.0,-1.5325,-1.7894,-1.8637,-1.9654,-2.1065,-2.1808,-2.2287,-2.25,-2.3389,-2.3795,-2.3795,-2.3795,-2.3899,-2.4097,-2.4284,-2.4493,-2.4692,-2.4692,-2.4707,-2.4707,-2.451,-2.4407,-2.4336,-2.4338,-2.4303,-2.421,0.0,0.0,0.9713,0.8432,0.8375,0.8432,0.8215,0.6557,0.5309,0.5309,0.5074,0.4355,0.2874,0.3123,0.2893,0.1665,0.1482,0.0895,-0.0313,-0.0716,-0.1119,-0.1612,-0.2172,-0.3006,-0.4215,-0.4905,-0.6444,-0.8948,-1.021,-1.1057,-1.1519,-1.1968,-1.2412,-1.2735,-1.2725,-1.29,-1.3266,-1.3208,-1.405,-1.5389,-1.5454,-1.6051,-1.6791,-1.6663,-1.6534,-1.6392,-1.6231,-1.6144,-1.6188,-1.6262,-1.6275,-1.6318,-1.6905,-1.7323,-1.7557,-1.7868,-1.8135,-1.8386,-1.8673,-1.8711,-1.8634,-1.8634,-1.8556,-1.8464,-1.8464,-1.8464,-1.8464,-1.8464,-1.8246,-1.7957,-1.7487,-1.719,-1.6697,-1.5843,-1.5726,-1.5213,-1.3697,-1.3966,0.0,0.0,-1.4352,-1.5076,-1.4071,-1.5863,-1.6228,0.0,0.0,0.0,-1.5166,-1.6053,-1.6992,-1.7898,-1.91,-2.0422,-2.1826,-2.2622,-2.3145,-2.339,-2.3681,-2.3795,-2.3795,-2.3795,-2.3837,-2.3878,-2.4079,-2.4284,-2.4493,-2.4642,-2.4802,-2.4922,-2.4875,-2.4813,-2.4764,-2.4704,-2.4559,-2.4426,1.0897,1.1922,1.2513,1.16,0.9862,0.8544,0.8404,0.7501,0.651,0.5648,0.5686,0.5201,0.3617,0.3548,0.3429,0.2899,0.2162,0.1288,0.0087,-0.0354,-0.085,-0.1389,-0.1928,-0.265,-0.3604,-0.4274,-0.5839,-0.8435,-0.9673,-1.0643,-1.136,-1.161,-1.2067,-1.2676,-1.2627,-1.2803,-1.3112,-1.3064,-1.3899,-1.5287,-1.5365,-1.5964,-1.6705,-1.6718,-1.6577,-1.6436,-1.6318,-1.6231,-1.6231,-1.6522,-1.6392,-1.6318,-1.7115,-1.7365,-1.7393,-1.7679,-1.8121,-1.8503,-1.8673,-1.8673,-1.8595,-1.8595,-1.8556,-1.8517,-1.8517,-1.8517,-1.8517,-1.8517,-1.8425,-1.8313,-1.8054,-1.7483,-1.6916,-1.6493,-1.5974,-1.519,-1.3966,-1.4383,-1.4557,-1.3859,-1.5338,-1.6228,-1.5762,-1.7349,-1.7545,-1.5474,-1.6344,0.0,-1.6289,-1.7281,-1.8176,-1.8892,-2.0089,-2.1312,-2.2547,-2.3124,-2.3453,-2.3611,-2.375,-2.3858,-2.3921,-2.3837,-2.3858,-2.3941,-2.404,-2.4211,-2.4407,-2.4626,-2.4817,-2.501,-2.501,-2.4977,-2.4931,-2.487,-2.4749,-2.4642,1.1524,1.3445,1.5086,1.5147,1.2076,0.9511,0.9258,0.8871,0.8031,0.6435,0.5959,0.5475,0.4614,0.4466,0.4363,0.4229,0.2927,0.1687,0.0636,0.0044,-0.0582,-0.1254,-0.1794,-0.2416,-0.3199,-0.3945,-0.5462,-0.7804,-0.8885,-1.0026,-1.12,-1.12,-1.176,-1.2676,-1.2578,-1.2706,-1.3016,-1.2871,-1.37,-1.5152,-1.5186,-1.5732,-1.6565,-1.6663,-1.6577,-1.6436,-1.6436,-1.6362,-1.6318,-1.6637,-1.6552,-1.6491,-1.7227,-1.7282,-1.7115,-1.7434,-1.8028,-1.8592,-1.8581,-1.8556,-1.8517,-1.8517,-1.8517,-1.8517,-1.8517,-1.8517,-1.8517,-1.8517,-1.8517,-1.8542,-1.863,-1.7692,-1.6987,-1.7195,-1.6308,-1.5309,-1.4541,0.0,-1.5548,-1.5344,-1.6488,-1.7409,-1.7814,-1.8683,-1.8786,-1.7817,-1.8047,-1.8211,-1.8145,-1.848,-1.9149,-2.0196,-2.1103,-2.2076,-2.3077,-2.3407,-2.3544,-2.3522,-2.375,-2.3939,-2.4078,-2.3939,-2.3959,-2.4116,-2.4136,-2.4247,-2.4407,-2.4626,-2.4802,-2.495,-2.4996,-2.501,-2.4996,-2.4917,-2.4856,-2.4842,1.343,1.3735,1.4105,1.4429,1.4349,1.3751,1.2292,1.0099,0.8505,0.8202,0.679,0.5727,0.5584,0.5145,0.5341,0.6408,0.537,0.3823,0.1862,0.1066,0.0268,-0.0582,-0.1164,-0.1885,-0.2755,-0.4195,-0.5704,-0.7243,-0.8071,-0.9437,-1.12,-1.12,-1.176,-1.2676,-1.2578,-1.2754,-1.316,-1.2909,-1.3794,-1.5344,-1.5231,-1.5876,-1.6833,-1.6718,-1.6675,-1.6633,-1.6534,-1.6479,-1.6479,-1.6522,-1.6778,-1.7073,-1.7199,-1.7434,-1.7679,-1.7679,-1.7679,-1.776,-1.8042,-1.8293,-1.8517,-1.8517,-1.8517,-1.8517,-1.8517,-1.8517,-1.8517,-1.8517,-1.8595,-1.8711,-1.876,-1.8589,-1.8141,-1.7125,-1.7149,-1.6573,-1.4456,0.0,-1.6358,-1.549,-1.7469,-1.8619,-1.7794,-1.9122,-1.9565,-1.8448,-1.8622,-1.8783,-1.886,-1.9573,-2.0273,-2.0853,-2.1302,-2.2027,-2.3077,-2.3535,-2.3689,-2.3584,-2.3901,-2.4039,-2.4036,-2.4096,-2.4116,-2.4098,-2.4338,-2.4425,-2.4407,-2.4626,-2.4723,-2.4753,-2.4936,-2.501,-2.4996,-2.4856,-2.4889,-2.495,1.3741,1.3788,1.3921,1.4235,1.4429,1.3776,1.1715,1.0502,0.9858,0.9858,0.9082,0.8025,0.6583,0.6216,0.6501,0.7596,0.6545,0.5344,0.4116,0.2461,0.0976,-0.0143,-0.0916,-0.1898,-0.323,-0.4291,-0.5642,-0.7284,-0.7959,-0.9134,-1.0804,-1.1057,-1.156,-1.2274,-1.2421,-1.2569,-1.2745,-1.3256,-1.4142,-1.5313,-1.5936,-1.6687,-1.7433,-1.7055,-1.7085,-1.7264,-1.6908,-1.6809,-1.6898,-1.7124,-1.7179,-1.724,-1.7434,-1.7516,-1.7475,-1.7434,-1.7421,-1.7421,-1.7557,-1.7841,-1.8135,-1.8135,-1.8307,-1.8517,-1.8659,-1.8644,-1.8697,-1.875,-1.8841,-1.8865,-1.895,-1.8625,-1.823,-1.7766,-1.7545,-1.7058,-1.5973,-1.6498,-1.6992,-1.6913,-1.8233,-1.9073,-1.8933,-2.0002,-2.0272,-1.9279,-1.9338,-1.9429,-1.9491,-2.0217,-2.0916,-2.1558,-2.2074,-2.2611,-2.3095,-2.3389,-2.3531,-2.3553,-2.386,-2.4098,-2.4266,-2.4302,-2.4337,-2.4422,-2.4424,-2.4493,-2.4578,-2.4657,-2.4707,-2.4707,-2.4768,-2.4798,-2.4832,-2.4731,-2.4823,-2.501,1.3794,1.3921,1.4007,1.4268,1.4105,1.3141,1.0834,1.0646,1.0805,1.0891,1.0891,0.9903,0.7266,0.7189,0.7595,0.8263,0.7245,0.6345,0.5698,0.3665,0.191,0.0651,-0.0475,-0.1866,-0.3503,-0.3968,-0.5211,-0.7318,-0.7722,-0.8781,-1.0344,-1.0846,-1.1403,-1.2004,-1.237,-1.2478,-1.2563,-1.3755,-1.4568,-1.527,-1.6586,-1.7476,-1.7939,-1.7436,-1.7488,-1.7736,-1.7196,-1.7143,-1.7355,-1.7403,-1.7372,-1.7326,-1.7391,-1.7269,-1.7102,-1.7144,-1.7173,-1.716,-1.7102,-1.7352,-1.7679,-1.7787,-1.8121,-1.8489,-1.8745,-1.8822,-1.8889,-1.8993,-1.8993,-1.9017,-1.9101,-1.8636,-1.8281,-1.8335,0.0,-1.7514,-1.7277,-1.7421,-1.7669,-1.8122,-1.8802,-1.9432,-1.9894,-2.061,-2.0767,-2.0099,-2.0083,-2.0115,-2.013,-2.0672,-2.1362,-2.2147,-2.2764,-2.3095,-2.3095,-2.3271,-2.3458,-2.3616,-2.3862,-2.4155,-2.451,-2.4493,-2.4556,-2.4682,-2.4588,-2.4591,-2.4707,-2.4753,-2.4738,-2.4707,-2.4689,-2.4689,-2.4673,-2.4682,-2.479,-2.4945,1.4195,1.4268,1.4268,1.43,1.4268,1.354,1.1376,1.0661,1.0487,1.0843,1.0891,0.9903,0.7266,0.778,0.8307,0.8403,0.763,0.6619,0.5316,0.4455,0.3411,0.22,0.0449,-0.1299,-0.3003,-0.2948,-0.4303,-0.7014,-0.6968,-0.7961,-1.002,-1.0592,-1.1336,-1.2287,-1.2442,-1.2688,-1.3141,-1.438,-1.5077,-1.5411,-1.6919,-1.7749,-1.7977,-1.7809,-1.7773,-1.7736,-1.7196,-1.7331,-1.7601,-1.6638,-1.6886,-1.7441,-1.6554,-1.6552,-1.6837,-1.6993,-1.6909,-1.6837,-1.6765,-1.6976,-1.7323,-1.772,-1.7974,-1.8238,-1.8693,-1.8889,-1.8993,-1.8993,-1.8993,-1.9017,-1.9101,-1.9058,-1.884,-1.8209,0.0,0.0,-1.7202,-1.8101,-1.8648,-1.8072,-1.9191,-1.9969,-1.9823,-2.0481,-2.0878,-2.083,-2.0781,-2.0748,-2.083,-2.1118,-2.1609,-2.2368,-2.2841,-2.3095,-2.3095,-2.3422,-2.3696,-2.3963,-2.4118,-2.4317,-2.4591,-2.4651,-2.4685,-2.4723,-2.4884,-2.487,-2.4707,-2.4908,-2.4861,-2.4723,-2.4908,-2.4813,-2.4639,-2.4889,-2.487,-2.4771,1.4201,1.43,1.43,1.43,1.43,1.3517,1.1195,1.0755,1.0728,1.0881,1.0891,1.0515,0.954,0.9159,0.8963,0.9011,0.762,0.6734,0.6751,0.5488,0.3729,0.151,0.0206,-0.1132,-0.2553,-0.2861,-0.4321,-0.7014,-0.6963,-0.7807,-0.951,-1.0387,-1.1073,-1.155,-1.254,-1.3147,-1.3464,-1.5078,-1.5964,-1.6486,-1.7822,-1.8586,-1.8958,-1.8487,-1.8511,-1.8732,-1.8191,-1.8093,-1.8117,-1.7702,-1.7684,-1.7714,-1.713,-1.7043,-1.7099,-1.6653,-1.6423,-1.6293,-1.625,-1.6509,-1.682,-1.6976,-1.738,-1.7814,-1.812,-1.8266,-1.8475,-1.8798,-1.8798,-1.8836,-1.9064,-1.9101,-1.9029,-1.8745,0.0,-1.8867,-1.8375,-1.8714,-1.8907,-1.8648,-1.9439,-1.9914,-1.9823,-2.0481,-2.0861,-2.0844,-2.0827,-2.0827,-2.086,-2.1386,-2.2027,-2.2738,-2.2952,-2.307,-2.3095,-2.3382,-2.3653,-2.3881,-2.4229,-2.447,-2.4685,-2.4827,-2.4884,-2.4898,-2.4959,-2.4964,-2.4875,-2.4964,-2.4875,-2.4707,-2.4731,-2.4731,-2.4666,-2.4785,-2.4869,-2.4974,1.4219,1.43,1.43,1.43,1.43,1.3517,1.1171,1.0874,1.0891,1.0891,1.0891,1.0891,1.0891,1.0079,0.9582,0.9596,0.7889,0.6982,0.7326,0.5451,0.3439,0.1514,0.032,-0.0959,-0.2328,-0.2958,-0.4577,-0.725,-0.7145,-0.7913,-0.9559,-1.0561,-1.119,-1.1606,-1.293,-1.3769,-1.4376,-1.5847,-1.6849,-1.7479,-1.8605,-1.9281,-1.9567,-1.9054,-1.9101,-1.9359,-1.8856,-1.872,-1.8767,-1.8424,-1.835,-1.8292,-1.7693,-1.7529,-1.7365,-1.661,-1.6392,-1.6367,-1.625,-1.6349,-1.6522,-1.6522,-1.6934,-1.7407,-1.7666,-1.7961,-1.8305,-1.8669,-1.8745,-1.8822,-1.9064,-1.9101,-1.9101,-1.9101,-1.9101,-1.9101,-1.9101,-1.904,-1.9017,-1.8941,-1.9515,-1.9894,-1.9767,-2.0429,-2.0844,-2.0794,-2.0794,-2.0893,-2.1103,-2.1615,-2.2226,-2.2944,-2.302,-2.3052,-2.3168,-2.3405,-2.3674,-2.3961,-2.4336,-2.4601,-2.4804,-2.4917,-2.4991,-2.4999,-2.4977,-2.4977,-2.501,-2.501,-2.4936,-2.4813,-2.4775,-2.4723,-2.4723,-2.4823,-2.491,-2.5013,1.43,1.43,1.43,1.43,1.43,1.3577,1.1444,1.1022,1.0919,1.0891,1.093,1.0919,1.0891,1.04,1.0079,1.0079,0.8614,0.7393,0.6641,0.4138,0.2679,0.2512,0.1004,-0.0669,-0.2447,-0.3118,-0.4845,-0.7824,-0.748,-0.8285,-1.02,-1.1099,-1.1955,-1.2804,-1.3543,-1.467,-1.5933,-1.6841,-1.7531,-1.8166,-1.9175,-1.9617,-1.9617,-1.9473,-1.942,-1.9347,-1.8945,-1.9246,-1.9635,-1.8578,-1.8674,-1.9029,-1.8115,-1.779,-1.7655,-1.6926,-1.6989,-1.7201,-1.6791,-1.662,-1.6522,-1.6522,-1.6752,-1.7118,-1.7504,-1.812,-1.8592,-1.8592,-1.886,-1.9101,-1.9101,-1.9101,-1.9101,-1.9101,-1.9101,-1.9101,-1.9101,-1.9101,-1.9026,-1.8822,-1.9508,-1.9919,-1.9726,-2.0376,-2.0794,-2.0794,-2.0794,-2.1103,-2.1768,-2.1869,-2.2198,-2.2876,-2.3045,-2.3168,-2.3289,-2.3495,-2.3844,-2.43,-2.4439,-2.4682,-2.4993,-2.4926,-2.4931,-2.4996,-2.4931,-2.4931,-2.501,-2.501,-2.505,-2.5101,-2.5101,-2.4947,-2.4724,-2.5082,-2.4994,-2.4757,1.43,1.43,1.43,1.43,1.43,1.4088,1.3457,1.331,1.2719,1.1099,1.1341,1.1479,1.0957,1.04,1.0079,1.0079,0.9131,0.8148,0.7229,0.5091,0.3788,0.3561,0.1283,-0.0613,-0.1994,-0.3116,-0.5075,-0.7931,-0.7813,-0.8569,-1.002,-1.1148,-1.1865,-1.2349,-1.3886,-1.5198,-1.6267,-1.695,-1.7809,-1.8758,-1.9085,-1.9396,-1.9759,-1.9708,-1.9811,-1.9965,-1.9839,-1.9927,-2.0016,-1.961,-1.946,-1.937,-1.8722,-1.8319,-1.7987,-1.7397,-1.7264,-1.725,-1.6721,-1.6522,-1.6552,-1.6841,-1.6837,-1.6892,-1.7312,-1.7558,-1.776,-1.8108,-1.8461,-1.8784,-1.9064,-1.9101,-1.9101,-1.9101,-1.9101,-1.9101,-1.9101,-1.9101,-1.9026,-1.8822,-1.931,-1.9639,-1.969,-2.0204,-2.0579,-2.0794,-2.0794,-2.1134,-2.1919,-2.196,-2.2368,-2.3223,-2.3241,-2.336,-2.3589,-2.3824,-2.4044,-2.4228,-2.4654,-2.4903,-2.5004,-2.4931,-2.4931,-2.4996,-2.4931,-2.4959,-2.5076,-2.5076,-2.5076,-2.5099,-2.5156,-2.5113,-2.505,-2.5149,-2.5137,-2.5069,1.4287,1.43,1.43,1.43,1.43,1.43,1.43,1.43,1.3589,1.1653,1.1726,1.1726,1.1109,1.0718,1.0487,1.0487,0.9538,0.8408,0.7304,0.5701,0.4492,0.395,0.1561,-0.0279,-0.1497,-0.3116,-0.5274,-0.7949,-0.8069,-0.9015,-1.0618,-1.1411,-1.2216,-1.2906,-1.4157,-1.5477,-1.6754,-1.7313,-1.8093,-1.904,-1.9251,-1.9552,-1.9965,-1.9965,-2.0067,-2.0271,-2.0321,-2.0372,-2.0372,-2.0321,-2.0067,-1.9774,-1.932,-1.8963,-1.857,-1.815,-1.783,-1.7543,-1.7211,-1.6913,-1.6808,-1.7271,-1.7005,-1.6705,-1.6921,-1.7242,-1.7571,-1.7868,-1.8344,-1.8822,-1.9064,-1.9101,-1.9101,-1.9101,-1.9101,-1.9101,-1.9101,-1.9101,-1.9026,-1.8822,-1.9199,-1.9508,-1.969,-2.01,-2.0429,-2.0794,-2.0794,-2.1134,-2.1919,-2.2,-2.2432,-2.3265,-2.336,-2.3476,-2.3611,-2.4001,-2.421,-2.4282,-2.4749,-2.4964,-2.4964,-2.4889,-2.4889,-2.4964,-2.4884,-2.4959,-2.5101,-2.5101,-2.5125,-2.5138,-2.5176,-2.5195,-2.5206,-2.5195,-2.5203,-2.5191,1.4254,1.43,1.4222,1.4046,1.4078,1.4111,1.4013,1.4046,1.3622,1.2271,1.1995,1.1737,1.126,1.1158,1.113,1.113,0.9799,0.8409,0.7112,0.5988,0.485,0.3846,0.1781,0.0111,-0.1003,-0.3116,-0.5377,-0.7806,-0.8229,-0.9528,-1.1553,-1.1858,-1.2754,-1.4007,-1.442,-1.5594,-1.7257,-1.782,-1.8375,-1.904,-1.9488,-1.9862,-2.0131,-2.0131,-2.022,-2.0372,-2.056,-2.061,-2.0623,-2.0699,-2.0498,-2.0194,-1.9937,-1.972,-1.9458,-1.9113,-1.8533,-1.8072,-1.8135,-1.7648,-1.7235,-1.7719,-1.7183,-1.6565,-1.6565,-1.7173,-1.7747,-1.7787,-1.8461,-1.9064,-1.9101,-1.9101,-1.9101,-1.9101,-1.9101,-1.9101,-1.9101,-1.9101,-1.9026,-1.8822,-1.9101,-1.945,-1.969,-2.005,-2.0395,-2.0794,-2.086,-2.1182,-2.1911,-2.2102,-2.2485,-2.3126,-2.3453,-2.3585,-2.3539,-2.4036,-2.4321,-2.4408,-2.4734,-2.4884,-2.4884,-2.4836,-2.4832,-2.4898,-2.4842,-2.4912,-2.5095,-2.5114,-2.5149,-2.5212,-2.5209,-2.5209,-2.5212,-2.5209,-2.5195,-2.5203,1.4254,1.43,1.3735,1.1945,1.239,1.2672,1.1763,1.2211,1.2342,1.1468,1.1774,1.1859,1.126,1.1185,1.1185,1.1185,1.0067,0.8792,0.7475,0.6244,0.497,0.3671,0.1613,0.0167,-0.056,-0.2952,-0.543,-0.7971,-0.8528,-0.9661,-1.1365,-1.1981,-1.2866,-1.3921,-1.4477,-1.5706,-1.7457,-1.7435,-1.8038,-1.8987,-1.8857,-1.9121,-1.9577,-1.9668,-1.9862,-2.0156,-2.0459,-2.0723,-2.0885,-2.0875,-2.0725,-2.0573,-2.0505,-2.0466,-2.0299,-1.9773,-1.9525,-1.9282,-1.8858,-1.8278,-1.7904,-1.8034,-1.7466,-1.6947,-1.7227,-1.7338,-1.7476,-1.7747,-1.8226,-1.8745,-1.9026,-1.9101,-1.9101,-1.9101,-1.9101,-1.9101,-1.9101,-1.904,-1.8979,-1.8822,-1.8851,-1.9078,-1.9654,-2.0308,-2.0712,-2.0877,-2.1213,-2.1698,-2.2341,-2.2703,-2.3111,-2.3634,-2.3656,-2.3696,-2.3721,-2.4075,-2.4266,-2.4339,-2.4657,-2.4808,-2.4808,-2.4802,-2.4832,-2.4898,-2.4893,-2.4955,-2.5091,-2.5157,-2.5212,-2.5283,-2.5282,-2.5282,-2.5282,-2.5212,-2.5201,-2.519,1.3555,1.3387,1.2847,1.1752,1.1605,1.1594,1.1442,1.1825,1.1995,1.1664,1.192,1.1932,1.141,1.1298,1.1147,1.0794,0.9991,0.8906,0.7474,0.656,0.5283,0.3669,0.189,0.0557,-0.0392,-0.2841,-0.4945,-0.6697,-0.8113,-0.9464,-1.0705,-1.1502,-1.2446,-1.3362,-1.4099,-1.5145,-1.6467,-1.7136,-1.7886,-1.8643,-1.8372,-1.8799,-1.9527,-1.9165,-1.9317,-1.9786,-2.0144,-2.0359,-2.0372,-2.0093,-2.0144,-2.0283,-2.0283,-2.0498,-2.0646,-2.0296,-1.996,-1.9673,-1.942,-1.8878,-1.8416,-1.8403,-1.7917,-1.7411,-1.7306,-1.7297,-1.7353,-1.753,-1.7894,-1.8226,-1.8422,-1.8669,-1.8822,-1.8822,-1.8988,-1.9101,-1.9101,-1.9078,-1.9003,-1.8822,-1.876,-1.8988,-1.9654,-2.0376,-2.086,-2.099,-2.1323,-2.1774,-2.2368,-2.2772,-2.3177,-2.3634,-2.3678,-2.3721,-2.3743,-2.4095,-2.4266,-2.4303,-2.4645,-2.4798,-2.4794,-2.4802,-2.4846,-2.494,-2.4934,-2.5019,-2.5149,-2.5182,-2.5243,-2.5303,-2.5302,-2.5311,-2.5282,-2.5222,-2.5192,-2.5212,1.2531,1.2247,1.1995,1.2008,1.1297,1.0981,1.1678,1.1825,1.1909,1.1982,1.2066,1.1932,1.156,1.1459,1.1147,1.04,0.9834,0.8898,0.7414,0.6811,0.5599,0.3613,0.2389,0.1056,-0.0391,-0.2617,-0.4347,-0.5346,-0.7576,-0.9145,-1.0046,-1.1003,-1.1886,-1.2746,-1.3666,-1.4532,-1.5416,-1.6994,-1.7863,-1.8116,-1.8001,-1.8537,-1.9342,-1.8507,-1.8627,-1.9294,-1.9521,-1.951,-1.9357,-1.8906,-1.9071,-1.9558,-1.9558,-1.9864,-2.0256,-2.0472,-2.0034,-1.9558,-1.9869,-1.9491,-1.8955,-1.8895,-1.8455,-1.7886,-1.7273,-1.7167,-1.7229,-1.7312,-1.753,-1.7747,-1.7787,-1.8108,-1.8422,-1.85,-1.8784,-1.9026,-1.9101,-1.9064,-1.8988,-1.8822,-1.8822,-1.9087,-1.9639,-2.0308,-2.0827,-2.1103,-2.1324,-2.1718,-2.2231,-2.2686,-2.3056,-2.3453,-2.3611,-2.37,-2.3721,-2.4075,-2.4247,-2.4266,-2.4582,-2.4738,-2.4794,-2.4802,-2.4875,-2.4993,-2.5006,-2.5094,-2.5192,-2.5203,-2.5253,-2.5303,-2.5302,-2.5292,-2.5292,-2.5233,-2.5222,-2.5222,1.163,1.174,1.163,1.1002,1.1132,1.1234,1.1002,1.1115,1.1228,1.1266,1.1463,1.156,1.1522,1.1485,1.125,1.0621,0.9942,0.8965,0.7549,0.6859,0.5544,0.3442,0.2726,0.1503,-0.0336,-0.2119,-0.3893,-0.5571,-0.7692,-0.9145,-1.0046,-1.0883,-1.1827,-1.2746,-1.3552,-1.4457,-1.5385,-1.7038,-1.7508,-1.7315,-1.7572,-1.7843,-1.8037,-1.7625,-1.7981,-1.8643,-1.8178,-1.7922,-1.7812,-1.7727,-1.803,-1.8418,-1.8418,-1.8406,-1.8592,-1.9597,-1.946,-1.9244,-2.0302,-2.0126,-1.9647,-1.9503,-1.9003,-1.8422,-1.7779,-1.7265,-1.7031,-1.7229,-1.7353,-1.7449,-1.7747,-1.7828,-1.8028,-1.8422,-1.8553,-1.8707,-1.9064,-1.8936,-1.8822,-1.8784,-1.8936,-1.925,-1.9654,-2.005,-2.053,-2.1135,-2.1538,-2.189,-2.2192,-2.2857,-2.3259,-2.3324,-2.3571,-2.3721,-2.3783,-2.3974,-2.4056,-2.4133,-2.4284,-2.4512,-2.4794,-2.4813,-2.487,-2.4993,-2.5057,-2.5141,-2.5192,-2.5264,-2.5284,-2.5303,-2.5303,-2.5303,-2.5303,-2.5293,-2.5293,-2.5274,1.1094,1.1094,1.1019,1.0697,1.0802,1.0905,1.0764,1.0888,1.1002,1.1078,1.1298,1.1459,1.1459,1.1485,1.125,1.0659,0.9981,0.919,0.8175,0.7151,0.5851,0.4094,0.3106,0.1667,-0.0336,-0.1785,-0.3251,-0.4713,-0.717,-0.8599,-0.9022,-1.0439,-1.1322,-1.1783,-1.2668,-1.3654,-1.473,-1.5972,-1.6829,-1.7242,-1.6865,-1.6956,-1.7213,-1.6454,-1.6558,-1.7117,-1.6773,-1.6799,-1.6985,-1.6639,-1.6888,-1.7388,-1.7388,-1.7514,-1.7908,-1.8655,-1.8498,-1.8314,-1.9775,-1.971,-1.9277,-1.9607,-1.9214,-1.8584,-1.8104,-1.7531,-1.7031,-1.6976,-1.6976,-1.7018,-1.7157,-1.738,-1.7612,-1.7908,-1.8266,-1.8592,-1.8784,-1.8874,-1.8851,-1.8774,-1.9049,-1.9406,-1.9788,-2.0243,-2.0778,-2.1373,-2.1675,-2.1965,-2.2192,-2.2841,-2.3206,-2.3301,-2.3611,-2.3765,-2.381,-2.3978,-2.4077,-2.4096,-2.4266,-2.4425,-2.454,-2.4685,-2.4818,-2.4947,-2.5099,-2.519,-2.5253,-2.5293,-2.5303,-2.5303,-2.5303,-2.5303,-2.5303,-2.5303,-2.5293,-2.5243]},{"header":{"parameterUnit":"m.s-1","parameterCategory":1,"la1":30.6,"la2":28.766,"lo1":-90.7593,"lo2":-88.6598,"dy":0.0162,"dx":0.0183,"nx":116,"ny":114,"refTime":"2024-06-28T12:00:00:Z","depth":0,"parameterNumber":3,"parameterNumberName":"V-component_of_WINDS"},"data":[0.0,0.0,0.0,0.0,0.0,0.0,0.0,0.0,0.0,0.0,0.0,0.0,0.0,0.0,0.0,0.0,0.0,0.0,0.0,0.0,0.0,0.0,0.0,0.0,0.0,0.0,0.0,0.0,0.0,0.0,0.0,0.0,0.0,0.0,0.0,0.0,0.0,0.0,0.0,0.0,0.0,0.0,0.0,0.0,0.0,0.0,0.0,0.0,0.0,0.0,0.0,0.0,0.0,0.0,0.0,0.0,0.0,0.0,0.0,0.0,0.0,0.0,0.0,0.0,0.0,0.0,0.0,0.0,0.0,0.0,0.0,0.0,0.0,0.0,0.0,0.0,0.0,0.0,0.0,0.0,0.0,0.0,0.0,0.0,0.0,0.0,0.0,0.0,0.0,0.0,0.0,0.0,0.0,0.0,0.0,0.0,0.0,0.0,0.0,0.0,0.0,0.0,0.0,0.0,0.0,0.0,0.0,0.0,0.0,0.0,0.0,0.0,0.0,0.0,0.0,0.0,0.0,0.0,0.0,0.0,0.0,0.0,0.0,0.0,0.0,0.0,0.0,0.0,0.0,0.0,0.0,0.0,0.0,0.0,0.0,0.0,0.0,0.0,0.0,0.0,0.0,0.0,0.0,0.0,0.0,0.0,0.0,0.0,0.0,0.0,0.0,0.0,0.0,0.0,0.0,0.0,0.0,0.0,0.0,0.0,0.0,0.0,0.0,0.0,0.0,0.0,0.0,0.0,0.0,0.0,0.0,0.0,0.0,0.0,0.0,0.0,0.0,0.0,0.0,0.0,0.0,0.0,0.0,0.0,0.0,0.0,0.0,0.0,0.0,0.0,0.0,0.0,0.0,0.0,0.0,0.0,0.0,0.0,0.0,0.0,0.0,0.0,0.0,0.0,0.0,0.0,0.0,0.0,0.0,0.0,0.0,0.0,0.0,0.0,0.0,0.0,0.0,0.0,0.0,0.0,0.0,0.0,0.0,0.0,0.0,0.0,0.0,0.0,0.0,0.0,0.0,0.0,0.0,0.0,0.0,0.0,0.0,0.0,0.0,0.0,0.0,0.0,0.0,0.0,0.0,0.0,0.0,0.0,0.0,0.0,0.0,0.0,0.0,0.0,0.0,0.0,0.0,0.0,0.0,0.0,0.0,0.0,0.0,0.0,0.0,0.0,0.0,0.0,0.0,0.0,0.0,0.0,0.0,0.0,0.0,0.0,0.0,0.0,0.0,0.0,0.0,0.0,0.0,0.0,0.0,0.0,0.0,0.0,0.0,0.0,0.0,0.0,0.0,0.0,0.0,0.0,0.0,0.0,0.0,0.0,0.0,0.0,0.0,0.0,0.0,0.0,0.0,0.0,0.0,0.0,0.0,0.0,0.0,0.0,0.0,0.0,0.0,0.0,0.0,0.0,0.0,0.0,0.0,0.0,0.0,0.0,0.0,0.0,0.0,0.0,0.0,0.0,0.0,0.0,0.0,0.0,0.0,0.0,0.0,0.0,0.0,0.0,0.0,0.0,0.0,0.0,0.0,0.0,0.0,0.0,0.0,0.0,0.0,0.0,0.0,0.0,0.0,0.0,0.0,0.0,0.0,0.0,0.0,0.0,0.0,0.0,0.0,0.0,0.0,0.0,0.0,0.0,0.0,0.0,0.0,0.0,0.0,0.0,0.0,0.0,0.0,0.0,0.0,0.0,0.0,0.0,0.0,0.0,0.0,0.0,0.0,0.0,0.0,0.0,0.0,0.0,0.0,0.0,0.0,0.0,0.0,0.0,0.0,0.0,0.0,0.0,0.0,0.0,0.0,0.0,0.0,0.0,0.0,0.0,0.0,0.0,0.0,0.0,0.0,0.0,0.0,0.0,0.0,0.0,0.0,0.0,0.0,0.0,0.0,0.0,0.0,0.0,0.0,0.0,0.0,0.0,0.0,0.0,0.0,0.0,0.0,0.0,0.0,0.0,0.0,0.0,0.0,0.0,0.0,0.0,0.0,0.0,0.0,0.0,0.0,0.0,0.0,0.0,0.0,0.0,0.0,0.0,0.0,0.0,0.0,0.0,0.0,0.0,0.0,0.0,0.0,0.0,0.0,0.0,0.0,0.0,0.0,0.0,0.0,0.0,0.0,0.0,0.0,0.0,0.0,0.0,0.0,0.0,0.0,0.0,0.0,0.0,0.0,0.0,0.0,0.0,0.0,0.0,0.0,0.0,0.0,0.0,0.0,0.0,0.0,0.0,0.0,0.0,0.0,0.0,0.0,0.0,0.0,0.0,0.0,0.0,0.0,0.0,0.0,0.0,0.0,0.0,0.0,0.0,0.0,0.0,0.0,0.0,0.0,0.0,0.0,0.0,0.0,0.0,0.0,0.0,0.0,0.0,0.0,0.0,0.0,0.0,0.0,0.0,0.0,0.0,0.0,0.0,0.0,0.0,0.0,0.0,0.0,0.0,0.0,0.0,0.0,0.0,0.0,0.0,0.0,0.0,0.0,0.0,0.0,0.0,0.0,0.0,0.0,0.0,0.0,0.0,0.0,0.0,0.0,0.0,0.0,0.0,0.0,0.0,0.0,0.0,0.0,0.0,0.0,0.0,0.0,0.0,0.0,0.0,0.0,0.0,0.0,0.0,0.0,0.0,0.0,0.0,0.0,0.0,0.0,0.0,0.0,0.0,0.0,0.0,0.0,0.0,0.0,0.0,0.0,0.0,0.0,0.0,0.0,0.0,0.0,0.0,0.0,0.0,0.0,0.0,0.0,0.0,0.0,0.0,0.0,0.0,0.0,0.0,0.0,0.0,0.0,0.0,0.0,0.0,0.0,0.0,0.0,0.0,0.0,0.0,0.0,0.0,0.0,0.0,0.0,0.0,0.0,0.0,0.0,0.0,0.0,0.0,0.0,0.0,0.0,0.0,0.0,0.0,0.0,0.0,0.0,0.0,0.0,0.0,0.0,0.0,0.0,0.0,0.0,0.0,0.0,0.0,0.0,0.0,0.0,0.0,0.0,0.0,0.0,0.0,0.0,0.0,0.0,0.0,0.0,0.0,0.0,0.0,0.0,0.0,0.0,0.0,0.0,0.0,0.0,0.0,0.0,0.0,0.0,0.0,0.0,0.0,0.0,0.0,0.0,0.0,0.0,0.0,0.0,0.0,0.0,0.0,0.0,0.0,0.0,0.0,0.0,0.0,0.0,0.0,0.0,0.0,0.0,0.0,0.0,0.0,0.0,0.0,0.0,0.0,0.0,0.0,0.0,0.0,0.0,0.0,0.0,0.0,0.0,0.0,0.0,0.0,0.0,0.0,0.0,0.0,0.0,0.0,0.0,0.0,0.0,0.0,0.0,0.0,0.0,0.0,0.0,0.0,0.0,0.0,0.0,0.0,0.0,0.0,0.0,0.0,0.0,0.0,0.0,0.0,0.0,0.0,0.0,0.0,0.0,0.0,0.0,0.0,0.0,0.0,0.0,0.0,0.0,0.0,0.0,0.0,0.0,0.0,0.0,0.0,0.0,0.0,0.0,0.0,0.0,0.0,0.0,0.0,0.0,0.0,0.0,0.0,0.0,0.0,0.0,0.0,0.0,0.0,0.0,0.0,0.0,0.0,0.0,0.0,0.0,0.0,0.0,0.0,0.0,0.0,0.0,0.0,0.0,0.0,0.0,0.0,0.0,0.0,0.0,0.0,0.0,0.0,0.0,0.0,0.0,0.0,0.0,0.0,0.0,0.0,0.0,0.0,0.0,0.0,0.0,0.0,0.0,0.0,0.0,0.0,0.0,0.0,0.0,0.0,0.0,0.0,0.0,0.0,0.0,0.0,0.0,0.0,0.0,0.0,0.0,0.0,0.0,0.0,0.0,0.0,0.0,0.0,0.0,0.0,0.0,0.0,0.0,0.0,0.0,0.0,0.0,0.0,0.0,0.0,0.0,0.0,0.0,0.0,0.0,0.0,0.0,0.0,0.0,0.0,0.0,0.0,0.0,0.0,0.0,0.0,0.0,0.0,0.0,0.0,0.0,0.0,0.0,0.0,0.0,0.0,0.0,0.0,0.0,0.0,0.0,0.0,0.0,0.0,0.0,0.0,0.0,0.0,0.0,0.0,0.0,0.0,0.0,0.0,0.0,0.0,0.0,0.0,0.0,0.0,0.0,0.0,0.0,0.0,0.0,0.0,0.0,0.0,0.0,0.0,0.0,0.0,0.0,0.0,0.0,0.0,0.0,0.0,0.0,0.0,0.0,0.0,0.0,0.0,0.0,0.0,0.0,0.0,0.0,0.0,0.0,0.0,0.0,0.0,0.0,0.0,0.0,0.0,0.0,0.0,0.0,0.0,0.0,0.0,0.0,0.0,0.0,0.0,0.0,0.0,0.0,0.0,0.0,0.0,0.0,0.0,0.0,0.0,0.0,0.0,0.0,0.0,0.0,0.0,0.0,0.0,0.0,0.0,0.0,0.0,0.0,0.0,0.0,0.0,0.0,0.0,0.0,0.0,0.0,0.0,0.0,0.0,0.0,0.0,0.0,0.0,0.0,0.0,0.0,0.0,0.0,0.0,0.0,0.0,0.0,0.0,0.0,0.0,0.0,0.0,0.0,0.0,0.0,0.0,0.0,0.0,0.0,0.0,0.0,0.0,0.0,0.0,0.0,0.0,0.0,0.0,0.0,0.0,0.0,0.0,0.0,0.0,0.0,0.0,0.0,0.0,0.0,0.0,0.0,0.0,0.0,0.0,0.0,0.0,0.0,0.0,0.0,0.0,0.0,0.0,0.0,0.0,0.0,0.0,0.0,0.0,0.0,0.0,0.0,0.0,0.0,0.0,0.0,0.0,0.0,0.0,0.0,0.0,0.0,0.0,0.0,0.0,0.0,0.0,0.0,0.0,0.0,0.0,0.0,0.0,0.0,0.0,0.0,0.0,0.0,0.0,0.0,0.0,0.0,0.0,0.0,0.0,0.0,0.0,0.0,0.0,0.0,0.0,0.0,0.0,0.0,0.0,0.0,0.0,0.0,0.0,0.0,0.0,0.0,0.0,0.0,0.0,0.0,0.0,0.0,0.0,0.0,0.0,0.0,0.0,0.0,0.0,0.0,0.0,0.0,0.0,0.0,0.0,0.0,0.0,0.0,0.0,0.0,0.0,0.0,0.0,0.0,0.0,0.0,0.0,0.0,0.0,0.0,0.0,0.0,0.0,0.0,0.0,0.0,0.0,0.0,0.0,0.0,0.0,0.0,0.0,0.0,0.0,0.0,0.0,0.0,0.0,0.0,0.0,0.0,0.0,0.0,0.0,0.0,0.0,0.0,0.0,0.0,0.0,0.0,0.0,0.0,0.0,0.0,0.0,0.0,0.0,0.0,0.0,0.0,0.0,0.0,0.0,0.0,0.0,0.0,0.0,0.0,0.0,0.0,0.0,0.0,0.0,0.0,0.0,0.0,0.0,0.0,0.0,0.0,0.0,0.0,0.0,0.0,0.0,0.0,0.0,0.0,0.0,0.0,0.0,0.0,0.0,0.0,0.0,0.0,0.0,0.0,0.0,0.0,0.0,0.0,0.0,0.0,0.0,0.0,0.0,0.0,0.0,0.0,0.0,0.0,0.0,0.0,0.0,0.0,0.0,0.0,0.0,0.0,0.0,0.0,0.0,0.0,0.0,0.0,0.0,0.0,0.0,0.0,0.0,0.0,0.0,0.0,0.0,0.0,0.0,0.0,0.0,0.0,0.0,0.0,0.0,0.0,0.0,0.0,0.0,0.0,0.0,0.0,0.0,0.0,0.0,0.0,0.0,0.0,0.0,0.0,0.0,0.0,0.0,0.0,0.0,0.0,0.0,0.0,0.0,0.0,0.0,0.0,0.0,0.0,0.0,0.0,0.0,0.0,0.0,0.0,0.0,0.0,0.0,0.0,0.0,0.0,0.0,0.0,0.0,0.0,0.0,0.0,0.0,0.0,0.0,0.0,0.0,0.0,0.0,0.0,0.0,0.0,0.0,0.0,0.0,0.0,0.0,0.0,0.0,0.0,0.0,0.0,0.0,0.0,0.0,0.0,0.0,0.0,0.0,0.0,0.0,0.0,0.0,0.0,0.0,0.0,0.0,0.0,0.0,0.0,0.0,-0.4102,0.0,0.0,0.0,0.0,0.0,0.0,0.0,0.0,0.0,0.0,0.0,0.0,0.0,0.0,0.0,0.0,0.0,0.0,0.0,0.0,0.0,0.0,0.0,0.0,-0.3848,-0.3987,-0.3899,-0.4189,-0.4141,-0.3567,0.0,0.0,0.0,0.0,0.0,0.0945,0.1284,0.2202,0.3776,0.4325,0.4527,0.4395,0.4085,0.3788,0.3498,0.0,0.0,0.0,0.0,0.0,0.0,0.0,0.0,0.0,0.0,0.0,0.0,0.0,0.0,0.0,0.0,0.0,0.0,0.0,0.0,0.0,0.0,0.0,0.0,0.0,0.0,0.0,0.0,0.0,0.0,0.0,0.0,0.0,0.0,0.0,0.0,0.0,0.0,0.0,0.0,0.0,0.0,0.0,0.0,0.0,0.0,0.0,0.0,0.0,0.0,0.0,0.0,0.0,0.0,0.0,0.0,0.0,0.0,0.0,0.0,0.0,0.0,0.0,0.0,0.0,0.0,0.0,0.0,0.0,0.0,0.0,-0.4658,0.0,0.0,0.0,0.0,0.0,0.0,0.0,0.0,0.0,0.0,0.0,0.0,0.0,0.0,0.0,0.0,0.0,0.0,0.0,0.0,0.0,-0.3678,-0.3963,-0.4444,-0.4676,-0.4493,-0.4918,-0.4866,-0.4107,0.0,0.0,0.0,0.0,-0.081,0.1028,0.1442,0.2462,0.4161,0.4429,0.449,0.4319,0.3421,0.2999,0.0,0.2743,0.0,0.0,0.0,0.0,0.0,0.0,0.0,0.0,0.0,0.0,0.0,0.0,0.0,0.0,0.0,0.0,0.0,0.0,0.0,0.0,0.0,0.0,0.0,0.0,0.0,0.0,0.0,0.0,0.0,0.0,0.0,0.0,0.0,0.0,0.0,0.0,0.0,0.0,0.0,0.0,0.0,0.0,0.0,0.0,0.0,0.0,0.0,0.0,0.0,0.0,0.0,0.0,0.0,0.0,0.0,0.0,0.0,0.0,0.0,0.0,0.0,0.0,0.0,-0.6133,-0.644,-0.6753,-0.6371,-0.6226,-0.6272,-0.5718,-0.5578,-0.5752,-0.5388,0.0,0.0,0.0,0.0,0.0,0.0,0.0,0.0,0.0,0.0,0.0,0.0,0.0,0.0,0.0,0.0,0.0,0.0,0.0,-0.4082,-0.4681,-0.4886,-0.5215,-0.5869,-0.5954,-0.5593,-0.4742,0.0,0.0,0.0,-0.2417,-0.1701,-0.028,0.1082,0.2128,0.2846,0.3911,0.4301,0.4025,0.0,0.0,0.0,0.2455,0.2498,0.0,0.0,0.0,0.0,0.0,0.0,0.0,0.0,0.0,0.0,0.0,0.0,0.0,0.0,0.0,0.0,0.0,0.0,0.0,0.0,0.0,0.0,0.0,0.0,0.0,0.0,0.0,0.0,0.0,0.0,0.0,0.0,0.0,0.0,0.0,0.0,0.0,0.0,0.0,0.0,0.0,0.0,-0.2602,-0.2685,0.0,0.0,0.0,0.0,0.0,0.0,0.0,0.0,0.0,0.0,0.0,0.0,0.0,-0.5062,-0.5404,-0.5907,-0.6079,-0.5922,-0.678,-0.7134,-0.6956,-0.703,-0.705,-0.7034,-0.6961,0.0,-0.6136,-0.6185,0.0,0.0,0.0,0.0,0.0,0.0,0.0,0.0,0.0,0.0,0.0,0.0,0.0,0.0,0.0,0.0,0.0,0.0,0.0,0.0,0.0,-0.5647,-0.6145,-0.6197,-0.652,-0.6492,0.0,0.0,0.0,-0.3548,-0.3077,-0.209,-0.0479,0.0513,0.1658,0.2986,0.3302,0.3287,0.0,0.0,0.0,0.0,0.1653,0.1778,0.0,0.0,0.0,0.0,0.0,0.0,0.0,0.0,0.0,0.0,0.0,0.0,0.0,0.0,0.0,0.0,0.0,0.0,0.0,0.0,0.0,0.0,0.0,0.0,0.0,0.0,0.0,0.0,0.0,0.0,0.0,0.0,0.0,0.0,0.0,0.0,0.0,0.0,0.0,0.0,0.0,-0.2702,-0.3129,-0.2937,-0.3445,-0.3728,0.0,0.0,0.0,0.0,0.0,0.0,0.0,0.0,0.0,-0.5424,-0.5711,-0.614,-0.6841,-0.7334,-0.7529,-0.7413,-0.803,-0.8095,-0.7772,-0.7727,-0.7715,-0.7702,-0.788,-0.7669,-0.7251,-0.6926,-0.7032,-0.7356,0.0,0.0,0.0,0.0,-0.7689,-0.7738,0.0,0.0,0.0,0.0,0.0,0.0,0.0,0.0,0.0,0.0,0.0,0.0,-0.5629,-0.6562,-0.7066,-0.6857,0.0,0.0,0.0,0.0,0.0,-0.4843,-0.4074,-0.2934,-0.1348,-0.0343,0.1134,0.3124,0.2594,0.0,0.0,0.0,0.0,0.0,0.0,0.0,0.0,0.0,0.0,0.0,0.0,0.0,0.0,0.0,0.0,0.0,0.0,0.0,0.0,0.0,0.0,0.0,0.0,0.0,0.0,0.0,0.0,0.0,0.0,0.0,0.0,0.0,0.0,0.0,0.0,0.0,0.0,0.0,0.0,0.0,0.0,0.0,0.0,0.0,0.0,0.0,0.0,-0.3054,-0.3342,-0.3213,-0.3483,-0.368,0.0,0.0,0.0,0.0,0.0,0.0,-0.4816,-0.5092,-0.5523,-0.6178,-0.6639,-0.7268,-0.8143,-0.8474,-0.8665,-0.8744,-0.8919,-0.889,-0.8693,-0.8468,-0.8469,-0.8664,-0.8703,-0.8763,-0.8761,-0.799,-0.7958,-0.8343,-0.7935,-0.8074,-0.8568,-0.8798,-0.9046,-0.933,0.0,0.0,0.0,0.0,0.0,0.0,0.0,0.0,0.0,0.0,0.0,-0.5859,0.0,0.0,0.0,0.0,0.0,0.0,0.0,0.0,0.0,-0.6267,-0.5549,-0.4758,-0.3837,-0.1611,0.0558,0.0,0.0,0.0,0.0,0.0,0.0,0.0,0.0,0.0,0.0,0.0,0.0,0.0,0.0,0.0,0.0,0.0,0.0,0.0,0.0,0.0,0.0,0.0,0.0,0.0,0.0,0.0,0.0,0.0,0.0,0.0,0.0,0.0,0.0,0.0,0.0,0.0,0.0,0.0,0.0,0.0,0.0,0.0,0.0,0.0,0.0,0.0,0.0,0.0,0.0,0.0,0.0,-0.343,-0.3401,0.0,0.0,0.0,0.0,-0.4118,-0.4383,-0.4763,-0.5228,-0.563,-0.6299,-0.7286,-0.7817,-0.8322,-0.8758,-0.8791,-0.8945,-0.9163,-0.9072,-0.9167,-0.9414,-0.9324,-0.9535,-1.0044,-0.9522,-0.9859,-1.0687,-0.9711,-0.9355,-0.9421,-0.9541,-1.0079,-1.0797,-1.0488,-1.0542,-1.0682,0.0,0.0,0.0,-0.4778,-0.4667,-0.4536,-0.4243,-0.4243,-0.4603,-0.545,-0.5782,0.0,0.0,0.0,0.0,0.0,0.0,0.0,0.0,0.0,-0.7969,-0.73,-0.6119,-0.4526,-0.2433,-0.1569,-0.0317,0.0,0.0,0.0,0.0,0.0,0.0,0.0,0.0,0.0,0.0,0.0,0.0,0.0,0.0,0.0,0.0,0.0,0.0,0.0,0.0,0.0,0.0,0.0,0.0,0.0,0.0,0.0,0.0,0.0,0.0,0.0,0.0,0.0,0.0,0.0,0.0,0.0,0.0,0.0,0.0,0.0,0.0,0.0,0.0,0.0,0.0,0.0,0.0,0.0,0.0,0.0,0.0,-0.3455,-0.3893,0.0,-0.4419,-0.4148,-0.4388,-0.5378,-0.5054,-0.5132,-0.5882,-0.64,-0.689,-0.7399,-0.8069,-0.8711,-0.926,-0.9502,-0.9641,-0.9636,-0.9577,-0.9532,-0.9389,-0.9389,-0.9782,-1.0336,-1.0515,-1.0808,-1.1248,-1.1438,-1.1125,-1.0545,-1.0776,-1.1246,-1.1799,-1.1662,-1.1785,-1.2065,-0.4803,-0.4885,0.0,-0.4799,-0.4705,-0.4618,-0.4458,-0.475,-0.5281,-0.6133,-0.6707,-0.7571,0.0,0.0,0.0,0.0,0.0,0.0,0.0,0.0,-0.8663,-0.8383,-0.6938,-0.4843,-0.2068,-0.1979,0.0,0.0,0.0,0.0,0.0,0.0,0.0,0.0,0.0,0.0,0.0,0.0,0.0,0.0,0.0,0.0,-0.0042,0.0,0.0,0.0,0.0,0.0,0.0,0.0,0.0,0.0,0.0,0.0,0.0,0.0,0.0,0.0,0.0,0.0,0.0,0.0,0.0,0.0,0.0,0.0,0.0,0.0,0.0,0.0,0.0,0.0,0.0,0.0,0.0,0.0,0.0,0.0,-0.422,-0.3743,-0.4282,-0.4713,-0.4774,-0.4495,-0.4808,-0.5971,-0.5502,-0.554,-0.6482,-0.6892,-0.7292,-0.7705,-0.8508,-0.9164,-0.9656,-0.9967,-1.0106,-1.0151,-1.0052,-0.9886,-0.9727,-0.9926,-1.034,-1.09,-1.1203,-1.1534,-1.1903,-1.2422,-1.2296,-1.1799,-1.1805,-1.2256,-1.2832,-1.2675,-1.2892,-1.3249,-0.4573,-0.4638,-0.4737,-0.4865,-0.4735,-0.4629,-0.4679,-0.5483,-0.6364,-0.7184,-0.7987,0.0,0.0,0.0,0.0,0.0,0.0,0.0,0.0,-0.9905,-0.9729,-0.9415,-0.7957,-0.5857,-0.3061,0.0,0.0,0.0,0.0,0.0,0.0,0.0,0.0,0.0,0.0,0.0,0.0,0.0,0.0,0.0,0.0,0.0,-0.0539,0.0,0.0,0.0,0.0,0.0,0.0,0.0,0.0,0.0,0.0,0.0,0.0,0.0,0.0,0.0,0.0,0.0,0.0,0.0,0.0,0.0,0.0,0.0,0.0,0.0,0.0,0.0,0.0,0.0,0.0,0.0,0.0,0.0,-0.4231,-0.4464,-0.452,-0.4271,-0.4531,-0.466,-0.4384,-0.4942,-0.545,-0.5831,-0.573,-0.6037,-0.6985,-0.7087,-0.7524,-0.8323,-0.9061,-0.9577,-0.9851,-1.0046,-1.0261,-1.0541,-1.0261,-1.0281,-1.0611,-1.0791,-1.1242,-1.1842,-1.1539,-1.1936,-1.2729,-1.2639,-1.2833,-1.3084,-1.2718,-1.3124,-1.3967,-1.3499,-1.3697,-1.4222,-0.4407,-0.4427,-0.4471,-0.4656,-0.4592,-0.4529,-0.4554,-0.5138,-0.6011,-0.7142,0.0,0.0,0.0,0.0,0.0,0.0,0.0,0.0,-0.9506,0.0,-0.8699,-0.7313,-0.6517,0.0,0.0,0.0,0.0,0.0,0.0,0.0,0.0,0.0,0.0,0.0,0.0,0.0,0.0,0.0,0.0,0.0,0.0,0.0,-0.1044,0.0,0.0,0.0,0.0,0.0,0.0,0.0,0.0,0.0,0.0,0.0,0.0,0.0,0.0,0.0,0.0,0.0,0.0,0.0,0.0,0.0,0.0,0.0,0.0,0.0,0.0,0.0,0.0,0.0,0.0,0.0,0.0,-0.5322,-0.4651,-0.5016,-0.5261,-0.5014,-0.5591,-0.605,-0.6129,-0.5927,-0.6208,-0.7087,-0.6641,-0.6632,-0.7348,-0.7459,-0.7629,-0.7883,-0.854,-0.889,-0.8966,-0.9609,-0.9977,-1.0124,-1.0312,-1.0481,-1.0618,-1.0656,-1.1043,-1.1591,-1.153,-1.2148,-1.3269,-1.3248,-1.349,-1.39,-1.369,-1.3763,-1.3999,-1.3943,-1.3986,-1.4104,-0.4019,-0.4005,-0.4036,-0.4227,-0.4255,-0.424,-0.4257,-0.5069,-0.6016,-0.6896,0.0,0.0,0.0,0.0,0.0,0.0,0.0,0.0,-0.9194,-0.8948,-0.8115,0.0,0.0,0.0,0.0,0.0,0.0,0.0,0.0,0.0,0.0,0.0,0.0,0.0,0.0,0.0,0.0,0.0,0.0,0.0,0.0,0.0,-0.1507,-0.1052,-0.0864,-0.082,-0.0879,-0.099,-0.1209,-0.182,0.0,0.0,0.0,0.0,0.0,0.0,0.0,0.0,0.0,0.0,0.0,0.0,0.0,0.0,0.0,0.0,0.0,0.0,0.0,0.0,0.0,0.0,0.0,0.0,-0.6213,-0.6465,-0.6263,-0.6209,-0.594,-0.5453,-0.6012,-0.6472,-0.6463,-0.6196,-0.6463,-0.7557,-0.7114,-0.7045,-0.7563,-0.7729,-0.7783,-0.7783,-0.8318,-0.8683,-0.8909,-0.959,-1.0004,-1.019,-1.0481,-1.0624,-1.0618,-1.067,-1.0911,-1.1279,-1.1768,-1.2435,-1.3099,-1.3524,-1.3782,0.0,0.0,0.0,0.0,0.0,-1.414,-1.402,-0.3543,-0.3514,-0.3514,-0.3727,-0.3796,-0.3819,-0.383,-0.4996,-0.6048,-0.646,0.0,0.0,0.0,0.0,0.0,0.0,0.0,0.0,0.0,0.0,0.0,-0.6696,0.0,0.0,0.0,0.0,0.0,0.0,0.0,0.0,0.0,0.0,0.0,0.0,0.0,0.0,0.0,0.0,0.0,0.0,0.0,0.0,-0.1938,-0.148,-0.1228,-0.115,-0.1425,-0.15,-0.1592,-0.2573,0.0,0.0,0.0,0.0,0.0,0.0,0.0,0.0,0.0,0.0,0.0,0.0,0.0,0.0,0.0,0.0,0.0,0.0,0.0,0.0,0.0,0.0,0.0,0.0,-0.7224,-0.7553,-0.8254,-0.7562,-0.663,-0.5824,-0.6162,-0.6371,-0.6119,-0.6168,-0.6598,-0.7467,-0.73,-0.7354,-0.7723,0.0,0.0,0.0,0.0,-0.8708,-0.9215,-0.9622,-1.0036,-1.0514,-1.0541,-1.0624,-1.0618,-1.0758,-1.0845,-1.0929,-1.2062,-1.2526,-1.2604,-1.3571,-1.3861,-1.38,-1.4337,-1.4477,-1.443,-1.4269,-1.414,-1.4067,-0.3273,-0.3256,-0.3239,-0.3445,-0.3399,-0.3349,-0.3401,-0.4065,-0.4919,-0.5896,-0.6837,0.0,0.0,0.0,0.0,0.0,0.0,0.0,0.0,0.0,0.0,0.0,0.0,0.0,0.0,0.0,0.0,0.0,0.0,0.0,0.0,0.0,0.0,0.0,0.0,0.0,0.0,0.0,0.0,0.0,0.0,0.0,-0.2369,-0.1527,-0.1242,-0.1254,-0.1153,-0.1357,-0.1772,-0.2626,-0.3133,-0.3466,-0.3856,0.0,0.0,0.0,0.0,0.0,0.0,0.0,0.0,0.0,0.0,0.0,0.0,0.0,0.0,0.0,0.0,0.0,0.0,0.0,0.0,-0.8037,-0.7688,-0.7566,-0.8023,-0.7668,-0.7264,-0.6992,-0.7056,-0.701,-0.6742,-0.7224,-0.7574,-0.767,-0.7735,-0.7794,-0.7842,-0.7783,-0.7723,-0.7723,-0.7728,-0.799,-0.8539,-0.8976,-0.949,-1.003,0.0,0.0,-1.0618,-1.062,-1.0643,-1.0636,-1.1286,-1.2012,-1.2789,-1.328,-1.4045,-1.4777,-1.4291,-1.4302,-1.4534,-1.4419,-1.4326,-1.4337,-0.251,-0.2632,-0.2744,-0.2874,-0.2847,-0.2809,-0.2845,-0.3417,-0.4256,-0.5389,-0.6249,0.0,0.0,0.0,0.0,0.0,0.0,0.0,0.0,0.0,0.0,0.0,0.0,0.0,0.0,0.0,0.0,0.0,0.0,0.0,0.0,0.0,0.0,0.0,0.0,0.0,0.0,0.0,0.0,0.0,0.0,0.0,-0.2666,-0.1754,-0.142,-0.1445,-0.1384,-0.1655,-0.2151,-0.2743,-0.3113,-0.3352,-0.3661,-0.3743,-0.3793,0.0,0.0,0.0,0.0,0.0,0.0,0.0,0.0,0.0,0.0,0.0,0.0,0.0,0.0,-0.7593,0.0,0.0,-0.8151,-0.8286,-0.7948,-0.7872,-0.8488,-0.8105,-0.7494,-0.6933,-0.7131,-0.7211,-0.691,-0.7318,-0.7622,-0.767,-0.7842,-0.7848,-0.7681,-0.7913,-0.8038,-0.8038,-0.8275,-0.8644,-0.9155,-0.9354,-0.9745,-1.0279,-1.0488,-1.0624,-1.0624,-1.0688,-1.0698,-1.0756,-1.1795,-1.24,-1.2715,-1.3481,-1.4217,-1.48,-1.4477,-1.4569,-1.4846,-1.4697,-1.464,-1.464,-0.183,-0.1984,-0.2168,-0.2304,-0.2334,-0.2344,-0.2354,-0.2928,-0.3777,-0.4928,-0.576,-0.6753,-0.8078,-0.8327,-0.8359,0.0,0.0,0.0,0.0,0.0,0.0,0.0,0.0,0.0,0.0,0.0,0.0,0.0,0.0,0.0,0.0,0.0,0.0,0.0,0.0,0.0,0.0,0.0,0.0,0.0,0.0,0.0,-0.2589,-0.1974,-0.174,-0.174,-0.1744,-0.2034,-0.2492,-0.2968,-0.3136,-0.3155,-0.3425,-0.3496,-0.3563,-0.3945,-0.3999,0.0,0.0,0.0,0.0,0.0,0.0,0.0,0.0,0.0,-0.7831,-0.806,-0.8303,-0.8317,-0.7874,-0.8222,-0.8595,-0.8666,-0.8334,-0.8325,-0.9146,-0.8318,-0.734,-0.6607,-0.7074,-0.7362,-0.6915,-0.7235,-0.7561,-0.7676,-0.7776,-0.768,-0.7521,-0.7973,-0.8288,-0.8353,-0.8895,-0.94,-0.9877,-0.9877,-1.0082,-1.0624,-1.0624,-1.0624,-1.0618,-1.0683,-1.0847,-1.1056,-1.2629,-1.3148,-1.2938,-1.3888,-1.4466,-1.4719,-1.4708,-1.4891,-1.5108,-1.4915,-1.4869,-1.496,-0.1858,-0.1677,-0.1611,-0.1982,-0.2092,-0.2161,-0.2215,-0.2588,-0.3307,-0.4506,-0.5261,-0.6181,-0.746,-0.7878,-0.7904,-0.7547,0.0,0.0,0.0,0.0,0.0,0.0,0.0,0.0,0.0,0.0,0.0,0.0,0.0,0.0,0.0,0.0,0.0,0.0,0.0,0.0,0.0,0.0,0.0,0.0,0.0,0.0,-0.1859,-0.2181,-0.2308,-0.2275,-0.2045,-0.2197,-0.26,-0.3354,-0.358,-0.3615,-0.4048,-0.4178,-0.4191,-0.4179,0.0,-0.4815,-0.6136,-0.7066,0.0,-0.8333,-0.8001,-0.7858,0.0,0.0,-0.882,-0.9073,-0.9043,-0.903,-0.9137,-0.9327,-0.9629,-1.0256,-0.9326,-0.8738,-0.9299,-0.7774,-0.6644,-0.691,-0.7705,-0.784,-0.7007,-0.7682,-0.8031,-0.7741,-0.7489,-0.7406,-0.7478,-0.7665,-0.7929,-0.8235,-0.8664,-0.911,-0.9736,-0.9743,-1.0014,-1.0624,-1.0624,-1.0624,-1.0611,-1.052,-1.0813,-1.1367,-1.2916,-1.3793,-1.4204,-1.4534,-1.4891,-1.5176,-1.4765,-1.4891,-1.5222,-1.48,-1.48,-1.5062,-0.1603,-0.1464,-0.1384,-0.1517,-0.1618,-0.1754,-0.1938,-0.2276,-0.3012,-0.4416,-0.4985,-0.5754,-0.7056,-0.7195,-0.7182,-0.7166,-0.7152,0.0,0.0,0.0,0.0,0.0,0.0,0.0,0.0,0.0,0.0,0.0,0.0,0.0,0.0,0.0,0.0,0.0,0.0,0.0,0.0,0.0,0.0,0.0,0.0,0.0,-0.2338,-0.227,-0.2391,-0.2572,-0.2105,-0.2133,0.0,0.0,-0.2976,-0.3048,-0.3555,-0.3794,-0.3924,-0.4097,-0.4595,0.0,-0.6836,0.0,0.0,0.0,-0.916,-0.9156,-1.0154,-1.0101,-0.9996,-1.0267,-1.0189,-0.9923,-0.9561,-0.9372,-0.9256,0.0,-0.8749,-0.8459,-0.8957,-0.7931,-0.7141,-0.7149,-0.7729,-0.7852,-0.7225,-0.7606,-0.7678,-0.7079,-0.6887,-0.6619,-0.6263,-0.7406,-0.8089,-0.8045,-0.9222,-0.994,-1.0243,-1.0243,-1.0372,-1.0618,-1.0567,-1.054,-1.0527,-1.0649,-1.122,-1.2245,-1.2809,-1.3589,-1.4523,-1.4616,-1.4708,-1.4754,-1.4673,-1.4662,-1.4754,-1.4616,-1.48,-1.5108,-0.1443,-0.1297,-0.1182,-0.1177,-0.1314,-0.1512,-0.1792,-0.2291,-0.308,-0.4321,-0.4941,-0.5653,-0.6711,-0.663,-0.6561,-0.6731,-0.6613,-0.6596,0.0,0.0,0.0,0.0,0.0,0.0,0.0,0.0,0.0,0.0,0.0,0.0,0.0,0.0,0.0,0.0,0.0,0.0,0.0,0.0,0.0,0.0,0.0,0.0,-0.2571,-0.2245,-0.2295,-0.2476,-0.2087,-0.2101,0.0,0.0,-0.2572,-0.2712,-0.313,-0.3437,-0.3731,-0.405,-0.5068,-0.6273,-0.7256,0.0,0.0,-0.9579,-0.9926,-1.0153,-1.0812,-1.0947,-1.0935,-1.1007,-1.0739,-1.0344,-0.9695,-0.9283,0.0,-0.8731,-0.847,-0.8514,-0.9117,-0.8302,-0.7692,-0.767,-0.7835,-0.7775,-0.7365,-0.7526,-0.7415,-0.6804,-0.6361,-0.5876,-0.5336,-0.7118,-0.8093,-0.7903,-0.9686,-1.0624,-1.0624,-1.0624,-1.0577,-1.0559,-1.0512,-1.0534,-1.0628,-1.1009,-1.1797,-1.29,-1.2949,-1.36,-1.4523,-1.4523,-1.4523,-1.443,-1.4384,-1.4384,-1.4326,-1.4337,-1.4605,-1.5051,-0.1453,-0.1177,-0.0951,-0.1075,-0.1324,-0.1592,-0.1861,-0.2784,-0.3653,-0.4147,-0.519,-0.6015,-0.6379,-0.6295,-0.6189,-0.613,-0.623,-0.6401,-0.66,-0.6436,0.0,0.0,0.0,0.0,0.0,0.0,0.0,0.0,0.0,0.0,0.0,0.0,0.0,0.0,0.0,0.0,0.0,0.0,0.0,0.0,0.0,0.0,-0.2142,-0.2179,-0.2032,-0.1843,-0.2029,0.0,0.0,0.0,-0.2767,-0.3004,-0.3163,-0.3473,0.0,-0.4192,-0.5788,0.0,0.0,0.0,-0.9412,-0.957,-1.0034,-1.0561,-1.0847,-1.1292,-1.1543,-1.1006,-1.0438,-0.9917,-0.9666,-0.9206,-0.9061,-0.9575,-0.9207,-0.917,-1.0024,-0.8867,-0.8036,-0.8514,-0.8169,-0.7765,0.0,-0.7469,-0.7472,-0.7128,-0.5992,-0.5345,-0.5285,-0.6726,-0.7644,-0.7908,-0.9686,-1.0624,-1.0624,-1.0624,-1.0594,-1.0476,-1.0523,-1.0666,-1.0944,-1.1842,-1.2443,-1.2832,-1.3621,-1.415,-1.443,-1.443,-1.4477,-1.4534,-1.401,-1.3999,-1.4176,-1.3752,-1.4176,-1.4903,-0.1485,-0.1286,-0.1116,-0.1156,-0.1384,-0.1674,-0.1987,-0.2645,-0.339,-0.4164,-0.5255,0.0,0.0,0.0,0.0,0.0,-0.6165,-0.623,-0.6388,-0.6634,0.0,0.0,0.0,0.0,0.0,0.0,0.0,0.0,0.0,0.0,0.0,0.0,0.0,0.0,0.0,0.0,0.0,0.0,0.0,0.0,0.0,0.0,-0.1976,-0.2104,-0.1987,-0.1817,0.0,0.0,0.0,0.0,0.0,0.0,-0.2735,0.0,0.0,-0.5299,0.0,0.0,0.0,0.0,-0.942,-0.9996,-1.0254,-1.0572,-1.1392,-1.1427,-1.1368,-1.1528,-1.0905,-1.0302,-1.0179,-0.9365,-0.898,-0.9523,-0.9066,-0.8889,-0.9566,-0.8738,-0.8036,-0.8005,-0.7955,0.0,0.0,0.0,0.0,-0.6436,-0.5885,-0.5286,-0.4463,-0.631,-0.7346,-0.7344,-0.9075,-1.0187,-1.0561,-1.0555,-1.0519,-1.0523,-1.0755,-1.1138,-1.1592,-1.1619,-1.1986,-1.254,-1.3016,-1.3457,-1.3905,-1.4233,-1.4337,-1.4161,-1.401,-1.3915,-1.3952,-1.4197,-1.4373,-1.4605,-0.1427,-0.1308,-0.1243,-0.1357,-0.1586,0.0,0.0,0.0,0.0,0.0,0.0,0.0,0.0,0.0,0.0,0.0,0.0,-0.6045,-0.6183,0.0,0.0,0.0,0.0,0.0,0.0,0.0,0.0,0.0,0.0,0.0,0.0,0.0,0.0,0.0,0.0,0.0,0.0,0.0,0.0,0.0,0.0,0.0,-0.192,-0.1818,-0.1715,0.0,0.0,0.0,0.0,0.0,0.0,0.0,0.0,0.0,0.0,0.0,0.0,-0.6849,0.0,-0.8789,-0.9252,-0.969,-1.01,-1.049,-1.0956,-1.1173,-1.1283,-1.1344,-1.0802,-1.0273,-1.0067,-0.9113,-0.8558,-0.8947,-0.858,-0.8442,-0.9172,-0.8604,-0.8184,-0.8255,-0.8101,-0.7895,0.0,0.0,0.0,-0.6317,-0.5941,-0.534,-0.4463,-0.6126,-0.726,-0.7433,-0.8951,-1.0051,-1.0659,-1.0646,-1.0657,-1.0707,-1.1169,-1.155,-1.1877,-1.1778,-1.2116,-1.2745,-1.2871,-1.3256,-1.3847,-1.4093,-1.4057,-1.3868,-1.3926,-1.3868,-1.3868,-1.4244,-1.4337,-1.4373,-0.1328,-0.1284,-0.135,0.0,0.0,0.0,0.0,0.0,0.0,0.0,0.0,0.0,0.0,0.0,0.0,0.0,0.0,0.0,0.0,0.0,0.0,0.0,0.0,0.0,-0.6001,-0.6111,0.0,0.0,0.0,0.0,0.0,0.0,0.0,0.0,0.0,0.0,0.0,0.0,0.0,0.0,0.0,0.0,-0.194,-0.1454,0.0,0.0,0.0,0.0,0.0,0.0,0.0,0.0,0.0,0.0,0.0,0.0,0.0,-0.7022,-0.8267,-0.881,-0.8947,-0.8771,-0.9567,-1.0285,-0.9771,-1.0574,-1.1204,-1.0496,-1.0212,-0.9897,0.0,0.0,-0.7952,-0.8048,-0.7909,-0.8041,-0.8903,-0.86,-0.8501,0.0,0.0,0.0,0.0,0.0,0.0,-0.6848,0.0,-0.5508,-0.5124,-0.6225,-0.7274,-0.8102,-0.9212,-1.0186,-1.0914,-1.0956,-1.1004,-1.1161,-1.1694,-1.1927,-1.1977,-1.2332,-1.2813,-1.3362,-1.3266,-1.3552,-1.4129,-1.3905,-1.3716,-1.3621,-1.3716,-1.3821,-1.3821,-1.3973,-1.4104,-1.4269,0.0,0.0,0.0,0.0,0.0,0.0,0.0,0.0,0.0,0.0,0.0,0.0,0.0,0.0,0.0,0.0,0.0,0.0,0.0,0.0,0.0,0.0,0.0,0.0,0.0,-0.5844,0.0,0.0,0.0,0.0,0.0,0.0,0.0,0.0,0.0,0.0,0.0,0.0,0.0,0.0,0.0,0.0,-0.1995,0.0,0.0,0.0,0.0,0.0,0.0,0.0,0.0,0.0,0.0,0.0,-0.4693,0.0,0.0,-0.7799,-0.8297,-0.8818,-0.9212,-0.9335,-0.9133,-0.9149,-1.0228,-1.0225,-1.0106,-1.0612,-1.0152,-0.9477,-0.881,0.0,0.0,-0.8912,-0.8746,0.0,-0.8982,-0.8817,0.0,0.0,0.0,-0.7622,-0.709,-0.7257,0.0,0.0,-0.6869,-0.6381,-0.5508,-0.6261,-0.7175,-0.8096,-0.8828,-0.9857,-1.1215,-1.1328,-1.1456,-1.1718,-1.2022,-1.2431,-1.2783,-1.248,-1.2657,-1.3266,-1.3314,-1.3467,-1.361,-1.3941,-1.3847,-1.3467,-1.3716,-1.3821,-1.3821,-1.4046,-1.4093,-1.4104,0.0,0.0,0.0,0.0,0.0,0.0,0.0,0.0,0.0,0.0,0.0,0.0,0.0,0.0,0.0,0.0,0.0,0.0,0.0,0.0,0.0,0.0,0.0,0.0,0.0,0.0,0.0,0.0,0.0,0.0,0.0,0.0,0.0,0.0,0.0,0.0,0.0,0.0,0.0,0.0,0.0,0.0,0.0,0.0,0.0,0.0,0.0,0.0,0.0,0.0,0.0,-0.3104,-0.3612,-0.4291,-0.516,-0.6299,0.0,-0.7968,-0.8749,-0.893,-0.8955,-0.9149,-0.8816,-0.8648,-0.9225,-0.9213,-0.9101,-0.9237,-0.8849,0.0,0.0,0.0,0.0,0.0,0.0,0.0,-0.9184,-0.8982,-0.8547,0.0,-0.7984,0.0,-0.73,-0.7413,-0.7526,0.0,-0.7359,-0.6977,-0.6268,-0.6652,-0.7453,-0.8641,-0.899,-0.9896,-1.1472,-1.1531,-1.1728,-1.1977,-1.2175,-1.248,-1.2832,-1.248,-1.2706,-1.3372,0.0,-1.3409,-1.3752,-1.3941,-1.3752,-1.3362,-1.3716,-1.3821,-1.3763,-1.4082,-1.4093,-1.3915,0.0,0.0,0.0,0.0,0.0,0.0,0.0,0.0,0.0,0.0,0.0,0.0,0.0,0.0,0.0,0.0,0.0,0.0,0.0,0.0,0.0,0.0,0.0,0.0,0.0,0.0,0.0,0.0,0.0,0.0,0.0,0.0,0.0,0.0,0.0,0.0,0.0,0.0,0.0,0.0,0.0,0.0,0.0,0.0,0.0,0.0,0.0,0.0,0.0,0.0,-0.274,-0.339,-0.3707,-0.4598,-0.5722,-0.6805,-0.7397,-0.7962,-0.9097,-0.8953,-0.8515,-0.8633,-0.8626,-0.8419,-0.7766,-0.8034,-0.8172,-0.7428,0.0,0.0,-0.6705,0.0,-0.6851,-0.7242,0.0,-0.8461,-0.9435,-0.9127,-0.8854,-0.9138,-0.8778,-0.8309,-0.767,-0.7788,-0.7842,-0.7723,-0.7622,-0.7413,-0.7139,-0.7085,-0.7818,-0.9325,-0.9533,-1.0261,-1.1678,-1.1769,-1.1877,-1.2076,-1.2234,-1.2382,-1.248,-1.2382,-1.2803,-1.3621,-1.3266,-1.3494,-1.4222,-1.3999,-1.361,-1.3266,-1.381,-1.3868,-1.3668,-1.4035,-1.4046,-1.3821,0.0,0.0,0.0,0.0,0.0,0.0,0.0,0.0,0.0,0.0,0.0,0.0,0.0,0.0,0.0,0.0,0.0,0.0,0.0,0.0,0.0,0.0,0.0,0.0,0.0,0.0,0.0,0.0,0.0,0.0,0.0,0.0,0.0,0.0,0.0,0.0,0.0,0.0,0.0,0.0,0.0,0.0,0.0,0.0,0.0,0.0,0.0,0.0,0.0,0.0,-0.2721,-0.3694,-0.4129,-0.5161,-0.6281,-0.6537,-0.7412,-0.8276,-0.8294,-0.84,-0.8457,-0.8303,-0.8148,-0.8084,-0.8196,-0.778,0.0,0.0,0.0,-0.643,-0.5577,-0.5993,0.0,-0.7139,0.0,0.0,0.0,0.0,-0.8889,0.0,0.0,0.0,0.0,0.0,0.0,0.0,0.0,-0.7687,-0.7311,-0.7144,-0.7818,-0.9325,-1.0151,-1.0931,-1.1669,-1.2026,-1.2126,-1.1927,-1.2274,-1.248,-1.248,-1.2382,-1.2861,-1.3763,-1.3563,0.0,-1.4373,-1.4326,-1.3952,-1.342,-1.3941,-1.3941,-1.3668,-1.4035,-1.4046,-1.3773,0.0,0.0,0.0,0.0,0.0,0.0,0.0,-0.5425,-0.5941,-0.6585,0.0,0.0,0.0,0.0,0.0,0.0,0.0,0.0,0.0,0.0,0.0,0.0,0.0,0.0,0.0,0.0,0.0,0.0,0.0,0.0,0.0,0.0,0.0,0.0,0.0,0.0,0.0,0.0,0.0,0.0,0.0,0.0,0.0,0.0,0.0,0.0,0.0,0.0,0.0,0.0,-0.2506,-0.3395,-0.3996,-0.4968,-0.5981,-0.6506,-0.7083,-0.7709,-0.8411,-0.8421,-0.8239,-0.8436,-0.8274,-0.7975,-0.7616,0.0,0.0,0.0,0.0,-0.5529,-0.5074,0.0,0.0,0.0,0.0,0.0,0.0,0.0,0.0,0.0,0.0,0.0,0.0,0.0,0.0,0.0,0.0,-0.7794,-0.7521,-0.783,-0.8448,-0.9481,-1.0399,-1.1233,-1.1877,-1.2076,-1.2175,-1.2126,-1.2224,-1.2332,-1.2372,-1.2274,-1.2793,-1.38,-1.3742,0.0,-1.464,-1.4558,-1.414,-1.3668,-1.4035,-1.3988,-1.3763,-1.4082,-1.4093,-1.3868,0.0,0.0,0.0,0.0,0.0,0.0,0.0,-0.5689,-0.6257,-0.6897,-0.6778,-0.6719,-0.6891,-0.6841,-0.6824,0.0,0.0,0.0,0.0,0.0,0.0,0.0,0.0,0.0,0.0,0.0,0.0,0.0,0.0,0.0,0.0,0.0,0.0,0.0,0.0,0.0,0.0,0.0,0.0,0.0,0.0,0.0,0.0,0.0,0.0,0.0,0.0,0.0,0.0,0.0,-0.224,-0.2852,-0.3512,-0.4503,-0.5567,-0.6372,-0.6743,-0.7166,-0.8457,-0.8575,-0.8356,-0.8663,-0.8595,-0.8181,-0.7147,-0.6561,0.0,0.0,0.0,-0.4803,-0.4873,0.0,0.0,0.0,0.0,0.0,0.0,0.0,0.0,0.0,0.0,0.0,0.0,0.0,0.0,0.0,0.0,0.0,-0.7729,-0.8309,-0.8928,-0.9688,-1.0356,-1.1183,-1.2076,-1.2076,-1.2175,-1.2274,-1.2175,-1.2175,-1.2274,-1.2126,-1.2647,-1.3627,-1.3732,0.0,0.0,-1.4662,-1.4291,-1.3868,-1.4129,-1.4046,-1.3858,-1.414,-1.4197,-1.4067,0.0,0.0,0.0,0.0,0.0,0.0,0.0,-0.5402,-0.6207,-0.6502,-0.6697,-0.6837,-0.698,-0.6871,-0.6824,0.0,0.0,0.0,0.0,0.0,0.0,0.0,0.0,0.0,0.0,0.0,0.0,0.0,0.0,0.0,0.0,0.0,0.0,0.0,0.0,0.0,0.0,0.0,0.0,0.0,0.0,0.0,0.0,0.0,0.0,0.0,0.0,0.0,0.0,0.0,0.0,-0.2249,-0.2747,-0.4103,-0.555,-0.5905,0.0,0.0,-0.7566,-0.8591,-0.9371,-0.8611,-0.8921,-0.9071,-0.7808,0.0,0.0,0.0,-0.5098,-0.4735,-0.4803,-0.4642,0.0,0.0,0.0,0.0,0.0,0.0,0.0,0.0,0.0,0.0,0.0,0.0,0.0,0.0,0.0,0.0,-0.7901,-0.7955,-0.8573,-0.9909,-0.9909,-1.0635,-1.2076,-1.2076,-1.2126,-1.2126,-1.2126,-1.2126,-1.2126,-1.2126,-1.2452,-1.3102,-1.3457,0.0,0.0,-1.4581,-1.4348,-1.402,-1.4129,-1.4046,-1.3868,-1.4244,-1.4373,-1.4337,0.0,0.0,0.0,0.0,0.0,0.0,-0.4955,-0.5724,-0.6445,-0.708,-0.6945,-0.6858,-0.6987,-0.6908,-0.6874,0.0,0.0,0.0,0.0,0.0,0.0,0.0,0.0,0.0,0.0,0.0,0.0,0.0,0.0,0.0,0.0,0.0,0.0,0.0,0.0,0.0,0.0,0.0,0.0,0.0,0.0,0.0,0.0,0.0,0.0,0.0,0.0,0.0,0.0,0.0,0.0,0.0,-0.2564,-0.3518,0.0,0.0,-0.5882,-0.665,-0.7517,-0.8364,-0.892,-0.8704,-0.883,-0.874,-0.7734,0.0,0.0,-0.5605,-0.5194,-0.4931,-0.4863,-0.4665,-0.4849,0.0,0.0,0.0,0.0,0.0,0.0,0.0,0.0,0.0,0.0,0.0,0.0,0.0,0.0,0.0,-0.8215,-0.8008,-0.8521,-0.9961,-0.9969,-1.0635,-1.2076,-1.2076,-1.2076,-1.2076,-1.2076,-1.2076,-1.2076,-1.2076,-1.2452,-1.3016,-1.3494,0.0,0.0,-1.4686,-1.4558,-1.4244,-1.428,-1.414,-1.3962,-1.428,-1.4291,-1.415,0.0,0.0,0.0,0.0,0.0,-0.4325,-0.5069,-0.574,-0.6406,-0.7124,-0.6931,-0.6807,-0.6944,-0.6858,-0.6791,-0.6841,0.0,0.0,0.0,0.0,0.0,0.0,0.0,0.0,0.0,0.0,0.0,0.0,0.0,0.0,0.0,0.0,0.0,0.0,0.0,0.0,0.0,0.0,0.0,0.0,0.0,0.0,0.0,0.0,0.0,0.0,0.0,0.0,0.0,0.0,0.0,0.0,0.0,0.0,0.0,0.0,-0.5535,-0.6329,-0.739,-0.8238,-0.8763,-0.8711,-0.8791,-0.8657,0.0,0.0,-0.64,-0.5603,-0.5272,-0.5088,-0.4981,-0.4724,-0.476,0.0,-0.5332,-0.5628,-0.711,0.0,0.0,0.0,0.0,0.0,0.0,0.0,0.0,0.0,0.0,0.0,-0.8368,-0.8315,-0.8778,-1.0012,-1.0064,-1.0685,-1.2026,-1.2076,-1.2076,-1.2076,-1.2076,-1.2076,-1.2076,-1.2076,-1.2353,-1.2832,-1.3447,0.0,0.0,-1.4674,-1.4686,-1.4466,-1.4419,-1.4291,-1.415,-1.4337,-1.4291,-1.4114,0.0,0.0,0.0,0.0,0.0,0.0,0.0,-0.5204,-0.5938,-0.627,-0.6495,-0.6685,-0.6891,-0.6668,-0.6547,-0.6702,0.0,0.0,0.0,0.0,0.0,0.0,0.0,0.0,0.0,0.0,0.0,0.0,0.0,0.0,0.0,0.0,0.0,0.0,0.0,0.0,0.0,0.0,0.0,0.0,0.0,0.0,0.0,0.0,0.0,0.0,0.0,0.0,0.0,0.0,0.0,0.0,0.0,0.0,0.0,0.0,-0.5714,-0.6417,-0.7053,-0.8341,-0.9334,-0.8651,-0.8949,-0.9085,0.0,-0.7021,-0.6314,-0.5641,-0.5339,-0.5185,-0.5107,-0.4664,-0.4491,-0.5112,-0.4753,0.0,0.0,0.0,0.0,0.0,0.0,0.0,0.0,0.0,0.0,0.0,0.0,0.0,-0.8368,-0.8778,-0.934,-1.0167,-1.0218,-1.0736,-1.1877,-1.2026,-1.2076,-1.2076,-1.2076,-1.2076,-1.2076,-1.2076,-1.2175,-1.2382,0.0,0.0,0.0,-1.4466,-1.4708,-1.4662,-1.4477,-1.4373,-1.4373,-1.4373,-1.4373,-1.4384,0.0,0.0,0.0,0.0,0.0,0.0,0.0,-0.4982,-0.5743,-0.6117,-0.6444,-0.6774,-0.7075,-0.6977,-0.6891,-0.6841,0.0,0.0,0.0,0.0,0.0,0.0,0.0,0.0,0.0,0.0,0.0,0.0,0.0,0.0,0.0,0.0,0.0,0.0,0.0,0.0,0.0,0.0,0.0,0.0,0.0,0.0,0.0,0.0,0.0,0.0,0.0,0.0,0.0,0.0,0.0,0.0,0.0,0.0,0.0,-0.4949,-0.5792,0.0,-0.6724,-0.754,-0.822,-0.7678,-0.7675,-0.7656,-0.7061,-0.6616,-0.6212,-0.5618,-0.5416,-0.5243,-0.4951,-0.4753,-0.4923,-0.5804,0.0,0.0,0.0,0.0,0.0,0.0,0.0,0.0,0.0,0.0,0.0,0.0,0.0,0.0,-0.8798,-0.9001,-0.951,-1.0312,-1.0533,-1.1049,-1.2026,-1.1977,-1.2026,-1.2076,-1.2076,-1.2076,-1.2076,-1.2076,-1.2126,0.0,0.0,0.0,0.0,-1.4605,-1.4891,-1.4697,-1.4616,-1.4466,-1.4269,-1.4373,-1.4244,-1.401,0.0,0.0,0.0,0.0,0.0,0.0,0.0,-0.4658,-0.5237,-0.5699,-0.618,-0.6579,-0.683,-0.6956,-0.7023,-0.6987,0.0,0.0,0.0,0.0,0.0,0.0,0.0,0.0,0.0,0.0,0.0,0.0,0.0,0.0,0.0,0.0,0.0,0.0,0.0,0.0,0.0,0.0,0.0,0.0,0.0,0.0,-0.2641,0.0,0.0,0.0,0.0,0.0,0.0,0.0,0.0,0.0,0.0,0.0,0.0,0.0,-0.5869,-0.6388,0.0,-0.6951,-0.736,-0.7032,-0.7018,-0.6996,-0.6587,-0.6448,-0.6232,-0.5625,-0.5465,-0.5331,-0.498,-0.4841,-0.5008,-0.5752,0.0,0.0,0.0,0.0,0.0,0.0,0.0,0.0,0.0,0.0,0.0,0.0,0.0,0.0,-0.9562,-0.9762,-1.0167,-1.0787,-1.0905,-1.1217,-1.1877,-1.1877,-1.1927,-1.2026,-1.2076,-1.2076,-1.2076,-1.2076,-1.2076,0.0,0.0,0.0,0.0,-1.4408,-1.4743,-1.4719,-1.4719,-1.4569,-1.428,-1.4373,-1.4093,-1.3716,0.0,0.0,0.0,0.0,0.0,0.0,0.0,0.0,0.0,-0.5099,-0.5714,-0.617,-0.6311,-0.6693,-0.699,-0.7099,0.0,0.0,0.0,0.0,0.0,0.0,0.0,0.0,0.0,0.0,0.0,0.0,-0.5423,-0.5185,-0.5176,0.0,0.0,0.0,0.0,0.0,0.0,0.0,0.0,0.0,0.0,-0.3018,0.0,0.0,0.0,0.0,0.0,0.0,0.0,0.0,0.0,0.0,0.0,0.0,0.0,0.0,0.0,0.0,0.0,-0.6525,-0.6757,-0.6664,-0.6841,-0.6868,-0.6392,-0.6398,0.0,-0.5653,-0.5511,-0.5437,-0.5224,-0.4955,-0.4886,-0.5296,0.0,0.0,0.0,0.0,0.0,0.0,0.0,0.0,0.0,0.0,0.0,0.0,0.0,0.0,-1.0618,-1.0864,-1.1183,-1.1528,-1.1276,-1.1276,-1.1528,-1.1778,-1.1877,-1.1877,-1.2026,-1.2076,-1.2126,-1.2126,-1.2126,0.0,0.0,0.0,0.0,-1.3988,-1.443,-1.4822,-1.4787,-1.4627,-1.4419,-1.4373,-1.4093,-1.3658,0.0,0.0,0.0,0.0,0.0,0.0,0.0,0.0,0.0,0.0,-0.565,-0.6325,-0.6504,-0.7025,-0.7329,0.0,0.0,0.0,0.0,0.0,0.0,0.0,0.0,0.0,0.0,0.0,0.0,-0.5518,-0.5262,-0.5098,-0.5029,-0.4624,0.0,0.0,0.0,0.0,0.0,0.0,0.0,0.0,-0.3425,-0.3315,0.0,0.0,0.0,0.0,-0.3709,-0.3661,0.0,0.0,0.0,0.0,0.0,0.0,0.0,0.0,-0.5848,-0.5884,-0.6151,0.0,-0.6462,-0.6287,-0.6097,-0.5971,0.0,-0.5938,-0.5781,0.0,0.0,-0.5602,-0.596,-0.5681,-0.5722,0.0,0.0,0.0,0.0,0.0,0.0,0.0,0.0,0.0,0.0,0.0,0.0,0.0,0.0,-1.0407,-1.1015,-1.1116,-1.1334,-1.1769,-1.1728,-1.1728,-1.1828,-1.1778,-1.1778,-1.1877,-1.1927,-1.2126,-1.2382,-1.2175,-1.2224,0.0,0.0,0.0,-1.361,-1.4035,-1.4455,-1.488,-1.4811,-1.4684,-1.4523,-1.443,-1.428,-1.4035,0.0,0.0,0.0,0.0,0.0,0.0,0.0,0.0,0.0,0.0,0.0,0.0,0.0,0.0,0.0,0.0,0.0,0.0,0.0,0.0,0.0,0.0,0.0,0.0,0.0,0.0,0.0,0.0,0.0,-0.5396,0.0,0.0,0.0,0.0,0.0,0.0,0.0,0.0,0.0,0.0,-0.3862,0.0,0.0,0.0,0.0,0.0,-0.3924,-0.3978,0.0,-0.4122,-0.4297,-0.4529,0.0,0.0,0.0,0.0,-0.6195,-0.6195,-0.6371,-0.6502,-0.6567,-0.6494,-0.6306,-0.6159,-0.6209,0.0,0.0,0.0,0.0,0.0,-0.6244,0.0,0.0,0.0,0.0,0.0,0.0,0.0,0.0,0.0,0.0,0.0,0.0,0.0,0.0,0.0,0.0,-1.1366,-1.1841,-1.1841,-1.195,-1.2274,-1.2076,-1.1877,-1.1728,-1.1828,-1.1927,-1.1977,-1.2175,-1.2421,-1.2676,-1.2431,-1.2382,0.0,0.0,0.0,-1.3515,-1.3695,-1.4118,-1.4743,-1.4662,-1.4569,-1.4477,-1.443,-1.4326,-1.4176,0.0,0.0,0.0,0.0,0.0,0.0,0.0,0.0,0.0,0.0,0.0,0.0,0.0,0.0,0.0,0.0,0.0,0.0,0.0,0.0,0.0,0.0,0.0,0.0,0.0,0.0,0.0,0.0,0.0,0.0,0.0,0.0,0.0,0.0,0.0,0.0,0.0,0.0,0.0,0.0,0.0,0.0,0.0,0.0,0.0,0.0,0.0,0.0,0.0,-0.4369,-0.46,-0.4924,-0.5317,0.0,0.0,0.0,0.0,0.0,-0.6817,-0.7012,-0.7147,-0.6931,-0.6906,-0.6865,-0.6621,0.0,0.0,0.0,0.0,0.0,0.0,0.0,0.0,0.0,0.0,0.0,0.0,0.0,0.0,0.0,0.0,0.0,0.0,0.0,0.0,0.0,0.0,-1.2286,-1.2676,-1.2529,-1.2529,-1.2676,-1.2332,-1.1977,-1.1678,-1.1977,-1.2126,-1.2126,-1.248,-1.2735,-1.2881,-1.2627,-1.248,-1.248,0.0,0.0,-1.3266,-1.3218,-1.3705,-1.4477,-1.443,-1.4373,-1.4373,-1.4373,-1.4326,-1.4222,0.0,0.0,0.0,0.0,0.0,0.0,0.0,0.0,0.0,0.0,0.0,0.0,0.0,0.0,0.0,0.0,0.0,0.0,0.0,0.0,0.0,0.0,0.0,0.0,0.0,0.0,0.0,0.0,0.0,0.0,-0.5518,-0.5725,-0.5694,0.0,0.0,0.0,0.0,0.0,0.0,0.0,0.0,0.0,0.0,0.0,0.0,0.0,0.0,0.0,0.0,-0.5194,-0.5356,-0.5601,-0.5954,0.0,0.0,0.0,0.0,0.0,-0.739,-0.8221,-0.8627,-0.7117,-0.7146,-0.7442,-0.7032,0.0,0.0,0.0,0.0,0.0,0.0,0.0,0.0,0.0,0.0,0.0,0.0,0.0,0.0,0.0,0.0,0.0,0.0,0.0,0.0,0.0,0.0,-1.2618,-1.2676,-1.248,-1.2431,-1.2676,-1.2529,-1.2431,-1.2332,-1.2274,-1.2283,-1.2274,-1.2431,-1.2578,-1.2735,-1.2578,-1.248,-1.248,0.0,-1.2255,-1.2764,-1.2967,-1.3399,-1.3967,-1.428,-1.4373,-1.4373,-1.4373,-1.4384,-1.4373,0.0,0.0,0.0,0.0,0.0,0.0,0.0,0.0,0.0,0.0,0.0,0.0,0.0,0.0,0.0,0.0,0.0,0.0,0.0,0.0,0.0,0.0,0.0,0.0,0.0,0.0,0.0,0.0,0.0,-0.6181,-0.5826,-0.5847,-0.5778,-0.5659,0.0,0.0,0.0,0.0,0.0,-0.5215,0.0,0.0,0.0,0.0,0.0,0.0,0.0,0.0,0.0,0.0,-0.5932,-0.6183,-0.648,0.0,0.0,0.0,0.0,0.0,-0.7513,-0.8094,-0.8532,-0.8066,-0.8537,-0.8968,0.0,0.0,0.0,0.0,0.0,0.0,0.0,0.0,0.0,0.0,0.0,0.0,0.0,0.0,0.0,0.0,0.0,0.0,0.0,0.0,0.0,0.0,0.0,0.0,-1.2372,-1.2529,-1.2676,-1.2783,-1.2774,-1.2861,-1.2997,-1.2813,-1.2676,-1.2529,-1.2627,-1.292,-1.3296,-1.2997,-1.289,-1.2842,0.0,-1.2579,-1.3016,-1.3016,-1.3494,-1.4222,-1.4373,-1.4373,-1.443,-1.4477,-1.4523,-1.4477,0.0,0.0,0.0,0.0,0.0,0.0,0.0,0.0,0.0,0.0,0.0,0.0,0.0,0.0,0.0,0.0,0.0,0.0,0.0,0.0,0.0,0.0,0.0,0.0,0.0,0.0,0.0,-0.6874,-0.6759,-0.659,-0.6352,-0.6096,-0.6002,0.0,0.0,0.0,0.0,0.0,0.0,-0.5579,0.0,0.0,0.0,0.0,0.0,0.0,0.0,0.0,0.0,0.0,0.0,0.0,0.0,0.0,0.0,-0.7469,-0.7545,-0.7588,-0.7669,-0.8002,-0.841,-0.8785,0.0,-0.9944,0.0,0.0,0.0,0.0,0.0,0.0,0.0,0.0,0.0,0.0,0.0,0.0,0.0,0.0,0.0,0.0,0.0,0.0,0.0,0.0,0.0,0.0,0.0,0.0,-1.2274,-1.2627,-1.2881,-1.2929,-1.3007,-1.3142,-1.3276,-1.3113,-1.2929,-1.2676,-1.2832,-1.3065,-1.3382,-1.3266,-1.317,-1.3084,-1.2822,-1.2871,-1.3132,-1.3016,-1.3447,-1.4186,-1.4186,-1.428,-1.4419,-1.4523,-1.4523,-1.4523,0.0,0.0,0.0,0.0,0.0,0.0,0.0,0.0,0.0,0.0,0.0,0.0,0.0,0.0,0.0,0.0,0.0,0.0,0.0,0.0,0.0,0.0,0.0,0.0,0.0,-0.7314,-0.7298,-0.7345,-0.7335,-0.7268,-0.7113,-0.6656,-0.6579,-0.6794,0.0,0.0,0.0,0.0,0.0,-0.6129,-0.5929,0.0,0.0,0.0,0.0,0.0,0.0,0.0,0.0,0.0,0.0,0.0,0.0,0.0,-0.7484,-0.756,-0.7679,-0.7841,-0.8163,-0.8763,-0.9161,-0.8583,0.0,0.0,-1.1201,0.0,0.0,0.0,0.0,0.0,0.0,0.0,0.0,0.0,0.0,0.0,0.0,0.0,0.0,0.0,0.0,0.0,0.0,0.0,0.0,0.0,0.0,0.0,-1.2676,-1.2676,-1.2774,-1.3007,-1.3132,-1.3084,-1.2852,-1.2813,-1.2764,-1.2676,-1.2832,-1.2676,-1.2215,-1.288,-1.3035,-1.2774,-1.3025,-1.2832,-1.2421,-1.2677,-1.2861,-1.2957,-1.3467,-1.3941,-1.4373,-1.4419,-1.4419,-1.4419,0.0,0.0,0.0,0.0,0.0,0.0,0.0,0.0,0.0,0.0,0.0,0.0,0.0,0.0,0.0,0.0,0.0,0.0,0.0,0.0,0.0,0.0,0.0,-0.7797,-0.7841,-0.7605,-0.7392,-0.7219,-0.7014,-0.6809,-0.6638,-0.6634,0.0,0.0,0.0,0.0,0.0,0.0,0.0,0.0,-0.6117,-0.6201,0.0,0.0,0.0,0.0,0.0,0.0,0.0,0.0,-0.7066,-0.7241,0.0,-0.7665,-0.7694,-0.7709,-0.7753,-0.7842,-0.8048,-0.8672,-0.9345,-0.9646,0.0,0.0,0.0,0.0,0.0,0.0,0.0,0.0,0.0,0.0,0.0,0.0,0.0,0.0,0.0,0.0,0.0,0.0,0.0,0.0,0.0,0.0,0.0,0.0,0.0,0.0,-1.248,-1.2686,-1.2881,-1.3007,-1.3045,-1.3035,-1.2929,-1.2803,-1.2627,-1.2332,-1.2382,-1.2666,-1.3142,-1.3276,-1.342,-1.361,-1.36,-1.3457,-1.3238,-1.3276,-1.3314,-1.3266,-1.316,-1.3409,-1.3905,-1.3905,-1.4093,-1.4373,0.0,0.0,0.0,0.0,0.0,0.0,0.0,0.0,0.0,0.0,0.0,0.0,0.0,0.0,0.0,0.0,0.0,0.0,0.0,0.0,0.0,0.0,0.0,-0.7632,-0.7997,-0.7812,-0.7605,-0.7376,-0.7107,-0.6824,-0.6525,0.0,0.0,0.0,0.0,0.0,0.0,0.0,0.0,0.0,-0.6313,-0.6331,0.0,0.0,0.0,0.0,0.0,0.0,0.0,0.0,-0.7455,-0.7606,0.0,0.0,-0.7841,-0.7841,-0.796,-0.8093,-0.8139,-0.874,-0.9513,0.0,0.0,0.0,0.0,0.0,0.0,0.0,0.0,0.0,0.0,0.0,0.0,0.0,0.0,0.0,0.0,0.0,0.0,0.0,0.0,0.0,0.0,0.0,0.0,0.0,0.0,0.0,0.0,-1.2774,-1.2978,-1.3017,-1.3007,-1.2949,-1.2832,-1.2657,-1.2372,-1.2026,-1.2215,-1.2696,-1.342,-1.3467,-1.3705,-1.4129,-1.4118,-1.3988,-1.3716,-1.3621,-1.3515,-1.3314,-1.3122,-1.316,-1.3372,-1.3515,-1.3705,-1.3941,0.0,0.0,0.0,0.0,0.0,0.0,0.0,0.0,0.0,0.0,0.0,0.0,0.0,0.0,0.0,0.0,0.0,0.0,0.0,0.0,0.0,0.0,0.0,-0.6912,-0.7783,-0.787,-0.7928,-0.8,-0.787,-0.7514,-0.6993,0.0,0.0,0.0,0.0,0.0,0.0,0.0,0.0,0.0,0.0,-0.6527,-0.6418,0.0,0.0,0.0,0.0,0.0,0.0,0.0,-0.7501,-0.756,0.0,0.0,0.0,-0.7897,-0.8288,-0.8662,-0.8539,-0.9089,0.0,0.0,0.0,0.0,0.0,0.0,0.0,0.0,0.0,0.0,0.0,0.0,0.0,0.0,0.0,0.0,0.0,0.0,0.0,0.0,0.0,0.0,0.0,0.0,0.0,0.0,0.0,0.0,0.0,-1.3036,-1.3085,-1.3085,-1.3017,-1.2813,-1.248,-1.2382,-1.2175,-1.1877,-1.2384,-1.2609,-1.2609,-1.3314,-1.3752,-1.4025,-1.4581,-1.4348,-1.3621,-1.3621,-1.3266,-1.2861,-1.3362,-1.3266,-1.2861,-1.3372,-1.3266,-1.2957,0.0,0.0,0.0,0.0,0.0,0.0,0.0,0.0,0.0,0.0,0.0,0.0,0.0,0.0,0.0,0.0,0.0,0.0,0.0,0.0,0.0,0.0,0.0,0.0,0.0,0.0,-0.7797,-0.7724,-0.759,-0.7345,0.0,0.0,0.0,-0.7075,0.0,0.0,0.0,0.0,0.0,0.0,0.0,-0.7072,-0.7045,0.0,0.0,0.0,0.0,0.0,0.0,0.0,0.0,0.0,0.0,0.0,0.0,-0.7724,-0.8004,-0.8314,-0.8199,-0.9116,0.0,0.0,0.0,0.0,0.0,0.0,0.0,0.0,0.0,0.0,0.0,0.0,0.0,0.0,0.0,0.0,0.0,0.0,0.0,0.0,0.0,0.0,0.0,0.0,0.0,0.0,0.0,0.0,0.0,-1.2988,-1.2978,-1.2978,-1.2676,-1.2421,-1.2224,-1.1977,-1.1828,-1.1778,-1.2017,-1.254,-1.3314,-1.3695,-1.4129,-1.4581,-1.4627,-1.4488,-1.414,-1.3763,-1.3266,-1.2764,-1.2598,-1.2461,-1.2304,-1.251,-1.2638,-1.2812,0.0,0.0,0.0,0.0,0.0,0.0,0.0,0.0,0.0,0.0,0.0,0.0,0.0,0.0,0.0,0.0,0.0,0.0,0.0,0.0,0.0,0.0,0.0,0.0,0.0,-0.7827,-0.7724,0.0,0.0,0.0,0.0,0.0,0.0,-0.7107,0.0,0.0,0.0,0.0,0.0,0.0,0.0,-0.728,-0.7098,0.0,0.0,0.0,0.0,0.0,0.0,0.0,0.0,0.0,0.0,0.0,0.0,-0.7753,-0.8229,-0.8758,-0.8473,0.0,0.0,0.0,0.0,0.0,0.0,0.0,0.0,0.0,0.0,0.0,0.0,0.0,0.0,0.0,0.0,0.0,0.0,0.0,0.0,0.0,0.0,0.0,0.0,0.0,0.0,0.0,0.0,0.0,0.0,-1.2832,-1.2783,-1.2832,-1.2578,-1.2421,-1.2372,-1.2304,-1.2304,-1.2403,-1.2696,-1.317,-1.3847,-1.3847,-1.4186,-1.4787,-1.4581,-1.4477,-1.4373,-1.4046,-1.361,-1.3064,-1.2589,-1.2264,-1.2076,-1.2076,-1.2157,-1.2236,0.0,0.0,-0.4259,-0.4381,0.0,0.0,0.0,0.0,0.0,0.0,0.0,-0.4302,0.0,0.0,0.0,-0.4182,0.0,0.0,0.0,0.0,0.0,0.0,0.0,0.0,0.0,0.0,0.0,0.0,0.0,0.0,0.0,0.0,-0.7422,-0.7139,0.0,-0.736,0.0,0.0,0.0,0.0,-0.7424,-0.727,-0.69,-0.6856,0.0,0.0,0.0,0.0,0.0,0.0,0.0,0.0,-0.8133,-0.8189,-0.8234,-0.7925,-0.8707,-0.9567,0.0,0.0,0.0,0.0,0.0,0.0,0.0,0.0,0.0,0.0,0.0,0.0,0.0,0.0,0.0,0.0,0.0,0.0,0.0,0.0,0.0,0.0,0.0,0.0,0.0,0.0,0.0,0.0,0.0,0.0,0.0,-1.2774,-1.2676,-1.2822,-1.2764,-1.2754,-1.2852,-1.3084,-1.3266,-1.3362,-1.3836,-1.4118,-1.4176,-1.3847,-1.4093,-1.4787,-1.4523,-1.443,-1.443,-1.443,-1.4093,-1.3573,-1.3016,-1.2491,-1.2076,-1.2026,-1.1728,-1.1418,0.0,0.0,-0.4426,-0.4403,0.0,0.0,0.0,0.0,0.0,-0.4361,-0.4374,-0.434,-0.423,-0.4208,0.0,-0.4129,-0.3998,0.0,0.0,0.0,0.0,0.0,0.0,0.0,0.0,0.0,0.0,0.0,0.0,0.0,0.0,0.0,0.0,-0.7407,0.0,-0.7499,0.0,0.0,0.0,0.0,-0.7709,-0.7709,-0.768,-0.7818,-0.8,0.0,0.0,0.0,0.0,0.0,0.0,0.0,-0.8154,-0.8193,-0.8191,-0.8066,-0.828,-0.8604,0.0,0.0,0.0,0.0,0.0,0.0,0.0,0.0,0.0,0.0,0.0,0.0,0.0,0.0,0.0,0.0,0.0,0.0,0.0,0.0,0.0,0.0,0.0,0.0,0.0,0.0,0.0,0.0,0.0,0.0,-1.4129,-1.3563,-1.3372,-1.3695,-1.3515,-1.3324,-1.3122,-1.3064,-1.3064,-1.3064,-1.3208,-1.3542,-1.4071,-1.4444,-1.4697,-1.4787,-1.4523,-1.4477,-1.4534,-1.443,-1.4093,-1.3573,-1.3016,-1.2491,-1.2026,-1.1628,-1.1427,-1.1267,0.0,0.0,0.0,0.0,0.0,0.0,0.0,0.0,0.0,-0.4363,-0.4386,-0.4368,-0.4261,-0.4214,0.0,0.0,-0.408,-0.3996,0.0,0.0,0.0,0.0,0.0,0.0,0.0,0.0,0.0,0.0,0.0,0.0,0.0,0.0,0.0,-0.7545,0.0,-0.756,0.0,0.0,0.0,-0.7856,-0.7856,-0.7899,-0.7893,-0.7425,-0.7477,-0.7739,-0.7063,0.0,0.0,0.0,0.0,0.0,0.0,0.0,-0.8261,-0.8094,-0.8353,-0.8741,0.0,0.0,0.0,0.0,0.0,0.0,0.0,0.0,0.0,0.0,0.0,0.0,0.0,0.0,0.0,0.0,0.0,0.0,0.0,0.0,0.0,0.0,0.0,0.0,0.0,0.0,0.0,0.0,0.0,-1.4082,-1.4258,-1.3779,-1.3589,-1.38,-1.3742,-1.3647,-1.3589,-1.3695,-1.3752,-1.3752,-1.3752,-1.3988,-1.4373,-1.4651,-1.4754,-1.4673,-1.4477,-1.443,-1.4477,-1.443,-1.4233,-1.3952,-1.3409,-1.288,-1.2353,-1.1868,-1.1528,-1.1276,0.0,0.0,0.0,0.0,0.0,0.0,0.0,0.0,0.0,-0.4387,-0.4415,-0.442,-0.434,-0.429,-0.4252,0.0,0.0,0.0,-0.4067,0.0,0.0,0.0,0.0,0.0,0.0,0.0,0.0,0.0,0.0,0.0,0.0,0.0,0.0,-0.7605,0.0,0.0,0.0,0.0,0.0,-0.7733,-0.7628,-0.7608,-0.7564,-0.6572,-0.6584,-0.6984,-0.5919,-0.6289,-0.7304,-0.7415,0.0,0.0,0.0,0.0,-0.834,-0.8135,-0.8509,-0.9034,0.0,0.0,0.0,0.0,0.0,0.0,0.0,0.0,0.0,0.0,0.0,0.0,0.0,0.0,0.0,0.0,0.0,0.0,0.0,0.0,0.0,0.0,0.0,0.0,0.0,0.0,0.0,0.0,0.0,-1.4398,-1.4305,-1.4003,-1.3815,-1.3941,-1.3967,-1.4061,-1.4129,-1.4477,-1.4627,-1.4581,-1.4581,-1.4627,-1.4776,-1.4627,-1.4581,-1.4581,-1.4477,-1.443,-1.4373,-1.4373,-1.4373,-1.4326,-1.38,-1.3266,-1.2716,-1.2264,-1.1728,-1.1276,0.0,0.0,0.0,0.0,0.0,0.0,0.0,0.0,0.0,0.0,0.0,-0.4606,-0.4485,-0.4463,-0.4457,-0.4454,-0.4353,-0.4273,0.0,0.0,0.0,0.0,0.0,0.0,0.0,0.0,0.0,0.0,0.0,0.0,0.0,0.0,0.0,0.0,0.0,0.0,0.0,0.0,0.0,-0.7078,-0.6477,-0.6291,-0.6342,-0.6233,-0.6253,-0.6406,-0.6803,-0.7058,-0.7308,-0.789,-0.8182,0.0,0.0,0.0,0.0,0.0,0.0,0.0,0.0,0.0,0.0,0.0,0.0,0.0,0.0,0.0,0.0,0.0,0.0,0.0,0.0,0.0,0.0,0.0,0.0,0.0,0.0,0.0,0.0,0.0,0.0,0.0,0.0,0.0,0.0,0.0,-1.5232,-1.5153,-1.5558,-1.4937,-1.4755,-1.5232,-1.5051,-1.4834,-1.4673,-1.473,-1.4673,-1.443,-1.443,-1.4477,-1.4627,-1.4477,-1.4477,-1.4581,-1.4581,-1.4523,-1.4373,-1.4373,-1.4373,-1.4326,-1.3705,-1.317,-1.2716,-1.2157,-1.1678,-1.1217,0.0,0.0,0.0,0.0,0.0,0.0,0.0,0.0,0.0,0.0,0.0,-0.4614,-0.4554,-0.4522,-0.4509,-0.4557,-0.4537,0.0,0.0,0.0,0.0,0.0,0.0,0.0,0.0,0.0,0.0,0.0,0.0,0.0,0.0,-0.8163,-0.8349,0.0,0.0,0.0,0.0,0.0,0.0,-0.714,-0.6802,-0.6934,-0.7257,0.0,-0.6768,-0.7269,0.0,0.0,0.0,-0.7497,-0.7906,-0.8287,-0.8287,0.0,0.0,0.0,0.0,0.0,0.0,0.0,0.0,0.0,0.0,0.0,0.0,0.0,0.0,0.0,0.0,0.0,0.0,0.0,0.0,0.0,0.0,0.0,0.0,0.0,0.0,0.0,0.0,0.0,0.0,0.0,0.0,0.0,-1.5614,-1.5525,-1.5525,-1.5198,-1.5096,-1.5142,-1.5051,-1.4926,-1.4787,-1.4787,-1.4684,-1.4373,-1.4477,-1.4523,-1.4581,-1.4627,-1.4627,-1.4581,-1.4523,-1.4477,-1.4373,-1.4373,-1.4373,-1.4373,-1.4082,-1.3494,-1.2764,-1.2482,-1.1959,-1.1226,0.0,0.0,0.0,0.0,0.0,0.0,0.0,0.0,0.0,0.0,0.0,-0.4607,-0.4617,0.0,0.0,0.0,-0.4687,0.0,0.0,0.0,0.0,0.0,0.0,0.0,0.0,0.0,0.0,0.0,0.0,0.0,-0.8322,-0.8378,-0.9218,0.0,-0.9561,0.0,0.0,0.0,0.0,-0.7608,-0.7261,-0.7508,-0.8026,-0.7259,-0.7533,-0.8214,0.0,0.0,0.0,0.0,0.0,0.0,0.0,0.0,0.0,0.0,0.0,0.0,0.0,0.0,0.0,0.0,0.0,0.0,0.0,0.0,0.0,0.0,0.0,0.0,0.0,0.0,0.0,0.0,0.0,0.0,0.0,0.0,0.0,0.0,0.0,0.0,0.0,0.0,0.0,0.0,-1.5792,-1.5659,-1.5357,-1.5345,-1.5255,-1.5006,-1.496,-1.488,-1.4787,-1.473,-1.4581,-1.4373,-1.4477,-1.4581,-1.4581,-1.4684,-1.4673,-1.4581,-1.4523,-1.4477,-1.4373,-1.443,-1.4419,-1.4326,-1.4186,-1.3542,-1.2716,-1.2628,-1.2049,-1.1276,0.0,0.0,0.0,0.0,0.0,0.0,0.0,0.0,0.0,0.0,0.0,-0.4628,-0.4683,-0.4683,-0.4693,-0.4684,-0.4757,0.0,0.0,0.0,0.0,0.0,0.0,0.0,0.0,0.0,0.0,0.0,0.0,0.0,-0.8403,-0.8962,-1.0129,-1.1661,-1.0017,-0.9323,-0.9287,0.0,0.0,0.0,-0.7354,-0.7167,-0.759,-0.8104,-0.8453,-0.8667,0.0,0.0,0.0,0.0,0.0,0.0,0.0,0.0,0.0,0.0,0.0,0.0,0.0,0.0,0.0,0.0,0.0,0.0,0.0,0.0,0.0,0.0,0.0,0.0,0.0,0.0,0.0,0.0,0.0,0.0,0.0,0.0,0.0,0.0,0.0,0.0,0.0,0.0,0.0,0.0,-1.5748,-1.5703,-1.5513,-1.5468,-1.5424,-1.5267,-1.5165,-1.4983,-1.4787,-1.4534,-1.4419,-1.4373,-1.443,-1.4477,-1.4581,-1.4477,-1.4477,-1.4627,-1.473,-1.4627,-1.443,-1.4523,-1.443,-1.4176,-1.3647,-1.3112,-1.257,-1.2107,-1.1669,-1.1276,0.0,0.0,0.0,0.0,0.0,0.0,0.0,0.0,0.0,0.0,0.0,0.0,0.0,-0.5051,-0.4759,-0.4761,0.0,0.0,0.0,0.0,0.0,0.0,0.0,0.0,0.0,0.0,0.0,0.0,0.0,-0.5849,-0.783,-0.7954,-0.8589,-0.9597,-0.9401,-0.9698,-1.0261,-0.8505,0.0,0.0,0.0,-0.8363,0.0,0.0,-0.987,-1.0628,0.0,0.0,0.0,0.0,0.0,0.0,0.0,0.0,-0.8403,-0.8285,0.0,0.0,0.0,0.0,0.0,0.0,0.0,0.0,0.0,0.0,0.0,0.0,0.0,0.0,0.0,0.0,0.0,0.0,0.0,0.0,0.0,0.0,0.0,0.0,0.0,0.0,0.0,0.0,0.0,0.0,0.0,-1.557,-1.5244,-1.5244,-1.5198,-1.5062,-1.5006,-1.4926,-1.4787,-1.4627,-1.4477,-1.4373,-1.4373,-1.4477,-1.4581,-1.4477,-1.4477,-1.4581,-1.4627,-1.4384,-1.3905,-1.4233,-1.3884,-1.3198,-1.3266,-1.2725,-1.194,-1.1859,-1.156,-1.1124,0.0,0.0,0.0,-0.7353,0.0,-0.6356,-0.5647,-0.5485,0.0,0.0,0.0,0.0,0.0,0.0,0.0,0.0,0.0,0.0,0.0,0.0,0.0,0.0,0.0,0.0,0.0,0.0,0.0,0.0,0.0,0.0,0.0,0.0,-0.77,-0.834,-0.8496,0.0,0.0,0.0,0.0,-0.8414,0.0,0.0,-1.0145,0.0,0.0,0.0,0.0,0.0,0.0,0.0,0.0,0.0,0.0,-0.8673,-0.8415,-0.8298,0.0,0.0,0.0,0.0,0.0,0.0,0.0,0.0,0.0,0.0,0.0,0.0,0.0,0.0,0.0,0.0,0.0,0.0,0.0,0.0,0.0,0.0,0.0,0.0,0.0,0.0,0.0,0.0,0.0,0.0,0.0,0.0,-1.4515,-1.4559,-1.4504,-1.436,-1.453,-1.4586,-1.4519,-1.4595,-1.4581,-1.4477,-1.443,-1.443,-1.4534,-1.443,-1.443,-1.4523,-1.4337,-1.4093,-1.3894,-1.4025,-1.3589,-1.2812,-1.2774,-1.2236,-1.156,-1.151,-1.1267,-1.0922,-0.8159,-0.8049,-0.7969,-0.8014,-0.8023,-0.7786,-0.7101,-0.6956,-0.6924,0.0,0.0,0.0,0.0,0.0,0.0,0.0,0.0,0.0,0.0,0.0,0.0,0.0,0.0,0.0,0.0,0.0,0.0,0.0,0.0,0.0,0.0,0.0,-0.7616,0.0,-0.7407,-0.7932,-0.9267,0.0,-0.8616,-0.9516,0.0,-1.033,-1.1099,0.0,0.0,0.0,-1.2726,-1.2408,0.0,0.0,0.0,0.0,0.0,0.0,-0.8322,-0.8374,0.0,0.0,0.0,0.0,0.0,0.0,0.0,0.0,0.0,0.0,0.0,0.0,0.0,0.0,0.0,0.0,0.0,0.0,0.0,0.0,0.0,0.0,0.0,0.0,0.0,0.0,0.0,0.0,0.0,0.0,-1.3819,-1.3778,-1.3294,-1.3429,-1.344,-1.3294,-1.3734,-1.3981,-1.3981,-1.4338,-1.4547,-1.4558,-1.4455,-1.4362,-1.4373,-1.4373,-1.4373,-1.4326,-1.381,-1.3858,-1.4326,-1.392,-1.3494,-1.3016,-1.2138,-1.166,-1.1427,-1.1023,-1.082,-1.0667,-0.9406,-0.9333,-0.9113,-0.86,-0.8431,-0.8103,-0.7324,-0.7196,0.0,0.0,0.0,0.0,0.0,0.0,0.0,0.0,0.0,0.0,0.0,0.0,0.0,0.0,0.0,0.0,0.0,0.0,0.0,0.0,0.0,0.0,0.0,0.0,0.0,0.0,-0.6878,-0.7215,-0.7494,-0.7157,0.0,0.0,-0.9514,-1.0688,0.0,0.0,0.0,0.0,0.0,-1.431,0.0,0.0,-1.2351,-1.1531,0.0,0.0,0.0,-0.8258,-0.8137,0.0,-0.7997,0.0,0.0,0.0,0.0,0.0,0.0,0.0,0.0,0.0,0.0,0.0,0.0,0.0,0.0,0.0,0.0,0.0,0.0,0.0,0.0,0.0,0.0,0.0,0.0,0.0,0.0,0.0,-1.3417,-1.3283,-1.2951,-1.3192,-1.3286,-1.3151,-1.3398,-1.3466,-1.3362,-1.342,-1.3619,-1.3937,-1.3792,-1.3965,-1.4384,-1.3999,-1.38,-1.381,-1.3256,-1.3112,-1.3256,-1.3006,-1.2374,-1.156,-1.156,-1.1267,-1.0769,-1.0769,-1.0667,-1.0522,-0.985,-0.9811,-0.9615,-0.9152,-0.8966,-0.8716,-0.8253,-0.8159,-0.8249,0.0,0.0,0.0,0.0,0.0,0.0,0.0,0.0,0.0,0.0,0.0,0.0,-0.3869,-0.3876,0.0,0.0,0.0,0.0,0.0,0.0,0.0,0.0,0.0,0.0,0.0,0.0,-0.639,-0.69,0.0,0.0,0.0,-0.9749,0.0,0.0,-1.3404,-1.449,0.0,0.0,0.0,-1.5104,-1.4589,-1.3717,0.0,0.0,0.0,-0.9109,-0.8417,0.0,0.0,0.0,0.0,0.0,0.0,0.0,0.0,0.0,0.0,0.0,0.0,0.0,0.0,0.0,0.0,0.0,0.0,0.0,0.0,0.0,0.0,0.0,0.0,0.0,0.0,0.0,-1.2665,-1.2586,-1.2439,-1.2388,-1.2258,-1.2058,-1.224,-1.2421,-1.2551,-1.2861,-1.2973,-1.2903,-1.2979,-1.3148,-1.3401,-1.3543,-1.3737,-1.3998,-1.3716,-1.3621,-1.3563,-1.2832,-1.2491,-1.2491,-1.2187,-1.1751,-1.1267,-1.1276,-1.0972,-1.0565,-1.0667,-1.0522,-1.0316,0.0,-0.9761,-0.9703,-0.9643,-0.953,-0.9456,-0.9439,-0.9377,-0.9321,0.0,0.0,0.0,0.0,0.0,0.0,0.0,0.0,0.0,0.0,0.0,0.0,-0.3908,-0.3841,-0.404,0.0,0.0,0.0,0.0,0.0,0.0,0.0,0.0,0.0,0.0,-0.4776,-0.5601,-0.6938,-0.6332,0.0,-0.8472,-1.0195,-1.1383,0.0,0.0,-1.5125,0.0,-1.5846,-1.5886,-1.5889,-1.5826,-1.4736,0.0,0.0,-1.0534,-1.0539,-0.8928,-0.8859,0.0,0.0,0.0,0.0,0.0,0.0,0.0,-0.8758,-0.8341,0.0,0.0,0.0,0.0,0.0,0.0,0.0,0.0,0.0,0.0,0.0,0.0,0.0,0.0,0.0,0.0,-1.1404,-1.1479,-1.1442,-1.1255,-1.118,-1.1057,-1.0943,-1.0933,-1.118,-1.1697,-1.2157,-1.2469,-1.2519,-1.2785,-1.2905,-1.2888,-1.3324,-1.3454,-1.3418,-1.3408,-1.3426,-1.3372,-1.2412,-1.2026,-1.1977,-1.1528,-1.1469,-1.166,-1.1116,-1.082,-1.0718,-1.0675,-1.0411,-1.0051,-0.9793,-0.9831,-0.9857,-0.9838,-0.9819,-0.9767,-0.9658,-0.9636,0.0,0.0,0.0,0.0,0.0,0.0,0.0,0.0,0.0,0.0,0.0,0.0,-0.4537,-0.4368,-0.4449,-0.4244,-0.3664,0.0,0.0,0.0,0.0,0.0,0.0,0.0,0.0,0.0,-0.4496,-0.5282,-0.6259,-0.6847,0.0,-0.9155,-0.9893,0.0,-1.3517,-1.4335,-1.5639,-1.7034,-1.6987,-1.708,-1.7155,0.0,-1.5435,-1.4001,0.0,0.0,0.0,0.0,0.0,-1.0048,-0.9857,-0.9857,-0.9748,-0.903,0.0,0.0,0.0,-0.8067,0.0,0.0,0.0,0.0,0.0,0.0,0.0,0.0,0.0,0.0,0.0,0.0,0.0,0.0,0.0,0.0,-1.0954,-1.1292,-1.1479,-1.1442,-1.0992,-1.0649,-1.0534,-1.0534,-1.0715,-1.1142,-1.1265,-1.1481,-1.1863,-1.1828,-1.1953,-1.2294,-1.2259,-1.2478,-1.2837,-1.248,-1.2339,-1.2363,-1.1719,-1.1477,-1.1427,-1.1326,-1.1267,-1.1217,-1.1124,-1.0972,-1.082,-1.0624,-1.0419,-1.0213,-0.985,-0.9844,-0.9857,-0.985,-0.9799,-0.9733,-0.9705,-0.9647,0.0,0.0,0.0,0.0,0.0,0.0,0.0,0.0,0.0,0.0,0.0,0.0,-0.5581,-0.5215,-0.5174,-0.5174,-0.525,-0.5223,0.0,0.0,0.0,0.0,0.0,0.0,0.0,0.0,0.0,0.0,0.0,0.0,-0.7971,-0.906,-1.0437,0.0,-1.3828,-1.5074,-1.6314,-1.7353,-1.7353,-1.7408,-1.7353,-1.634,-1.5445,0.0,0.0,-1.3158,-1.282,0.0,-1.1246,-1.134,0.0,0.0,-1.0093,-0.9607,0.0,0.0,0.0,0.0,-0.7752,0.0,0.0,0.0,0.0,0.0,0.0,0.0,0.0,0.0,0.0,0.0,0.0,0.0,0.0,0.0,-1.0156,-1.0706,-1.1029,-1.0954,-1.0485,-1.0302,-1.0505,-1.0495,-1.0572,-1.0791,-1.0992,-1.1217,-1.1437,-1.156,-1.1653,-1.1767,-1.1905,-1.2089,-1.2277,-1.2109,-1.2035,-1.2076,-1.1519,-1.1326,-1.1326,-1.1326,-1.1276,-1.1167,-1.1124,-1.1074,-1.0972,-1.0718,-1.047,-1.0265,-0.9868,-0.9844,-0.9799,-0.9798,-0.9714,-0.9643,-0.9677,-0.9589,0.0,0.0,0.0,0.0,0.0,0.0,0.0,0.0,0.0,0.0,0.0,0.0,0.0,-0.618,-0.5985,-0.6228,-0.6899,-0.5643,-0.5185,0.0,0.0,0.0,0.0,0.0,0.0,0.0,0.0,0.0,0.0,0.0,0.0,-0.9229,0.0,-1.2447,-1.3279,-1.5334,-1.644,-1.6903,-1.723,-1.7353,-1.7155,-1.5944,0.0,-1.5075,-1.3768,-1.3855,0.0,0.0,0.0,0.0,0.0,0.0,0.0,0.0,0.0,-0.9034,0.0,0.0,0.0,-0.791,0.0,0.0,0.0,0.0,0.0,0.0,0.0,0.0,0.0,0.0,0.0,0.0,0.0,0.0,0.0,-0.992,-1.0375,-1.0601,-1.0059,-1.004,-1.0639,-1.0495,-1.0457,-1.0544,-1.0802,-1.1019,-1.1217,-1.1474,-1.1533,-1.1432,-1.18,-1.189,-1.178,-1.1798,-1.1855,-1.1927,-1.1477,-1.1326,-1.1326,-1.1326,-1.1326,-1.1276,-1.1175,-1.1074,-1.0972,-1.0769,-1.0462,-1.0154,-0.9836,-0.9813,-0.9799,-0.9798,-0.9789,-0.9735,-0.9625,-0.9586,0.0,0.0,0.0,0.0,0.0,0.0,0.0,0.0,0.0,0.0,-1.0172,0.0,0.0,-0.7054,-0.7035,-0.677,-0.6229,-0.6531,-0.6127,0.0,0.0,0.0,0.0,0.0,-0.4633,-0.4912,-0.5373,0.0,0.0,0.0,-0.857,0.0,-1.1783,-1.1759,0.0,-1.3812,-1.4982,-1.5512,-1.6775,-1.7183,-1.7028,0.0,-1.6053,-1.5807,0.0,-1.4539,-1.4881,0.0,0.0,0.0,0.0,0.0,0.0,0.0,-1.1183,0.0,0.0,0.0,-0.8752,-0.7559,0.0,0.0,0.0,0.0,0.0,0.0,0.0,0.0,0.0,0.0,0.0,0.0,0.0,0.0,0.0,-0.9079,-0.9861,-1.1276,-1.0284,-1.0019,-1.0902,-1.0167,-0.9933,-1.0418,-1.0137,-1.036,-1.118,-1.1255,-1.1314,-1.1485,-1.1475,-1.1397,-1.129,-1.1214,-1.1249,-1.1377,-1.1326,-1.1326,-1.1326,-1.1326,-1.1326,-1.1326,-1.1276,-1.1074,-1.0726,-1.0573,-1.0249,-0.9821,-0.9955,-0.9894,-0.985,-0.9799,-0.9775,-0.9725,-0.9673,-1.0722,0.0,0.0,0.0,0.0,0.0,0.0,0.0,0.0,0.0,-1.0889,0.0,0.0,0.0,0.0,-0.7806,-0.769,-0.7496,-0.7123,-0.6655,-0.6074,-0.5079,0.0,0.0,0.0,-0.5153,-0.6074,-0.6583,0.0,-0.8219,0.0,0.0,0.0,0.0,0.0,0.0,-1.4386,-1.5902,-1.6328,-1.6922,-1.7149,-1.706,0.0,-1.5866,0.0,0.0,0.0,0.0,0.0,0.0,0.0,0.0,0.0,0.0,0.0,0.0,0.0,-0.8948,0.0,-0.8578,0.0,0.0,0.0,0.0,0.0,0.0,0.0,0.0,0.0,0.0,0.0,0.0,0.0,0.0,0.0,0.0,0.0,0.0,0.0,-0.9634,-0.9621,-1.0521,-0.9985,-0.9725,-0.9933,-0.9864,-0.9972,-1.036,-1.0857,-1.0943,-1.0677,-1.1099,-1.1095,-1.0803,-1.099,-1.1157,-1.1326,-1.1326,-1.1326,-1.1326,-1.1326,-1.1326,-1.1276,-1.1124,-1.0922,-1.0667,-1.0308,-1.0035,-0.9762,-1.0074,0.0,0.0,0.0,-0.975,-0.9795,-0.9974,-1.1298,-1.1967,0.0,0.0,0.0,-1.2997,-1.2963,0.0,0.0,0.0,-1.2472,0.0,0.0,-0.9798,-0.906,-0.8557,0.0,0.0,-0.7587,-0.6952,-0.7025,-0.5592,0.0,0.0,0.0,0.0,-0.6935,0.0,-0.8437,-0.931,0.0,0.0,-1.0685,-1.1298,-1.1903,-1.2706,-1.5161,-1.6536,-1.7149,-1.7158,-1.7199,-1.7134,-1.6436,-1.5807,0.0,-1.5917,0.0,0.0,0.0,0.0,0.0,-1.4404,0.0,0.0,0.0,0.0,0.0,0.0,0.0,0.0,0.0,0.0,0.0,0.0,0.0,0.0,0.0,0.0,0.0,0.0,0.0,0.0,0.0,0.0,0.0,0.0,0.0,0.0,0.0,0.0,-0.9026,-1.0203,-0.9908,-0.9656,-0.9609,-0.9746,-0.9785,-0.9815,-1.0399,-1.0514,-1.0205,-1.0687,-1.0804,-1.0579,-1.0812,-1.1073,-1.1326,-1.1326,-1.1326,-1.1326,-1.1326,-1.1276,-1.1175,-1.0922,-1.0616,-1.036,-1.0102,-0.9829,-0.9614,-1.0195,-1.0094,0.0,0.0,0.0,-1.0017,-1.0676,-1.0718,-1.1212,0.0,0.0,0.0,0.0,0.0,0.0,0.0,0.0,-1.4793,-1.4741,0.0,-1.0947,0.0,0.0,-0.886,0.0,0.0,-0.7025,-0.7105,-0.6137,-0.5685,0.0,0.0,0.0,0.0,0.0,-0.9354,-1.0365,-1.0625,-1.21,-1.4233,-1.4249,-1.5288,-1.6684,0.0,-1.6007,-1.7215,-1.7273,0.0,0.0,-1.6446,-1.6167,0.0,0.0,0.0,0.0,0.0,0.0,0.0,0.0,0.0,0.0,-1.2255,0.0,0.0,0.0,0.0,-0.9321,0.0,0.0,0.0,0.0,0.0,0.0,0.0,0.0,0.0,0.0,0.0,0.0,0.0,0.0,0.0,0.0,0.0,0.0,0.0,0.0,0.0,-1.0097,-0.982,-0.9591,-0.9609,-0.9725,-0.9804,-0.9815,-0.9873,-1.0079,-1.038,-1.0205,-1.0368,-1.0794,-1.0579,-1.0784,-1.1326,-1.1326,-1.1326,-1.1326,-1.1326,-1.1175,-1.0871,-1.0624,-1.0146,-0.9666,-0.9888,-0.9681,-0.9263,0.0,0.0,0.0,0.0,0.0,0.0,-1.0827,-1.2253,-1.3585,0.0,0.0,0.0,0.0,0.0,-1.7291,0.0,0.0,-1.6098,-1.5047,-1.3518,0.0,0.0,0.0,-1.0174,0.0,0.0,-0.8631,-0.8682,-0.7177,-0.6673,0.0,0.0,0.0,0.0,0.0,-0.9932,0.0,0.0,0.0,0.0,0.0,-1.5567,-1.6949,0.0,0.0,-1.7133,-1.7224,-1.7273,0.0,-1.7051,-1.6663,-1.6285,-1.6525,-1.6403,-1.6187,-1.612,-1.632,0.0,0.0,0.0,-1.5473,-1.334,0.0,0.0,0.0,0.0,0.0,0.0,0.0,0.0,0.0,0.0,0.0,0.0,0.0,0.0,0.0,0.0,0.0,0.0,0.0,0.0,0.0,0.0,0.0,0.0,-0.7405,0.0,0.0,-0.9155,-0.9288,-0.9666,-0.9742,-0.9813,-0.9873,-0.9843,-0.9734,-0.9487,-1.0186,-1.0442,-1.0282,-1.0773,-1.1085,-1.1326,-1.1326,-1.1326,-1.1276,-1.1124,-1.0972,-1.0871,-1.036,-0.994,-0.9614,-0.9784,-0.9584,-0.9263,-0.9408,0.0,0.0,0.0,0.0,0.0,0.0,0.0,0.0,0.0,-1.7351,0.0,-1.898,0.0,-1.8891,0.0,-1.8359,-1.7418,-1.5213,-1.4684,0.0,-1.2743,-1.2037,0.0,0.0,0.0,-1.0058,-0.9497,-0.8298,-0.777,0.0,0.0,0.0,0.0,0.0,0.0,0.0,0.0,-1.3405,0.0,0.0,-1.6038,0.0,0.0,-1.6991,-1.7108,0.0,-1.7248,-1.7306,-1.7371,-1.7082,-1.6752,-1.7223,-1.6994,-1.6604,-1.6804,-1.6763,-1.6565,-1.6188,-1.6077,0.0,-1.399,-1.3073,0.0,-1.1373,0.0,0.0,0.0,0.0,0.0,0.0,0.0,0.0,0.0,0.0,0.0,0.0,0.0,0.0,0.0,0.0,0.0,0.0,0.0,-0.6058,-0.6962,0.0,0.0,0.0,0.0,-0.8786,-0.9198,-0.9513,-0.9655,-0.9567,-0.9496,-0.9306,-0.9024,-0.9843,-1.0161,-1.0072,-1.0672,-1.1103,-1.1326,-1.1326,-1.1326,-1.1276,-1.1023,-1.082,-1.0718,-1.0205,-0.9784,-0.9562,-0.974,-0.9636,-0.9427,0.0,0.0,0.0,0.0,-1.072,0.0,0.0,0.0,-1.5894,0.0,-1.8079,-1.9219,-1.9987,-2.0058,-2.0042,-2.0026,-2.0045,0.0,-1.5587,-1.5949,0.0,0.0,-1.3548,-1.3514,-1.353,0.0,0.0,0.0,0.0,0.0,0.0,0.0,0.0,0.0,-0.9248,0.0,-1.2506,-1.3536,-1.5096,-1.6879,-1.6691,-1.6743,-1.6946,-1.6691,-1.6795,-1.7083,-1.7149,-1.7224,-1.7281,-1.7387,-1.7346,-1.7281,-1.7306,-1.7248,-1.7199,-1.7215,-1.6914,-1.6649,-1.667,-1.62,-1.5439,-1.4261,-1.3697,0.0,0.0,0.0,-1.2004,0.0,0.0,0.0,0.0,0.0,0.0,0.0,0.0,0.0,0.0,0.0,0.0,0.0,0.0,0.0,0.0,0.0,-0.5804,-0.5826,-0.5893,0.0,0.0,0.0,-0.8157,-0.8295,-0.9106,-0.9368,-0.9016,-0.8952,-0.8952,-0.8984,-0.9266,-0.9638,-1.01,-1.0373,-1.0802,-1.1276,-1.1267,-1.1276,-1.1226,-1.0972,-1.0726,-1.047,-1.0102,-0.9784,-0.9465,-0.9688,-0.9799,-0.9799,-0.8544,-0.977,-1.0919,0.0,-1.1809,-1.2774,0.0,0.0,0.0,0.0,-1.8811,-1.9847,-2.0989,-2.0715,-2.0384,-2.0245,-1.9784,0.0,0.0,0.0,0.0,-1.6483,-1.5627,-1.5244,-1.5401,-1.3226,0.0,-1.1283,0.0,0.0,-0.7724,0.0,0.0,0.0,0.0,0.0,-1.1617,-1.2938,-1.4766,-1.6811,-1.6623,-1.6596,0.0,0.0,-1.6623,-1.6727,-1.6857,-1.6991,-1.7099,-1.7199,-1.7224,-1.7224,-1.7281,-1.7281,-1.7257,-1.7199,-1.7124,-1.694,-1.6448,-1.6188,-1.589,-1.5193,-1.4298,-1.3594,0.0,0.0,0.0,0.0,0.0,0.0,0.0,0.0,0.0,0.0,0.0,0.0,0.0,0.0,0.0,0.0,0.0,0.0,0.0,-0.5747,-0.5898,-0.6157,-0.6241,0.0,0.0,0.0,0.0,-0.8379,-0.9241,-0.9646,-0.943,-0.9217,-0.9065,-0.8911,-0.9334,-0.9742,-1.01,-1.0493,-1.0778,-1.1023,-1.1217,-1.1074,-1.0718,-1.0616,-1.0522,-1.0316,-1.0007,-0.9844,-0.9836,-0.9577,-0.9629,-0.9799,-0.8634,0.0,0.0,-1.2631,0.0,0.0,-1.5202,0.0,0.0,-1.8276,-1.9388,0.0,-2.1001,-2.1036,-2.0869,-2.0418,-2.0044,0.0,0.0,0.0,0.0,-1.7059,-1.7082,-1.6993,-1.6712,-1.483,0.0,-1.2067,0.0,0.0,-0.7797,0.0,0.0,0.0,0.0,-1.0158,0.0,-1.3355,-1.5215,-1.6889,-1.6792,0.0,0.0,-1.6889,-1.6917,-1.7081,-1.7108,-1.704,-1.6972,-1.709,-1.7099,-1.7124,-1.7224,-1.7248,-1.7248,-1.7248,-1.7133,-1.6898,-1.6528,-1.6258,-1.6011,-1.5697,-1.5033,-1.4473,-1.4616,-1.4214,-1.3903,0.0,-1.37,-1.3144,0.0,0.0,0.0,0.0,0.0,0.0,0.0,0.0,0.0,0.0,0.0,0.0,-0.6445,-0.6045,-0.5792,-0.5693,-0.6031,0.0,0.0,0.0,0.0,-0.7831,-0.858,-0.9112,-0.935,-0.9088,-0.8975,-0.8952,-0.9376,-0.9795,-1.01,-1.0493,-1.0778,-1.0922,-1.1074,-1.0871,-1.047,-1.036,-1.0316,-1.0265,-1.0007,-0.9895,-0.9895,-0.9629,-0.9688,-0.9799,0.0,0.0,0.0,0.0,0.0,0.0,0.0,-1.6644,0.0,-1.8533,0.0,-2.0541,-2.0554,-2.1062,-2.1158,-2.0602,0.0,-1.9528,-1.7406,-1.8496,-1.8552,-1.7056,-1.827,-1.861,-1.7826,-1.68,0.0,0.0,0.0,0.0,0.0,0.0,0.0,0.0,0.0,0.0,0.0,-1.414,-1.5893,-1.7043,-1.7076,-1.7415,-1.7824,-1.7449,-1.7475,-1.7653,-1.7621,-1.7354,-1.7013,-1.7187,-1.7261,-1.7287,-1.74,-1.7476,-1.7501,-1.7551,-1.7219,-1.6865,-1.6813,-1.6363,-1.5885,-1.5871,-1.5742,-1.5507,-1.4885,-1.477,-1.4919,-1.5418,-1.4299,-1.3728,0.0,0.0,0.0,0.0,0.0,0.0,0.0,0.0,0.0,0.0,0.0,0.0,0.0,-0.6354,-0.5765,-0.5125,-0.5655,0.0,0.0,0.0,0.0,-0.7173,-0.7747,-0.8351,-0.8975,-0.8805,-0.8805,-0.8975,-0.9325,-0.97,-1.0055,-1.0394,-1.0679,-1.0871,-1.0871,-1.0718,-1.0411,-1.0154,-1.011,-1.0213,-1.0051,-0.9895,-0.9799,-0.9792,-0.9799,-0.9799,0.0,0.0,0.0,0.0,0.0,-1.6738,-1.7378,-1.7566,-1.7944,-1.8816,-1.9657,-2.0375,-2.0859,-2.0587,-2.0462,-2.0718,-2.0287,0.0,0.0,0.0,0.0,-2.0088,-2.0024,-1.9774,-1.9418,-1.7948,-1.5905,0.0,-1.1749,-0.9957,0.0,0.0,0.0,0.0,0.0,0.0,-1.2169,-1.3783,0.0,-1.7252,-1.719,-1.7561,-1.813,-1.7992,-1.773,-1.7517,-1.805,-1.7905,-1.7574,-1.8273,-1.855,-1.8651,-1.872,-1.887,-1.9007,-1.8953,-1.8378,-1.7717,-1.7417,-1.6691,-1.5926,-1.5697,-1.604,-1.6263,-1.5711,-1.5965,-1.6159,-1.5699,-1.5198,-1.4685,-1.3982,0.0,0.0,0.0,0.0,0.0,0.0,0.0,0.0,0.0,0.0,0.0,0.0,0.0,-0.6602,0.0,0.0,0.0,0.0,0.0,0.0,0.0,-0.8101,0.0,0.0,0.0,-0.8716,-0.8765,-0.8831,-0.9172,-0.9781,-0.9847,-1.0148,-1.0573,-1.0675,-1.0514,-1.0102,-1.0213,-1.011,-0.9903,-0.9851,-0.9799,-0.9799,-0.9673,-0.9681,-0.9799,0.0,0.0,0.0,0.0,0.0,0.0,0.0,-1.8644,0.0,-1.9057,-1.9292,-1.9563,-1.9834,-1.9941,-2.0101,-2.0356,-2.0049,-2.0108,-2.0718,-2.0304,-2.0396,-2.1234,-2.0644,0.0,-2.0474,-1.8574,-1.6724,-1.4895,-1.2766,-1.0762,0.0,0.0,0.0,0.0,0.0,-1.114,0.0,0.0,0.0,-1.7426,-1.7713,-1.8167,-1.8697,-1.8616,-1.8498,-1.8486,-1.8796,-1.8765,-1.8531,-1.8606,-1.874,-1.8858,-1.893,-1.9119,-1.9244,-1.9042,-1.8585,-1.8084,-1.7684,-1.7136,-1.6649,-1.6507,-1.676,-1.6836,-1.6155,-1.6304,-1.6375,-1.5866,-1.5424,-1.4811,-1.3714,-1.2568,0.0,0.0,0.0,0.0,0.0,0.0,0.0,0.0,0.0,0.0,0.0,0.0,0.0,0.0,0.0,0.0,0.0,0.0,-0.6896,0.0,0.0,0.0,-0.8846,0.0,-0.8865,-0.9148,-0.8888,-0.9212,-1.0007,-0.9865,-0.9962,-1.0257,-1.0419,-1.0205,-0.9784,-0.9947,-0.9955,-0.9799,-0.9895,-0.9851,-0.9799,-0.9732,-0.974,-0.9799,0.0,-1.5329,0.0,0.0,-1.6516,0.0,-1.7935,-1.9413,-2.0248,-1.9504,-1.9284,-1.9196,-1.9139,-1.9631,-1.9991,-2.0021,-1.9918,-2.0198,-2.1004,-2.083,-2.1053,-2.1789,-2.1223,-2.1043,-2.1319,-1.9507,-1.7857,0.0,-1.4094,0.0,0.0,0.0,-0.8911,-0.9065,0.0,0.0,0.0,0.0,-1.6591,-1.7788,-1.832,-1.8846,-1.9302,-1.925,-1.9259,-1.935,-1.9489,-1.9458,-1.9306,-1.8998,-1.8998,-1.9121,-1.9197,-1.9317,-1.9436,-1.918,-1.8796,-1.8391,-1.8057,-1.7655,-1.7301,-1.7267,-1.7422,-1.7401,-1.6594,-1.6509,-1.6495,-1.6045,-1.5361,-1.46,-1.3712,-1.3106,0.0,0.0,0.0,0.0,0.0,0.0,0.0,0.0,0.0,0.0,0.0,0.0,0.0,0.0,0.0,0.0,-0.5533,0.0,0.0,0.0,0.0,-0.8174,-0.8967,0.0,-0.8965,-0.9606,-0.902,-0.9247,-1.0213,-0.9971,-0.9922,-1.0051,-1.0213,-1.0051,-0.9673,-0.9792,-0.9792,-0.9792,-0.9888,-0.9836,-0.974,-0.9799,-0.9799,-0.9851,0.0,0.0,0.0,0.0,0.0,0.0,-1.7824,-1.9392,-2.0531,-2.0382,-2.0303,-2.0225,-2.0173,-2.0231,-2.0216,-2.0098,-2.0079,-2.0316,-2.0872,-2.1004,-2.1498,-2.2464,-2.2556,-2.2421,-2.2096,-2.1368,-1.9754,0.0,0.0,-1.3833,0.0,-1.11,-1.0985,-1.1597,0.0,0.0,0.0,-1.6388,-1.7482,-1.8624,-1.8842,-1.9215,-1.9671,-1.9829,-1.9588,-1.9216,-1.9829,-1.966,-1.9298,-1.9934,-2.0289,-2.0522,-2.0522,-2.0506,-2.0475,-2.0426,-1.9741,-1.8933,-1.89,-1.8149,-1.7338,-1.7156,-1.7729,-1.8076,-1.7214,-1.7198,-1.7166,-1.6276,-1.5266,-1.4322,-1.3564,-1.3847,-1.3833,0.0,0.0,0.0,0.0,0.0,0.0,0.0,0.0,0.0,0.0,0.0,0.0,0.0,0.0,0.0,0.0,0.0,0.0,-0.7555,-0.8065,-0.8513,-0.8918,-0.8606,-0.8807,-0.9606,-0.8889,-0.902,-0.9922,-0.9784,-0.993,-1.0265,-1.0265,-1.0162,-0.9947,-0.9844,-0.9732,-0.9614,-0.9614,-0.9614,-0.9621,-0.974,-0.9895,-0.9999,0.0,0.0,0.0,0.0,0.0,0.0,0.0,-2.0039,-2.0593,-2.0551,-2.0531,-2.0461,-2.0308,-2.0265,-2.0254,-2.0287,-2.0208,-2.0467,-2.1206,-2.1536,-2.2107,-2.3033,-2.3044,-2.307,-2.316,-2.2094,-2.0915,0.0,0.0,0.0,0.0,-1.3117,-1.2975,-1.4055,0.0,-1.6217,-1.7239,-1.7973,-1.8537,-1.897,-1.9151,-1.943,-1.9726,-1.9797,-1.9773,-1.9749,-1.9954,-1.9913,-1.9783,-2.0039,-2.032,-2.0525,-2.0525,-2.0628,-2.0697,-2.0243,-1.9921,-1.9604,-1.9165,-1.8716,-1.831,-1.8173,-1.8338,-1.8329,-1.741,-1.7377,-1.7128,-1.5817,-1.4924,-1.4301,-1.3992,-1.3839,-1.3717,-1.3642,0.0,0.0,0.0,0.0,0.0,0.0,0.0,0.0,0.0,0.0,0.0,0.0,0.0,-0.5865,-0.6138,-0.6611,0.0,-0.7476,0.0,-0.8495,-0.8892,-0.855,-0.8828,-0.9656,-0.8936,-0.9101,-0.9946,-0.9794,-0.9717,-0.9629,-0.9465,-0.9406,-0.9406,-0.9256,-0.9361,-0.9614,-0.9614,-0.9614,-0.9614,-0.974,-0.9903,-1.0051,-1.3417,0.0,-1.6639,0.0,-1.9585,-1.9877,-1.995,-2.0284,-2.0523,-2.0501,-2.0566,-2.0543,-2.0405,-2.0328,-2.0321,-2.038,-2.0308,-2.0525,-2.1153,-2.1655,-2.2174,-2.2741,-2.3075,0.0,-2.3458,-2.252,-2.1843,-2.1447,-1.9266,0.0,-1.7205,-1.5503,-1.5329,-1.6509,-1.7434,-1.8257,-1.8974,-1.9405,-1.95,-1.9428,-1.951,-1.9596,-1.9654,-1.9726,-1.9869,-2.001,-2.0025,-2.0061,-2.008,-2.0025,-2.0131,-2.0285,-2.0285,-2.0308,-2.0277,-1.9752,-1.9609,-1.9522,-1.8974,-1.8851,-1.8827,-1.8644,-1.8659,-1.8521,-1.7765,-1.759,-1.718,-1.5854,-1.5066,-1.4624,-1.4689,-1.4101,-1.3757,-1.4114,0.0,0.0,0.0,0.0,0.0,0.0,0.0,-0.9293,0.0,0.0,0.0,0.0,0.0,-0.6924,-0.6593,-0.6929,0.0,0.0,0.0,0.0,-0.8818,-0.8609,-0.8912,-0.9644,-0.9111,-0.9264,-0.9999,-0.9851,-0.9584,-0.9211,-0.8995,-0.8823,-0.8764,-0.8823,-0.9033,-0.9406,-0.9562,-0.9614,-0.9673,-0.9792,-0.9955,-1.0102,-1.6214,-1.4934,-1.4521,-1.8849,-1.9431,-1.9277,-1.9137,-1.9852,-2.0386,-2.0308,-2.047,-2.0601,-2.0601,-2.0536,-2.0478,-2.0419,-2.0404,-2.0434,-2.0519,-2.1133,-2.1411,0.0,0.0,-2.3172,-2.2721,-2.2757,-2.262,-2.2307,0.0,0.0,-1.9429,-1.8288,-1.8178,-1.8958,-1.9256,-1.9778,-2.0484,-2.048,-2.0364,-2.0158,-1.9889,-1.9705,-1.9626,-1.9741,-1.9797,-1.9833,-2.0045,-2.0061,-2.0005,-2.008,-2.0061,-1.999,-1.999,-1.9581,-1.9139,-1.9101,-1.8745,-1.8319,-1.8228,-1.8361,-1.8478,-1.8282,-1.8478,-1.862,-1.8344,-1.7983,-1.7452,-1.6641,-1.5855,-1.5339,-1.5541,-1.4943,-1.4255,-1.3785,0.0,0.0,0.0,0.0,0.0,0.0,-0.9939,-0.8701,-0.8678,0.0,0.0,0.0,0.0,-0.8304,-0.7888,0.0,0.0,-0.7899,-0.8917,0.0,-0.8622,-0.8732,-0.9064,-0.9614,-0.9305,-0.9487,-0.9999,-0.9851,-0.9584,-0.9211,-0.9211,-0.8778,-0.8178,-0.8764,-0.8928,-0.8883,-0.9406,-0.9681,-0.9799,-0.9947,-1.011,-1.0316,-1.2492,-1.2916,-1.3528,-1.4933,-1.5123,-1.6008,-1.882,-1.7622,-1.6496,-1.6848,-1.8943,-2.0448,-2.0582,-2.0584,-2.0538,0.0,-2.0475,-2.0471,0.0,-2.1163,-2.1519,-2.1405,-2.2343,-2.295,-2.3164,-2.3021,-2.3088,-2.3392,0.0,0.0,0.0,-2.0237,-2.0314,-2.0526,-2.1174,-2.1502,-2.1573,-2.11,-2.0829,-2.0614,-1.9995,-1.969,-1.9654,-1.9726,-1.9797,-1.9955,-1.999,-2.0061,-2.0045,-1.994,-1.9955,-1.997,-1.9848,-1.9833,-1.9833,-1.9332,-1.908,-1.8878,-1.8383,-1.8293,-1.8268,-1.8095,-1.8121,-1.8214,-1.8069,-1.7603,-1.716,-1.6893,-1.6359,-1.5798,-1.5455,-1.5202,-1.484,-1.4269,-1.4151,0.0,0.0,0.0,0.0,0.0,-1.0508,-0.9749,0.0,-0.9139,0.0,0.0,0.0,0.0,0.0,0.0,0.0,0.0,-0.9201,0.0,-0.8937,-0.9142,-0.9321,-0.9531,-0.9313,-0.9444,-0.9851,-0.9732,-0.9458,-0.9033,-0.8508,-0.819,-0.7972,-0.7771,-0.7877,-0.819,-0.8402,-0.8508,-0.8666,-0.8837,-0.9263,-0.9732,-1.0825,-1.2061,-1.3102,-1.3102,-1.3102,-1.3972,-1.6581,-1.5565,-1.4616,-1.495,-1.6996,-1.8459,-1.8558,-1.9723,0.0,-2.0526,-2.0503,-2.0508,-2.0492,-2.0929,-2.1161,-2.1082,-2.1817,-2.2458,-2.2986,-2.312,0.0,-2.3937,-2.3135,-2.2344,-2.1569,-2.1721,-2.1727,-2.1634,-2.2173,-2.226,-2.1982,-2.1612,-2.1181,-2.073,-2.0243,-1.9909,-1.969,-1.9726,-1.9848,-1.999,-2.0025,-2.0045,-2.008,-1.9975,-1.9955,-1.9955,-1.9654,-1.9762,-1.9833,-1.9147,-1.8779,-1.8535,-1.8082,-1.8016,-1.8069,-1.7975,-1.7962,-1.8002,-1.7935,-1.7649,-1.739,-1.739,-1.6937,-1.6464,-1.6129,-1.5654,-1.5162,-1.476,-1.4357,-1.3845,-1.3134,0.0,0.0,0.0,0.0,0.0,0.0,-1.0103,-1.0026,0.0,0.0,0.0,0.0,0.0,-0.9252,-0.8643,-0.9742,-1.0062,-0.9351,-0.9629,-0.9708,-0.9596,-0.9427,-0.9489,-0.9732,-0.9621,-0.9354,-0.8876,-0.819,-0.7765,-0.7557,-0.7241,-0.7295,-0.761,-0.7818,-0.7972,-0.8131,-0.8309,-0.8685,-0.9099,-1.1038,-1.2097,-1.2977,0.0,-1.3084,-1.3084,-1.3102,-1.3902,-1.4488,-1.4488,-1.4927,-1.5215,-1.5195,-1.8141,-2.0218,-2.0448,0.0,0.0,-2.0504,-2.0503,-2.0472,-2.0405,-2.1114,-2.1746,-2.2232,-2.2969,-2.3515,-2.3905,-2.3495,-2.3182,-2.2977,-2.2747,-2.2497,-2.231,-2.2366,-2.222,-2.1911,-2.1969,-2.146,-2.0581,-2.0583,-2.0227,-1.969,-1.9762,-1.9884,-1.999,-2.008,-2.01,-2.008,-2.0065,-2.0045,-1.9935,-1.9523,-1.9376,-1.9228,-1.8669,-1.8028,-1.7529,-1.7432,-1.7638,-1.7882,-1.7882,-1.7935,-1.7988,-1.7988,-1.7988,-1.7988,-1.7988,-1.755,-1.7229,-1.7338,-1.6302,-1.538,-1.523,-1.4654,-1.3931,-1.2996,0.0,0.0,0.0,0.0,0.0,-1.1075,-1.09,-1.0806,0.0,0.0,0.0,0.0,0.0,-0.953,-0.9817,-1.0491,-1.0505,-0.9823,-1.0169,-1.0157,-0.9725,-0.9628,-0.9614,-0.9614,-0.9614,-0.9354,-0.883,-0.8243,-0.7664,-0.7139,-0.7139,-0.7085,-0.7085,-0.761,-0.7871,-0.8025,-0.8203,-0.8368,-0.8573,0.0,0.0,-1.1888,-1.2922,-1.2959,-1.2922,-1.3084,-1.3902,-1.4488,-1.4488,-1.453,-1.4701,-1.514,-1.706,-1.8525,-1.9029,-1.9945,-2.0508,-2.0505,-2.0495,-2.0497,-2.0483,-2.0667,-2.1056,-2.1684,-2.1678,-2.2107,-2.3009,-2.3205,-2.3182,-2.2977,-2.2747,-2.2508,-2.2394,-2.2377,-2.2231,-2.1969,-2.1982,-2.143,-2.0514,-2.0416,-2.0,-1.9487,-1.9596,-1.9705,-1.9797,-1.9955,-2.0025,-1.999,-1.9904,-1.9919,-1.9884,-1.9362,-1.8988,-1.8745,-1.8422,-1.8214,-1.7989,-1.772,-1.7679,-1.776,-1.776,-1.7842,-1.7909,-1.7909,-1.7909,-1.7909,-1.7909,-1.7853,-1.7646,-1.726,-1.6893,-1.6336,-1.5366,-1.4923,-1.4186,-1.2661,-1.2686,0.0,0.0,-1.2096,-1.2263,-1.1394,-1.1792,-1.1522,0.0,0.0,0.0,-1.0278,-1.0425,-1.0362,-0.9972,-1.0862,-1.0973,-1.0177,-1.0549,-1.0487,-0.9929,-0.9688,-0.9614,-0.9614,-0.9614,-0.951,-0.9406,-0.8823,-0.8243,-0.7664,-0.7241,-0.682,-0.6445,-0.6549,-0.6707,-0.681,-0.7025,-0.745,-0.7937,-1.0897,-1.1665,-1.2567,-1.3285,-1.3087,-1.2848,-1.294,-1.3394,-1.3881,-1.4338,-1.4344,-1.5106,-1.7202,-1.8252,-1.8732,-1.8564,-1.9745,-2.033,-1.9922,-2.029,-2.049,-2.05,-2.0495,-2.0828,-2.1536,-2.1732,-2.2376,-2.3493,-2.3497,-2.3353,-2.3035,-2.291,-2.2694,-2.2405,-2.2432,-2.2287,-2.2039,-2.2068,-2.1505,-2.0565,-2.0483,-2.007,-1.956,-1.9574,-1.9669,-1.9762,-1.9884,-1.9955,-1.9955,-1.969,-1.9797,-1.9884,-1.9176,-1.895,-1.8898,-1.863,-1.8201,-1.7868,-1.772,-1.772,-1.7801,-1.7801,-1.7842,-1.7882,-1.7882,-1.7882,-1.7882,-1.7882,-1.7949,-1.784,-1.7434,-1.6957,-1.6335,-1.5448,-1.4831,-1.398,-1.2686,-1.2894,-1.2992,-1.2424,-1.2927,-1.32,-1.2936,-1.2837,-1.24,-1.1398,-1.1391,0.0,-1.1195,-1.1223,-1.1084,-1.0634,-1.1135,-1.1213,-1.0754,-1.0721,-1.0565,-1.0205,-0.9777,-0.9458,-0.9242,-0.951,-0.9458,-0.919,-0.8928,-0.8455,-0.7871,-0.7295,-0.6766,-0.6178,-0.6178,-0.6228,-0.6332,-0.649,-0.6864,-0.7241,-1.1374,-1.2815,-1.4007,-1.3941,-1.3411,-1.3031,-1.3283,-1.3028,-1.3106,-1.3959,-1.4211,-1.5569,-1.8858,-1.9735,-1.9678,-1.8688,-1.9883,-2.0301,-1.9443,-2.0078,-2.05,-2.0509,-2.0508,-2.0798,-2.1403,-2.2092,-2.2973,-2.4018,-2.3764,-2.3476,-2.3091,-2.3091,-2.2833,-2.2405,-2.246,-2.2343,-2.2096,-2.2181,-2.1609,-2.0665,-2.0616,-2.0227,-1.9654,-1.9596,-1.9669,-1.9762,-1.9762,-1.9848,-1.9884,-1.9566,-1.9639,-1.9741,-1.9049,-1.9026,-1.9176,-1.886,-1.8266,-1.772,-1.7788,-1.7842,-1.7882,-1.7882,-1.7882,-1.7882,-1.7882,-1.7882,-1.7882,-1.7882,-1.7882,-1.7828,-1.7679,-1.6937,-1.612,-1.555,-1.4813,-1.3967,-1.2922,0.0,-1.3877,-1.3695,-1.3835,-1.4161,-1.4684,-1.3825,-1.3215,-1.3124,-1.2637,-1.2399,-1.2529,-1.2173,-1.185,-1.1543,-1.1398,-1.1309,-1.1318,-1.0667,-1.036,-1.0411,-0.9777,-0.9249,-0.8883,-0.9249,-0.9197,-0.8778,-0.8666,-0.8349,-0.7871,-0.7295,-0.682,-0.6337,-0.6232,-0.6178,-0.6232,-0.6386,-0.6544,-0.6598,-1.4529,-1.4859,-1.4994,-1.4683,-1.41,-1.4116,-1.5453,-1.4028,-1.285,-1.3,-1.3768,-1.4538,-1.5136,-1.8091,-1.976,-1.9152,-2.058,-2.1141,-2.0266,-2.0343,-2.0447,-2.05,-2.0494,-2.0519,-2.0578,-2.1091,-2.1664,-2.229,-2.2793,-2.3066,-2.3091,-2.3091,-2.2833,-2.2405,-2.246,-2.2315,-2.201,-2.2136,-2.1549,-2.0548,-2.0583,-2.0139,-1.945,-1.9574,-1.9611,-1.9647,-1.9705,-1.9726,-1.9726,-1.969,-1.9472,-1.9213,-1.9101,-1.886,-1.863,-1.863,-1.863,-1.8553,-1.8279,-1.8055,-1.7882,-1.7882,-1.7882,-1.7882,-1.7882,-1.7882,-1.7882,-1.7882,-1.7801,-1.7679,-1.757,-1.741,-1.6917,-1.583,-1.6062,-1.5591,-1.3422,0.0,-1.499,-1.3765,-1.4273,-1.4744,-1.4799,-1.4085,-1.3636,-1.3651,-1.3345,-1.3152,-1.3144,-1.314,-1.2853,-1.2161,-1.1686,-1.1405,-1.1318,-1.0233,-0.9873,-1.0072,-0.9295,-0.8988,-0.9106,-0.889,-0.8778,-0.8771,-0.8143,-0.7877,-0.7871,-0.7295,-0.7031,-0.6923,-0.6391,-0.6178,-0.6232,-0.6544,-0.6495,-0.6337,-1.48,-1.5313,-1.5192,-1.4871,-1.4683,-1.5166,-1.6809,-1.6095,-1.5326,-1.5326,-1.5731,-1.6273,-1.6929,-1.8577,-1.9861,-2.0451,-2.1078,-2.1434,-2.1425,-2.1186,-2.1286,-2.1816,-2.0976,-2.0655,-2.0983,-2.1091,-2.162,-2.2585,-2.2791,-2.3041,-2.3301,-2.3182,-2.2935,-2.2605,-2.2525,-2.2443,-2.2298,-2.1953,-2.1673,-2.1369,-2.0957,-2.0792,-2.0684,-2.0415,-2.0542,-2.085,-2.0511,-2.0391,-2.0317,-2.005,-1.9589,-1.9064,-1.886,-1.8784,-1.8822,-1.886,-1.8846,-1.8846,-1.8745,-1.8475,-1.8214,-1.8214,-1.8069,-1.7882,-1.7706,-1.7693,-1.7666,-1.7638,-1.7569,-1.7515,-1.7365,-1.7142,-1.6705,-1.5996,-1.6007,-1.57,-1.4572,-1.5184,-1.557,-1.5162,-1.5097,-1.524,-1.5538,-1.4801,-1.426,-1.4136,-1.3922,-1.3795,-1.3775,-1.3192,-1.2818,-1.2698,-1.1861,-1.1335,-1.1326,-1.0659,-1.0293,-1.0241,-0.9399,-0.8771,-0.8415,-0.8249,-0.8084,-0.7759,-0.7818,-0.7664,-0.7456,-0.7187,-0.7085,-0.7085,-0.6869,-0.6761,-0.6712,-0.6858,-0.6593,-0.6178,-1.4536,-1.5192,-1.5086,-1.4839,-1.4994,-1.5386,-1.6063,-1.6954,-1.7545,-1.7515,-1.7515,-1.7958,-1.9178,-1.9227,-1.9658,-2.0844,-2.1343,-2.177,-2.2231,-2.2199,-2.2399,-2.294,-2.1772,-2.1325,-2.181,-2.1671,-2.2129,-2.321,-2.3078,-2.3177,-2.3508,-2.3259,-2.3122,-2.3059,-2.2664,-2.2627,-2.2781,-2.2013,-2.1907,-2.2115,-2.1518,-2.1485,-2.1762,-2.1341,-2.15,-2.1903,-2.1235,-2.1076,-2.1054,-2.0376,-1.9809,-1.9328,-1.8979,-1.9011,-1.9161,-1.9124,-1.9072,-1.9058,-1.9161,-1.8936,-1.863,-1.85,-1.8201,-1.7855,-1.7557,-1.7475,-1.7461,-1.7404,-1.7404,-1.735,-1.7199,-1.6927,-1.6533,-1.615,0.0,-1.5839,-1.5488,-1.5824,-1.619,-1.6389,-1.5847,-1.5666,-1.6182,-1.539,-1.4744,-1.4536,-1.4458,-1.4414,-1.4359,-1.3424,-1.2836,-1.2851,-1.185,-1.1326,-1.1326,-1.0913,-1.0506,-1.0146,-0.934,-0.8495,-0.761,-0.7664,-0.7391,-0.6961,-0.7283,-0.7343,-0.7085,-0.6923,-0.6977,-0.7085,-0.7079,-0.7079,-0.7133,-0.6961,-0.6642,-0.6277,-1.4828,-1.4839,-1.4839,-1.4808,-1.4839,-1.4021,-1.1576,-1.4947,-1.7715,-1.7522,-1.7515,-1.7958,-1.9178,-1.9017,-1.8878,-1.8985,-2.125,-2.2524,-2.2144,-2.3189,-2.3523,-2.2844,-2.2867,-2.2873,-2.2811,-2.2779,-2.294,-2.3303,-2.3337,-2.3451,-2.3606,-2.3376,-2.3503,-2.3858,-2.2914,-2.289,-2.3465,-2.2681,-2.2247,-2.2112,-2.205,-2.1918,-2.1807,-2.1894,-2.1948,-2.1903,-2.1235,-2.1402,-2.1736,-2.0455,-2.0124,-2.0241,-1.9993,-1.9639,-1.9369,-1.9207,-1.9281,-1.9369,-1.9457,-1.9273,-1.8988,-1.8592,-1.8291,-1.8001,-1.7585,-1.7461,-1.7404,-1.7404,-1.7404,-1.735,-1.7199,-1.716,-1.6963,-1.6467,0.0,0.0,-1.5832,-1.6586,-1.7088,-1.656,-1.6174,-1.6027,-1.6269,-1.5433,-1.4892,-1.4858,-1.496,-1.5005,-1.4858,-1.4446,-1.37,-1.2463,-1.1701,-1.1326,-1.1326,-1.049,-0.9755,-0.9079,-0.86,-0.8019,-0.7343,-0.7069,-0.702,-0.7031,-0.6436,-0.649,-0.7085,-0.65,-0.6603,-0.7031,-0.65,-0.6707,-0.7182,-0.6495,-0.649,-0.6637,-1.4578,-1.4808,-1.4808,-1.4808,-1.4808,-1.3936,-1.1343,-1.4735,-1.7592,-1.7498,-1.7515,-1.7675,-1.8132,-1.8371,-1.8792,-1.9546,-2.1668,-2.2918,-2.2791,-2.401,-2.4226,-2.3036,-2.3573,-2.3567,-2.2846,-2.2888,-2.3036,-2.3303,-2.3319,-2.3503,-2.3837,-2.3468,-2.3347,-2.342,-2.3216,-2.3238,-2.3439,-2.2998,-2.3012,-2.3219,-2.2709,-2.2748,-2.2998,-2.2728,-2.2859,-2.3132,-2.2464,-2.2443,-2.2674,-2.2156,-2.1644,-2.1111,-2.0505,-2.0221,-2.002,-1.9758,-1.9747,-1.9854,-1.9889,-1.9675,-1.9435,-1.9273,-1.8884,-1.8447,-1.812,-1.8028,-1.7841,-1.7529,-1.7529,-1.7488,-1.724,-1.7199,-1.7133,-1.6952,0.0,-1.7137,-1.6691,-1.7073,-1.7325,-1.7088,-1.6456,-1.6126,-1.6269,-1.5433,-1.4949,-1.5006,-1.5062,-1.5062,-1.5017,-1.4222,-1.317,-1.19,-1.1569,-1.1377,-1.1326,-1.0533,-0.9858,-0.9347,-0.8283,-0.754,-0.702,-0.6652,-0.6436,-0.6381,-0.6223,-0.6282,-0.6549,-0.6282,-0.6549,-0.7085,-0.6858,-0.6858,-0.7015,-0.6583,-0.6258,-0.5996,-1.4533,-1.4808,-1.4808,-1.4808,-1.4808,-1.3936,-1.1367,-1.4695,-1.7515,-1.7515,-1.7515,-1.7515,-1.7515,-1.7905,-1.8506,-1.9353,-2.1384,-2.266,-2.2715,-2.4338,-2.4861,-2.3897,-2.4451,-2.4415,-2.3636,-2.3663,-2.3822,-2.4089,-2.412,-2.4352,-2.4741,-2.4288,-2.4134,-2.4196,-2.3938,-2.3849,-2.3809,-2.3495,-2.3512,-2.373,-2.3285,-2.339,-2.3736,-2.3425,-2.3588,-2.3906,-2.3182,-2.3117,-2.3279,-2.2854,-2.236,-2.1799,-2.118,-2.0706,-2.0332,-1.9972,-1.9797,-1.9767,-1.9889,-1.9833,-1.969,-1.969,-1.931,-1.8831,-1.8535,-1.8277,-1.7988,-1.7639,-1.7557,-1.7475,-1.724,-1.7199,-1.7199,-1.7199,-1.7199,-1.7199,-1.7199,-1.7295,-1.735,-1.7432,-1.6667,-1.6182,-1.6367,-1.5534,-1.5006,-1.5108,-1.5108,-1.4971,-1.464,-1.3836,-1.2832,-1.1628,-1.1477,-1.1368,-1.1175,-1.0482,-0.9806,-0.9138,-0.8025,-0.7171,-0.6588,-0.6386,-0.6173,-0.6059,-0.6228,-0.6228,-0.6178,-0.6178,-0.6391,-0.6707,-0.6696,-0.674,-0.674,-0.6362,-0.6095,-0.5832,-1.4808,-1.4808,-1.4808,-1.4808,-1.4808,-1.3877,-1.1148,-1.456,-1.7474,-1.7515,-1.7491,-1.7474,-1.7515,-1.7743,-1.7905,-1.7905,-2.0171,-2.1623,-2.1722,-2.4081,-2.5485,-2.5502,-2.5566,-2.5538,-2.541,-2.5395,-2.5521,-2.5792,-2.5874,-2.6079,-2.6399,-2.5991,-2.6082,-2.6546,-2.5205,-2.4658,-2.4771,-2.4163,-2.3692,-2.3357,-2.3679,-2.3797,-2.3797,-2.394,-2.3982,-2.3891,-2.3085,-2.314,-2.34,-2.2043,-2.1962,-2.2378,-2.2073,-2.1201,-2.0132,-1.9731,-1.9288,-1.902,-1.9487,-1.9632,-1.969,-1.969,-1.9442,-1.9095,-1.8688,-1.812,-1.772,-1.772,-1.7434,-1.7199,-1.7199,-1.7199,-1.7199,-1.7199,-1.7199,-1.7199,-1.7199,-1.7199,-1.7282,-1.7475,-1.6735,-1.6275,-1.6479,-1.5635,-1.5108,-1.5108,-1.5108,-1.464,-1.3668,-1.3467,-1.288,-1.1719,-1.1427,-1.1175,-1.0922,-1.0277,-0.9332,-0.8072,-0.7706,-0.6961,-0.6,-0.6273,-0.6332,-0.6232,-0.6332,-0.6332,-0.6178,-0.6178,-0.6014,-0.5795,-0.5795,-0.6105,-0.6509,-0.5618,-0.5828,-0.646,-1.4808,-1.4808,-1.4808,-1.4808,-1.4808,-1.4525,-1.3694,-1.4718,-1.6062,-1.7338,-1.7134,-1.7018,-1.7451,-1.7743,-1.7905,-1.7905,-1.9361,-2.0952,-2.2582,-2.3698,-2.4612,-2.5337,-2.5554,-2.5559,-2.5332,-2.5376,-2.5516,-2.5739,-2.5755,-2.5987,-2.6447,-2.5949,-2.5737,-2.5746,-2.5442,-2.5046,-2.4694,-2.4895,-2.4625,-2.401,-2.4101,-2.3952,-2.3653,-2.3696,-2.361,-2.348,-2.3228,-2.3229,-2.3333,-2.2961,-2.3088,-2.329,-2.2712,-2.1929,-2.106,-2.0459,-2.0213,-2.0019,-1.9752,-1.969,-1.9639,-1.9288,-1.9369,-1.9347,-1.8893,-1.8664,-1.8472,-1.8187,-1.7828,-1.7516,-1.724,-1.7199,-1.7199,-1.7199,-1.7199,-1.7199,-1.7199,-1.7199,-1.7282,-1.7475,-1.6934,-1.6552,-1.6522,-1.5856,-1.5367,-1.5108,-1.5108,-1.4525,-1.3236,-1.313,-1.2463,-1.1015,-1.1023,-1.0769,-1.0257,-0.9384,-0.8692,-0.8224,-0.7128,-0.644,-0.6119,-0.6332,-0.6332,-0.6232,-0.6332,-0.6223,-0.5905,-0.5905,-0.5732,-0.5449,-0.5462,-0.5567,-0.5668,-0.5403,-0.5458,-0.5673,-1.4794,-1.4808,-1.4808,-1.4808,-1.4808,-1.4808,-1.4808,-1.4808,-1.5359,-1.6876,-1.6825,-1.6825,-1.7354,-1.7576,-1.7715,-1.7715,-1.8923,-2.068,-2.2989,-2.3518,-2.4236,-2.5299,-2.5519,-2.5545,-2.5386,-2.5376,-2.5635,-2.6204,-2.6187,-2.6558,-2.7305,-2.6559,-2.6198,-2.617,-2.5805,-2.538,-2.4956,-2.5191,-2.4902,-2.4261,-2.4094,-2.3824,-2.348,-2.348,-2.3392,-2.3216,-2.3172,-2.3127,-2.3127,-2.3172,-2.3392,-2.3462,-2.2721,-2.2203,-2.1743,-2.0971,-2.0602,-2.036,-1.9975,-1.9716,-1.942,-1.893,-1.9221,-1.956,-1.9295,-1.8983,-1.8679,-1.8422,-1.7948,-1.7475,-1.724,-1.7199,-1.7199,-1.7199,-1.7199,-1.7199,-1.7199,-1.7199,-1.7282,-1.7475,-1.706,-1.6735,-1.6522,-1.5988,-1.5534,-1.5108,-1.5108,-1.4525,-1.3236,-1.3024,-1.2307,-1.0972,-1.0769,-1.0514,-1.0205,-0.9033,-0.8336,-0.8125,-0.6864,-0.6282,-0.6282,-0.6495,-0.6495,-0.6282,-0.6436,-0.6223,-0.5795,-0.5795,-0.5513,-0.5171,-0.5179,-0.5183,-0.5128,-0.5183,-0.5242,-0.5297,-1.4825,-1.4808,-1.4856,-1.4996,-1.4966,-1.4935,-1.5027,-1.4996,-1.533,-1.6358,-1.6586,-1.6841,-1.7257,-1.7346,-1.7387,-1.7387,-1.8724,-2.0553,-2.2906,-2.3366,-2.4107,-2.5354,-2.5465,-2.5508,-2.5527,-2.5376,-2.5853,-2.7,-2.6915,-2.7477,-2.8594,-2.76,-2.7197,-2.7344,-2.6285,-2.5697,-2.5465,-2.5098,-2.4719,-2.4261,-2.3852,-2.3566,-2.3363,-2.3363,-2.326,-2.3127,-2.2934,-2.2889,-2.2904,-2.2888,-2.3068,-2.3128,-2.2338,-2.2192,-2.2188,-2.132,-2.0764,-2.0337,-2.0229,-1.9773,-1.9226,-1.8754,-1.9168,-1.9654,-1.9654,-1.9072,-1.8539,-1.85,-1.7828,-1.724,-1.7199,-1.7199,-1.7199,-1.7199,-1.7199,-1.7199,-1.7199,-1.7199,-1.7282,-1.7475,-1.7199,-1.6833,-1.6522,-1.602,-1.5579,-1.5108,-1.5017,-1.449,-1.3362,-1.289,-1.2209,-1.1217,-1.0565,-1.0316,-1.0419,-0.9106,-0.8256,-0.7931,-0.6918,-0.6436,-0.6436,-0.6771,-0.6712,-0.6381,-0.6598,-0.6327,-0.5736,-0.574,-0.5403,-0.4901,-0.5014,-0.5014,-0.4901,-0.5014,-0.5183,-0.5242,-1.4825,-1.4808,-1.5255,-1.667,-1.6293,-1.6074,-1.6799,-1.6427,-1.6305,-1.7002,-1.6815,-1.6779,-1.7257,-1.7306,-1.7306,-1.7306,-1.8068,-1.9517,-2.1863,-2.2327,-2.3384,-2.5321,-2.5457,-2.5546,-2.5658,-2.5415,-2.5822,-2.6911,-2.6842,-2.7472,-2.8669,-2.8226,-2.7748,-2.7322,-2.6943,-2.6268,-2.54,-2.5368,-2.4942,-2.4302,-2.4354,-2.4147,-2.3855,-2.3754,-2.3566,-2.329,-2.3024,-2.2814,-2.2692,-2.2781,-2.2917,-2.2949,-2.2773,-2.273,-2.2643,-2.196,-2.1685,-2.1509,-2.0944,-2.0389,-1.9885,-1.9767,-1.9569,-1.9325,-1.9049,-1.8921,-1.8741,-1.8539,-1.8068,-1.7557,-1.7282,-1.7199,-1.7199,-1.7199,-1.7199,-1.7199,-1.7199,-1.7295,-1.7391,-1.7475,-1.7502,-1.7253,-1.6565,-1.5724,-1.5187,-1.496,-1.4376,-1.3558,-1.2511,-1.1756,-1.1023,-1.0154,-1.0102,-1.0058,-0.9947,-0.9001,-0.8474,-0.8262,-0.7187,-0.6647,-0.6647,-0.682,-0.6712,-0.6381,-0.6322,-0.5991,-0.5391,-0.5175,-0.4901,-0.4629,-0.4743,-0.4743,-0.4743,-0.4901,-0.4956,-0.5011,-1.5389,-1.5536,-1.5935,-1.6783,-1.6885,-1.6869,-1.7043,-1.6732,-1.6586,-1.6892,-1.6712,-1.6727,-1.7158,-1.7232,-1.733,-1.7529,-1.7932,-1.9208,-2.1553,-2.1971,-2.3115,-2.5302,-2.5438,-2.5521,-2.5641,-2.5428,-2.574,-2.6612,-2.6746,-2.7292,-2.8255,-2.794,-2.7468,-2.6947,-2.6657,-2.61,-2.5357,-2.5405,-2.5075,-2.4517,-2.416,-2.3953,-2.3794,-2.3561,-2.3538,-2.358,-2.3275,-2.3113,-2.3127,-2.3422,-2.3378,-2.3231,-2.3231,-2.3068,-2.283,-2.2541,-2.2265,-2.1945,-2.1569,-2.1058,-2.0633,-2.0619,-2.0162,-1.9593,-1.9136,-1.8959,-1.8855,-1.8717,-1.8369,-1.8068,-1.7868,-1.7639,-1.7475,-1.7475,-1.7323,-1.7199,-1.7199,-1.7253,-1.7337,-1.7475,-1.757,-1.7323,-1.6565,-1.5635,-1.5017,-1.4834,-1.4247,-1.3474,-1.2463,-1.1665,-1.0931,-1.0154,-1.0051,-0.9947,-0.9895,-0.8949,-0.8474,-0.8368,-0.73,-0.6761,-0.6701,-0.682,-0.6657,-0.6218,-0.6159,-0.5719,-0.5117,-0.4952,-0.4736,-0.4519,-0.4632,-0.4691,-0.4743,-0.4846,-0.4897,-0.4901,-1.6184,-1.6401,-1.6586,-1.6528,-1.7069,-1.732,-1.6834,-1.6732,-1.6696,-1.6644,-1.6607,-1.6727,-1.7057,-1.7149,-1.733,-1.7743,-1.8018,-1.919,-2.1533,-2.1936,-2.3101,-2.531,-2.5396,-2.5466,-2.5602,-2.5432,-2.563,-2.6278,-2.6639,-2.7133,-2.7791,-2.7405,-2.7012,-2.6574,-2.6113,-2.5686,-2.528,-2.5313,-2.5044,-2.4595,-2.3779,-2.3513,-2.3568,-2.3163,-2.3417,-2.3933,-2.3368,-2.3251,-2.3378,-2.3769,-2.3762,-2.3516,-2.3516,-2.3258,-2.2996,-2.3038,-2.2644,-2.2204,-2.2164,-2.1742,-2.133,-2.1357,-2.086,-2.0216,-1.961,-1.9234,-1.8968,-1.8893,-1.8717,-1.8539,-1.85,-1.8187,-1.7868,-1.7787,-1.7516,-1.7282,-1.7199,-1.724,-1.7323,-1.7475,-1.7475,-1.7186,-1.6552,-1.5724,-1.5062,-1.4708,-1.4316,-1.3637,-1.2706,-1.1873,-1.1183,-1.0565,-1.0205,-0.9999,-0.9947,-0.9001,-0.8527,-0.8474,-0.7574,-0.6977,-0.6701,-0.682,-0.6549,-0.6,-0.5946,-0.5563,-0.4897,-0.4842,-0.468,-0.4519,-0.4632,-0.4688,-0.4688,-0.4791,-0.4846,-0.4846,-1.6843,-1.6767,-1.6843,-1.7353,-1.7224,-1.7134,-1.7353,-1.7281,-1.7208,-1.7183,-1.7075,-1.7057,-1.7083,-1.7108,-1.724,-1.7589,-1.7936,-1.9116,-2.1465,-2.1921,-2.3094,-2.5294,-2.5401,-2.5483,-2.5681,-2.5498,-2.5663,-2.6211,-2.6606,-2.7133,-2.7791,-2.7453,-2.7038,-2.6574,-2.6172,-2.5683,-2.523,-2.526,-2.4888,-2.4163,-2.3856,-2.3678,-2.3506,-2.2763,-2.3328,-2.4296,-2.2751,-2.223,-2.2293,-2.2386,-2.2769,-2.3259,-2.3259,-2.3243,-2.327,-2.3458,-2.3088,-2.2631,-2.2746,-2.2352,-2.1916,-2.2044,-2.1574,-2.0914,-2.0362,-1.9773,-1.925,-1.8968,-1.8855,-1.8793,-1.8539,-1.8461,-1.8266,-1.7868,-1.776,-1.7598,-1.724,-1.7352,-1.7475,-1.7516,-1.7352,-1.7031,-1.6565,-1.602,-1.54,-1.4662,-1.392,-1.3283,-1.2812,-1.1584,-1.0846,-1.0753,-1.0249,-0.9947,-0.9851,-0.9323,-0.9054,-0.8903,-0.8421,-0.767,-0.6701,-0.6707,-0.649,-0.6,-0.5727,-0.5344,-0.4897,-0.4625,-0.4515,-0.4519,-0.4519,-0.4519,-0.4519,-0.4574,-0.4574,-0.457,-1.7248,-1.7248,-1.7296,-1.7542,-1.7455,-1.7368,-1.7479,-1.7425,-1.7353,-1.7305,-1.7232,-1.7149,-1.7149,-1.7108,-1.724,-1.7566,-1.7915,-1.9052,-2.1297,-2.1848,-2.3038,-2.5138,-2.5298,-2.5434,-2.5642,-2.5524,-2.5556,-2.5744,-2.6528,-2.7065,-2.7359,-2.7374,-2.7,-2.631,-2.583,-2.5279,-2.4758,-2.5071,-2.4717,-2.3951,-2.3644,-2.3338,-2.3052,-2.2544,-2.3,-2.3777,-2.3085,-2.2703,-2.254,-2.2796,-2.2928,-2.297,-2.297,-2.2824,-2.2716,-2.3244,-2.2945,-2.2616,-2.3154,-2.2875,-2.2372,-2.2161,-2.1622,-2.1006,-2.0283,-1.9642,-1.925,-1.9273,-1.9273,-1.9236,-1.9139,-1.8884,-1.864,-1.8383,-1.8028,-1.772,-1.7516,-1.7447,-1.7502,-1.7584,-1.7227,-1.6795,-1.6312,-1.5744,-1.5096,-1.4348,-1.3742,-1.3198,-1.2812,-1.1701,-1.1006,-1.0804,-1.0205,-0.9844,-0.9681,-0.9204,-0.8942,-0.889,-0.8355,-0.7877,-0.7444,-0.702,-0.6534,-0.6105,-0.5449,-0.5011,-0.468,-0.4574,-0.4519,-0.4519,-0.4519,-0.4519,-0.4519,-0.4519,-0.4574,-0.4736]}]]